     2              OBSERVATION DATA    GPS                 RINEX VERSION / TYPE
teqc 1997Sep10 19971010 23:20:16UTC                         PGM / RUN BY / DATE
                                                            COMMENT
Original Marker Name: ORIE                                  COMMENT
Campaign Name: NGS Salton Trough 1991                       COMMENT
4-Character Station Name: ORIE                              COMMENT
6-Character Antenna Code: TRMSST                            COMMENT
Vertical Measurement Point: BPA                             COMMENT
Vertical Offset to Rinex Ref. Point: 0.0000                 COMMENT
Radial Measurement Point: RRP                               COMMENT
Radial Offset to Rinex Ref. Point: 0.0000                   COMMENT
Antenna Height from Field Measurement: 2.2200 m             COMMENT
Original XYZ: -2299392.3777 -4841122.6060 3446189.7511      COMMENT
New XYZ position is based on association with SCEC monument COMMENT
E1C8Y5G3+0012. Position of that monument is believed to be  COMMENT
valid to within 1 m horizontally; vertical accuracy         COMMENT
should be no worse than 3-times this value.                 COMMENT
                                                            COMMENT
Revised Rinex header created by UCSD GPS archive for        COMMENT
GSAC on 10-Apr-1999 (1999:100) 07:46:45 GMT                 COMMENT
For assistance contact dagnew@ucsd.edu or hjohnson@ucsd.edu COMMENT
                                                            COMMENT
ORIENT 1939 1958                                            MARKER NAME
unknown NATIONAL GEODETIC SURVEY                            OBSERVER / AGENCY
622 TRIMBLE 4000 SST NP 4.30 / SP 4.20                      REC # / TYPE / VERS
16 TR 4000SST L1/L2 GEO                                     ANT # / TYPE
 -2299394.0000 -4841114.0000  3446187.0000                  APPROX POSITION XYZ
        2.2200        0.0000        0.0000                  ANTENNA: DELTA H/E/N
     1     1     0                                          WAVELENGTH FACT L1/2
     3    C1    L1    L2                                    # / TYPES OF OBSERV
     0                                                      INTERVAL
  1991     3    29    21    37   15.000000                  TIME OF FIRST OBS
  1991     3    30     3     6    0.000000                  TIME OF LAST OBS
     0                                                      # OF SATELLITES
                                                            END OF HEADER
 91  3 29 21 37 15.0000000  0  4G18G11G19G 2
  20568622.039          -0.65618        -0.48033
  23470297.3364         -0.19756        -0.18371
  20974361.836          -0.40917        -0.33033
  23864426.313          -0.23515        -0.31331
 91  3 29 21 37 45.0000000  0  4G18G11G19G 2
  20576206.688       39856.749 8     31057.20923
  23460834.797      -49724.178 6    -38745.89821
  20974204.141        -823.070 7      -641.31823
  23848709.8444     -82582.18045    -64349.50661
 91  3 29 21 38  0.0000000  0  4G18G11G19G 2
  20580030.297       59951.587 8     46715.50823
  23456130.4614     -74440.96146    -58005.61061
  20974132.992       -1185.480 7      -923.69323
  23840865.648     -123809.907 5    -96474.81121
 91  3 29 21 38 15.0000000  0  4G18G11G19G 2
  20583875.922       80156.442 8     62459.53223
  23451445.484      -99060.943 6    -77189.90421
  20974073.594       -1515.987 7     -1181.21122
  23833026.1024    -164995.78745   -128567.51061
 91  3 29 21 38 30.0000000  0  4G18G11G19G 2
  20587744.227      100481.725 8     78297.40323
  23446781.172     -123573.350 6    -96290.36421
  20974016.070       -1804.185 7     -1405.76422
  23825199.4384    -206129.19445   -160619.33261
 91  3 29 21 38 45.0000000  0  4G18G11G19G 2
  20591634.023      120926.417 8     94228.31923
  23442137.008     -147979.041 6   -115307.66921
  20973973.070       -2051.091 7     -1598.13922
  23817381.445     -247211.368 5   -192631.22121
 91  3 29 21 39  0.0000000  0  4G18G11G19G 2
  20595547.852      141493.291 8    110254.43723
  23437513.930     -172274.842 6   -134239.35121
  20973932.344       -2253.993 7     -1756.22523
  23809573.6724    -288239.13145   -224600.72461
 91  3 29 21 39 15.0000000  0  4G18G11G19G 2
  20599484.547      162181.264 8    126374.91823
  23432911.414     -196461.443 6   -153085.94821
  20973903.242       -2413.903 7
  23801776.539     -329213.384 5   -256528.52021
 91  3 29 21 39 30.0000000  0  4G18G11G19G 2
  20603445.0004     182993.39048    142592.14763
  23428329.3674    -220535.50746   -171844.84861
  20973877.211       -2527.763 7
  23793990.203     -370131.015 5   -288412.18221
 91  3 29 21 39 45.0000000  0  4G18G11G19G 2
  20607428.602      203926.475 8    158903.62423
  23423769.6254    -244499.67446   -190518.11661
  20973866.898       -2598.599 7
  23786213.125     -410994.945 5   -320254.01121
 91  3 29 21 40  0.0000000  0  4G18G11G19G 2
  20611434.828      224980.817 8    175309.58323
  23419230.8134    -268353.26246   -209105.22661
  20973859.422       -2626.022 7
  23778448.906     -451804.601 5   -352053.54521
 91  3 29 21 40 15.0000000  0  4G18G11G19G 2
  20615464.977      246158.057 8    191811.30823
  23414711.375     -292094.407 6   -227604.71421
  20973865.938       -2608.563 7
  23770692.438     -492558.311 5   -383809.51221
 91  3 29 21 40 30.0000000  0  4G18G11G19G 2
  20619518.055      267454.048 8    208405.57123
  23410215.1804    -315726.98146   -246019.59461
  20973873.813       -2550.509 7
  23762946.781     -533260.229 5   -415525.10121
 91  3 29 21 40 45.0000000  0  4G18G11G19G 2
  20623593.008      288869.488 8    225092.90923
  23405739.7814    -339249.87946   -264349.00561
  20973894.922       -2451.027 6
  23755211.9064    -573909.57145   -447199.72161
 91  3 29 21 41  0.0000000  0  4G18G11G19G 2
  20627690.750      310403.074 8    241872.30823
  23401283.3204    -362663.70446   -282593.44961
  20973918.219       -2311.112 7
  23747485.594     -614507.073 5   -478833.93521
 91  3 29 21 41 15.0000000  0  4G18G11G19G 2
  20631810.742      332054.797 8    258743.76623
  23396847.4844    -385968.32546   -300752.77361
  20973956.797       -2130.952 6
  23739770.773     -655052.596 6   -510427.66421
 91  3 29 21 41 30.0000000  0  4G18G11G19G 2
  20635952.375      353825.658 8    275708.05723
  23392434.141     -409162.436 6   -318825.99621
  20973996.891       -1909.577 7     -1487.64923
  23732065.4064    -695545.00946   -541980.00561
 91  3 29 21 41 45.0000000  0  4G18G11G19G 2
  20640119.016      375717.672 8    292766.75623
  23388042.4924    -432243.63546   -336811.26061
  20974047.813       -1645.038 6     -1281.49323
  23724369.7584    -735982.25946   -573489.36661
 91  3 29 21 42  0.0000000  0  4G18G11G19G 2
  20644308.242      397727.454 8    309917.21723
  23383669.6484    -455214.91146   -354710.85661
  20974104.133       -1340.497 7     -1044.17223
  23716685.0784    -776367.42846   -604958.15161
 91  3 29 21 42 15.0000000  0  4G18G11G19G 2
  20648518.484      419853.551 8    327158.31523
  23379319.2424    -478077.26546   -372525.58261
  20974171.414        -997.258 6      -776.69623
  23709007.773     -816701.841 5   -636387.36921
 91  3 29 21 42 30.0000000  0  4G18G11G19G 2
  20652751.508      442098.056 8    344491.68123
  23374990.703     -500828.245 6   -390253.52721
  20974242.320        -613.320 7      -477.51223
  23701345.4064    -856983.06945   -667775.16561
 91  3 29 21 42 45.0000000  0  4G18G11G19G 2
  20657007.359      464463.225 8    361919.06923
  23370683.8594    -523465.29946   -407892.69361
  20974326.664        -186.417 6      -144.84523
  23693689.133     -897208.942 5   -699119.79821
 91  3 29 21 43  0.0000000  0  4G18G11G19G 2
  20661286.789      486948.109 8    379439.74123
  23366396.703     -545989.141 6   -425443.64021
  20974413.953         282.498 7       220.55823
  23686044.8284    -937380.24645   -730421.93361
 91  3 29 21 43 15.0000000  0  4G18G11G19G 2
  20665587.945      509552.214 8    397053.31623
  23362132.4924    -568399.64546   -442906.28061
  20974512.164         793.239 6       618.54923
  23678410.2974    -977497.12945   -761681.66161
 91  3 29 21 43 30.0000000  0  4G18G11G19G 2
  20669911.273      532274.904 8    414759.28423
  23357890.4924    -590697.34046   -460281.00861
  20974616.477        1344.953 7      1048.46923
  23670787.266    -1017560.173 5   -792899.43621
 91  3 29 21 43 45.0000000  0  4G18G11G19G 2
  20674257.844      555115.888 8    432557.43823
  23353668.5004    -612881.57746   -477567.33761
  20974730.813        1937.772 6      1510.41523
  23663172.2424   -1057569.03146   -824074.98261
 91  3 29 21 44  0.0000000  0  4G18G11G19G 2
  20678627.820      578078.098 8    450450.04623
  23349469.1804    -634949.39446   -494762.95561
  20974849.5004       2574.38247      2006.48463
  23655571.414    -1097520.925 6   -855206.16121
 91  3 29 21 44 15.0000000  0  4G18G11G19G 2
  20683020.141      601162.056 8    468437.52323
  23345291.000     -656900.235 6   -511867.42721
  20974980.641        3255.074 6      2536.90523
  23647979.3364   -1137415.30646   -886292.52361
 91  3 29 21 44 30.0000000  0  4G18G11G19G 2
  20687436.406      624368.033 8    486520.07623
  23341137.1954    -678733.39246   -528880.20761
  20975114.8594       3980.22347      3101.96763
  23640397.102    -1177251.817 5   -917333.78721
 91  3 29 21 44 45.0000000  0  4G18G11G19G 2
  20691874.930      647689.859 8    504692.91223
  23337003.2274    -700454.45046   -545805.62261
  20975264.023        4743.724 6      3696.91123
  23632827.8054   -1217036.17446   -948334.41061
 91  3 29 21 45  0.0000000  0  4G18G11G19G 2
  20696335.797      671132.434 8    522959.83723
  23332892.883     -722058.142 6   -562639.58821
  20975414.4384       5550.83546      4325.83963
  23625265.3524   -1256763.31746   -979290.44861
 91  3 29 21 45 15.0000000  0  4G18G11G19G 2
  20700819.656      694696.084 8    541321.10223
  23328803.883     -743543.777 6   -579381.55921
  20975580.469        6401.916 6      4989.02823
  23617716.156    -1296432.745 6  -1010201.52121
 91  3 29 21 45 30.0000000  0  4G18G11G19G 2
  20705326.758      718381.181 8    559777.00523
  23324736.656     -764910.666 6   -596031.00521
  20975747.5394       7297.30147      5686.74163
  23610179.6954   -1336043.90945  -1041067.18661
 91  3 29 21 45 45.0000000  0  4G18G11G19G 2
  20709857.172      742185.483 8    578325.79123
  23320693.688     -786160.565 6   -612589.28921
  20975928.688        8234.798 6      6417.27023
  23602652.9454   -1375598.80846  -1071889.00961
 91  3 29 21 46  0.0000000  0  4G18G11G19G 2
  20714408.906      766109.811 8    596968.10523
  23316672.633     -807292.509 6   -629055.67221
  20976114.891        9215.178 6      7181.21222
  23595136.5004   -1415096.74745  -1102666.44261
 91  3 29 21 46 15.0000000  0  4G18G11G19G 2
  20718984.406      790152.634 8    615702.74923
  23312673.430     -828307.368 6   -645430.81321
  20976308.633       10237.276 6      7977.66323
  23587631.617    -1454538.707 6  -1133400.27521
 91  3 29 21 46 30.0000000  0  4G18G11G19G 2
  20723583.609      814316.807 8    634531.95423
  23308697.5864    -849202.26346   -661712.48261
  20976512.523       11303.619 6      8808.59223
  23580136.7344   -1493921.87546  -1164088.27561
 91  3 29 21 46 45.0000000  0  4G18G11G19G 2
  20728203.781      838602.207 8    653455.62423
  23304744.297     -869976.599 6   -677900.20021
  20976724.164       12414.314 6      9674.08023
  23572653.6954   -1533245.87346  -1194730.18761
 91  3 29 21 47  0.0000000  0  4G18G11G19G 2
  20732848.414      863005.032 8    672470.79423
  23300812.203     -890633.766 6   -693996.61321
  20976941.773       13565.788 6     10571.34623
  23565179.8984   -1572514.52646  -1225328.95661
 91  3 29 21 47 15.0000000  0  4G18G11G19G 2
  20737515.086      887526.979 8    691578.78923
  23296904.7274    -911171.95346   -710000.30861
  20977171.008       14759.641 6     11501.63122
  23557718.4144   -1611726.05045  -1255883.21261
 91  3 29 21 47 30.0000000  0  4G18G11G19G 2
  20742203.391      912167.490 8    710779.16923
  23293018.188     -931591.307 6   -725911.42021
  20977402.211       15995.376 7     12464.55222
  23550267.0784   -1650880.62545  -1286393.08161
 91  3 29 21 47 45.0000000  0  4G18G11G19G 2
  20746915.023      936927.044 8    730072.30823
  23289156.305     -951890.973 6   -741729.26921
  20977648.531       17273.409 6     13460.43922
  23542827.039    -1689977.673 5  -1316858.10621
 91  3 29 21 48  0.0000000  0  4G18G11G19G 2
  20751649.547      961807.708 8    749459.82323
  23285316.945     -972068.478 6   -757451.92521
  20977896.836       18596.027 7     14491.06122
  23535398.6334   -1729014.91746  -1347276.55261
 91  3 29 21 48 15.0000000  0  4G18G11G19G 2
  20756406.938      986806.519 8    768939.40123
  23281499.344     -992126.540 6   -773081.50421
  20978159.789       19960.318 6     15554.16422
  23527980.3444   -1767995.09046  -1377650.53261
 91  3 29 21 48 30.0000000  0  4G18G11G19G 2
  20761186.883     1011926.852 8    788513.67123
  23277705.4534   -1012061.05446   -788614.80861
  20978427.852       21370.001 6     16652.63422
  23520575.7424   -1806914.55246  -1407977.20661
 91  3 29 21 48 45.0000000  0  4G18G11G19G 2
  20765990.836     1037169.277 8    808183.07423
  23273935.109    -1031871.533 6   -804051.46121
  20978705.359       22825.274 6     17786.62922
  23513179.938    -1845772.851 6  -1438256.20721
 91  3 29 21 49  0.0000000  0  4G18G11G19G 2
  20770817.516     1062534.451 8    827948.12823
  23270190.094    -1051556.806 6   -819390.56521
  20978990.461       24326.950 6     18956.78222
  23505798.555    -1884569.055 6  -1468486.82521
 91  3 29 21 49 15.0000000  0  4G18G11G19G 2
  20775667.547     1088019.950 8    847806.94023
  23266466.867    -1071119.004 6   -834633.76321
  20979283.734       25872.653 6     20161.24022
  23498426.9844   -1923305.35746  -1498670.77261
 91  3 29 21 49 30.0000000  0  4G18G11G19G 2
  20780540.016     1113626.642 8    867760.18423
  23262768.328    -1090556.638 6   -849779.88521
  20979582.664       27463.580 7     21400.94122
  23491067.375    -1961980.513 6  -1528807.05321
 91  3 29 21 49 45.0000000  0  4G18G11G19G 2
  20785435.859     1139350.718 8    887804.89723
  23259092.164    -1109873.157 6   -864831.63321
  20979898.516       29095.964 6     22672.94722
  23483718.5554   -2000598.11246  -1558898.50261
 91  3 29 21 50  0.0000000  0  4G18G11G19G 2
  20790353.695     1165198.565 8    907946.05323
  23255440.273    -1129061.766 6   -879783.72121
  20980218.438       30776.309 6     23982.32522
  23476381.1484   -2039151.53646  -1588939.94761
 91  3 29 21 50 15.0000000  0  4G18G11G19G 2
  20795295.508     1191168.081 8    928182.01523
  23251812.906    -1148124.328 6   -894637.59121
  20980547.203       32502.485 6     25327.41222
  23469056.2194   -2077642.62846  -1618932.81961
 91  3 29 21 50 30.0000000  0  4G18G11G19G 2
  20800260.5554    1217257.47548    948511.38663
  23248207.367    -1167062.454 6   -909394.49521
  20980880.289       34272.575 7     26706.72522
  23461742.273    -2116073.399 6  -1648878.68221
 91  3 29 21 50 45.0000000  0  4G18G11G19G 2
  20805246.8134    1243465.94448    968933.53963
  23244629.539    -1185876.484 6   -924054.70621
  20981227.820       36085.992 6     28119.79422
  23454442.2274   -2154444.39246  -1678777.97661
 91  3 29 21 51  0.0000000  0  4G18G11G19G 2
  20810257.0784    1269792.19848    989447.47363
  23241072.797    -1204567.155 6   -938618.78121
  20981578.820       37941.691 7     29565.80922
  23447150.625    -2192756.524 6  -1708631.38521
 91  3 29 21 51 15.0000000  0  4G18G11G19G 2
  20815290.336     1296238.043 8   1010054.59823
  23237538.703    -1223132.474 6   -953085.17621
  20981942.531       39841.396 6     31046.12122
  23439870.6414   -2231007.96246  -1738437.51961
 91  3 29 21 51 30.0000000  0  4G18G11G19G 2
  20820345.352     1322802.754 8   1030754.34823
  23234030.813    -1241572.641 6   -967454.06321
  20982312.766       41784.593 6     32560.31922
  23432603.6804   -2269198.99746  -1768196.59061
 91  3 29 21 51 45.0000000  0  4G18G11G19G 2
  20825422.7274    1349486.22648   1051546.63463
  23230543.609    -1259887.470 6   -981725.28521
  20982690.141       43771.196 6     34108.34322
  23425347.1484   -2307329.64246  -1797908.58261
 91  3 29 21 52  0.0000000  0  4G18G11G19G 2
  20830522.5004    1376289.29348   1072432.11163
  23227084.656    -1278075.512 6   -995897.71221
  20983075.070       45802.308 7     35691.04022
  23418102.9454   -2345398.69346  -1827572.59561
 91  3 29 21 52 15.0000000  0  4G18G11G19G 2
  20835646.023     1403207.229 8   1093407.09923
  23223644.938    -1296141.572 6  -1009975.08121
  20983471.047       47873.140 6     37304.69122
  23410869.2034   -2383411.01346  -1857192.41261
 91  3 29 21 52 30.0000000  0  4G18G11G19G 2
  20840789.219     1430241.336 8   1114472.61623
  23220231.625    -1314083.701 6  -1023955.87421
  20983870.555       49985.237 7     38950.49922
  23403646.992    -2421364.835 6  -1886766.64321
 91  3 29 21 52 45.0000000  0  4G18G11G19G 2
  20845957.164     1457393.476 8   1135630.10023
  23216840.344    -1331899.860 6  -1037838.51221
  20984283.797       52140.372 6     40629.84022
  23396434.7274   -2459258.39246  -1916293.90961
 91  3 29 21 53  0.0000000  0  4G18G11G19G 2
  20851146.6024    1484664.04748   1156879.86463
  23213474.266    -1349589.542 6  -1051622.60121
  20984698.930       54338.685 7     42342.82722
  23389235.617    -2497091.218 6  -1945773.86321
 91  3 29 21 53 15.0000000  0  4G18G11G19G 2
  20856358.039     1512051.371 8   1178220.61323
  23210132.539    -1367153.505 6  -1065308.73521
  20985128.016       56579.108 6     44088.62522
  23382047.508    -2534864.343 6  -1975207.29821
 91  3 29 21 53 30.0000000  0  4G18G11G19G 2
  20861591.109     1539552.628 8   1199650.13923
  23206813.5944   -1384594.14446  -1078898.77261
  20985558.773       58859.027 7     45865.20022
  23374870.9774   -2572580.32246  -2004596.19561
 91  3 29 21 53 45.0000000  0  4G18G11G19G 2
  20866846.945     1567172.510 8   1221172.09723
  23203518.9144   -1401906.67646  -1092388.98461
  20986004.117       61183.097 6     47676.17522
  23367707.0634   -2610234.42746  -2033936.88761
 91  3 29 21 54  0.0000000  0  4G18G11G19G 2
  20872125.367     1594908.816 8   1242784.78423
  23200248.664    -1419092.737 6  -1105780.64821
  20986452.695       63549.312 7     49519.99222
  23360552.242    -2647828.512 6  -2063230.81421
 91  3 29 21 54 15.0000000  0  4G18G11G19G 2
  20877426.0084    1622764.98848   1264490.86563
  23197003.2424   -1436149.02446  -1119071.19361
  20986913.7504      65960.71946     51399.01862
  23353411.164    -2685359.344 6  -2092475.45921
 91  3 29 21 54 30.0000000  0  4G18G11G19G 2
  20882749.813     1650738.573 8   1286288.43123
  23193781.695    -1453076.867 6  -1132261.64321
  20987378.742       68415.641 7     53311.95722
  23346278.578    -2722828.680 6  -2121672.18321
 91  3 29 21 54 45.0000000  0  4G18G11G19G 2
  20888095.4454    1678833.12048   1308180.26063
  23190584.133    -1469872.784 6  -1145349.29321
  20987856.266       70917.466 6     55261.44422
  23339160.750    -2760232.912 6  -2150818.17721
 91  3 29 21 55  0.0000000  0  4G18G11G19G 2
  20893464.8984    1707048.16148   1330165.97963
  23187414.7814   -1486536.95146  -1158334.29161
  20988338.5864      73465.66847     57247.06762
  23332057.039    -2797572.292 6  -2179913.63821
 91  3 29 21 55 15.0000000  0  4G18G11G19G 2
  20898856.2504    1735384.53848   1352246.24063
  23184269.969    -1503068.239 6  -1171215.74121
  20988835.1954      76061.17947     59269.55262
  23324963.438    -2834846.059 6  -2208957.97321
 91  3 29 21 55 30.0000000  0  4G18G11G19G 2
  20904271.2664    1763838.52248   1374418.14363
  23181147.1954   -1519469.76146  -1183996.07261
  20989335.992       78700.577 7     61326.23722
  23317880.289    -2872057.468 6  -2237953.71621
 91  3 29 21 55 45.0000000  0  4G18G11G19G 2
  20909709.6564    1792414.16448   1396684.84963
  23178050.9224   -1535737.28546  -1196672.00461
  20989848.3754      81387.88346     63420.25062
  23310811.0864   -2909202.41146  -2266897.66861
 91  3 29 21 56  0.0000000  0  4G18G11G19G 2
  20915169.5474    1821110.59048   1419045.67163
  23174981.969    -1551871.347 6  -1209243.92721
  20990366.0784      84122.43847     65551.07462
  23303756.1174   -2946281.51746  -2295790.32661
 91  3 29 21 56 15.0000000  0  4G18G11G19G 2
  20920652.8284    1849923.90448   1441497.57563
  23171936.8284   -1567875.14146  -1221714.35161
  20990898.0164      86900.61846     67715.90362
  23296713.6484   -2983298.30546  -2324634.42061
 91  3 29 21 56 30.0000000  0  4G18G11G19G 2
  20926159.781     1878856.033 8   1464042.06123
  23168915.7504   -1583746.75046  -1234081.77061
  20991431.570       89724.204 7     69916.11322
  23289679.8444   -3020250.80446  -2353428.41861
 91  3 29 21 56 45.0000000  0  4G18G11G19G 2
  20931687.5234    1907905.87648   1486678.27563
  23165920.242    -1599486.913 6  -1246346.77021
  20991982.0554      92592.16546     72150.89362
  23282660.4774   -3057140.11346  -2382173.19161
 91  3 29 21 57  0.0000000  0  4G18G11G19G 2
  20937236.8674    1937072.77848   1509405.69963
  23162950.1884   -1615095.78446  -1258509.46861
  20992532.391       95503.992 7     74419.86022
  23275652.6884   -3093966.59146  -2410868.99961
 91  3 29 21 57 15.0000000  0  4G18G11G19G 2
  20942809.4844    1966353.66248   1532221.93463
  23160004.8754   -1630575.82946  -1270571.76961
  20993096.656       98456.986 6     76720.90822
  23268657.8444   -3130732.53546  -2439517.64861
 91  3 29 21 57 30.0000000  0  4G18G11G19G 2
  20948404.2114    1995751.85548   1555129.57963
  23157083.3984   -1645923.55246  -1282530.97761
  20993665.188      101454.460 7     79056.61422
  23261671.813    -3167434.874 6  -2468116.73221
 91  3 29 21 57 45.0000000  0  4G18G11G19G 2
  20954021.0234    2025270.07748   1578130.76363
  23154189.336    -1661135.875 6  -1294384.66121
  20994246.5474     104499.23246     81429.17162
  23254699.117    -3204070.547 6  -2496663.86821
 91  3 29 21 58  0.0000000  0  4G18G11G19G 2
  20959659.7894    2054906.97048   1601224.41463
  23151319.7194   -1676213.98746  -1306133.77261
  20994832.672      107589.884 7     83837.48922
  23247742.250    -3240640.990 6  -2525160.17821
 91  3 29 21 58 15.0000000  0  4G18G11G19G 2
  20965322.5634    2084660.10148   1624408.63663
  23148475.4144   -1691159.78446  -1317779.78861
  20995431.633      110724.407 6     86279.99122
  23240793.828    -3277148.169 6  -2553607.18921
 91  3 29 21 58 30.0000000  0  4G18G11G19G 2
  20971006.7274    2114528.55448   1647682.72363
  23145655.2274   -1705973.70346  -1329323.04261
  20996036.9534     113901.97446     88756.02362
  23233858.758    -3313592.806 6  -2582005.47221
 91  3 29 21 58 45.0000000  0  4G18G11G19G 2
  20976711.9774    2144511.53748   1671046.05263
  23142863.047    -1720656.239 6  -1340763.92221
  20996648.609      117122.000 6     91265.15222
  23226935.586    -3349975.463 6  -2610355.45521
 91  3 29 21 59  0.0000000  0  4G18G11G19G 2
  20982439.1954    2174608.83648   1694498.46463
  23140092.7034   -1735207.31446  -1352102.36261
  20997270.0944     120384.36546     93807.26362
  23220022.563    -3386295.959 6  -2638657.00321
 91  3 29 21 59 15.0000000  0  4G18G11G19G 2
  20988188.8834    2204823.72748   1718042.49963
  23137351.070    -1749623.174 6  -1363335.44221
  20997899.055      123692.528 6     96385.06722
  23213124.688    -3422550.988 6  -2666907.55121
 91  3 29 21 59 30.0000000  0  4G18G11G19G 2
  20993960.1414    2235154.78948   1741677.05763
  23134632.3524   -1763905.05146  -1374464.12661
  20998537.188      127045.044 6     98997.43123
  23206236.445    -3458741.797 6  -2695108.04521
 91  3 29 21 59 45.0000000  0  4G18G11G19G 2
  20999754.3834    2265600.31748   1765400.80863
  23131939.8754   -1778054.03646  -1385489.24861
  20999182.281      130440.472 6    101643.22822
  23199362.047    -3494869.621 6  -2723259.47221
 91  3 29 22  0  0.0000000  0  4G18G11G19G 2
  21005570.0864    2296161.93348   1789215.01763
  23129273.0394   -1792068.44146  -1396409.50661
  20999835.1024     133880.27547    104323.60662
  23192500.5554   -3530932.97346  -2751360.65361
 91  3 29 22  0 15.0000000  0  4G18G11G19G 2
  21011407.5004    2326838.57848   1813118.85963
  23126632.7194   -1805948.92146  -1407225.40161
  21000499.328      137363.742 6    107038.00623
  23185648.6174   -3566932.54746  -2779412.13961
 91  3 29 22  0 30.0000000  0  4G18G11G19G 2
  21017266.6094    2357629.21348   1837111.52163
  23124015.7894   -1819696.08646  -1417937.42261
  21001168.5554     140889.97147    109785.72663
  23178810.4064   -3602869.16146  -2807414.56861
 91  3 29 22  0 45.0000000  0  4G18G11G19G 2
  21023147.4224    2388533.39448   1861192.66163
  23121425.1334   -1833309.93546  -1428545.56061
  21001848.2664     144458.78746    112566.63062
  23171982.742    -3638742.874 6  -2835367.98121
 91  3 29 22  1  0.0000000  0  4G18G11G19G 2
  21029050.547     2419553.520 8   1885364.15023
  23118860.2194   -1846787.80646  -1439047.73461
  21002538.5234     148072.63446    115382.61762
  23165169.148    -3674551.171 6  -2863270.42621
 91  3 29 22  1 15.0000000  0  4G18G11G19G 2
  21034975.1094    2450687.01348   1909623.97663
  23116321.836    -1860131.860 6  -1449445.64621
  21003231.7974     151729.09146    118231.81462
  23158367.445    -3710296.620 6  -2891123.89221
 91  3 29 22  1 30.0000000  0  4G18G11G19G 2
  21040920.5164    2481932.85647   1933971.34863
  23113805.8524   -1873342.92746  -1459739.92861
  21003938.7274     155427.23346    121113.49062
  23151577.195    -3745979.974 6  -2918928.97321
 91  3 29 22  1 45.0000000  0  4G18G11G19G 2
  21046888.1724    2513292.95747   1958407.74863
  23111318.9304   -1886418.51546  -1469928.62861
  21004648.4924     159169.15547    124029.27962
  23144798.2114   -3781598.81346  -2946683.78661
 91  3 29 22  2  0.0000000  0  4G18G11G19G 2
  21052877.0004    2544763.91647   1982930.53463
  23108855.4844   -1899361.68646  -1480014.16161
  21005365.9224     162951.51947    126976.57863
  23138032.125    -3817156.568 6  -2974390.99721
 91  3 29 22  2 15.0000000  0  4G18G11G19G 2
  21058886.9224    2576345.89647   2007539.83563
  23106417.422    -1912171.946 6  -1489996.12821
  21006095.8674     166774.67047    129955.66062
  23131277.9304   -3852652.81046  -3002050.28061
 91  3 29 22  2 30.0000000  0  4G18G11G19G 2
  21064917.9534    2608040.85447   2032237.16663
  23104005.7734   -1924847.00846  -1499872.73861
  21006833.8914     170640.91346    132968.31962
  23124534.8594   -3888085.31846  -3029659.90361
 91  3 29 22  2 45.0000000  0  4G18G11G19G 2
  21070971.5394    2639850.32447   2057023.72763
  23101620.3674   -1937385.32646  -1509642.80261
  21007575.0004     174551.58946    136015.60262
  23117804.3134   -3923452.58846  -3057218.69661
 91  3 29 22  3  0.0000000  0  4G18G11G19G 2
  21077046.0084    2671771.11847   2081897.03063
  23099259.625    -1949789.354 6  -1519308.22721
  21008326.5864     178503.79247    139095.24562
  23111086.4064   -3958757.34746  -3084728.77561
 91  3 29 22  3 15.0000000  0  4G18G11G19G 2
  21083141.891     2703802.876 7   2106856.79823
  23096924.555    -1962059.059 6  -1528868.98521
  21009088.0474     182497.32546    142207.09463
  23104380.5634   -3993999.71846  -3112190.24061
 91  3 29 22  3 30.0000000  0  4G18G11G19G 2
  21089257.945     2735946.707 7   2131903.89223
  23094616.461    -1974193.086 6  -1538324.01221
  21009855.1884     186533.48646    145352.15862
  23097686.5234   -4029178.48746  -3139602.14261
 91  3 29 22  3 45.0000000  0  4G18G11G19G 2
  21095397.0864    2768203.29147   2157038.84963
  23092332.516    -1986190.338 6  -1547672.47421
  21010631.2344     190613.21046    148531.16462
  23091003.5864   -4064292.47746  -3166963.57161
 91  3 29 22  4  0.0000000  0  4G18G11G19G 2
  21101556.3134    2800572.97447   2182261.94463
  23090075.680    -1998050.121 6  -1556913.81621
  21011418.7814     194737.06246    151744.55962
  23084333.5784   -4099341.22046  -3194274.16261
 91  3 29 22  4 15.0000000  0  4G18G11G19G 2
  21107737.625     2833053.440 7   2207571.35723
  23087844.516    -2009774.330 6  -1566049.51621
  21012210.2424     198903.00246    154990.75163
  23077676.2344   -4134326.86246  -3221535.58261
 91  3 29 22  4 30.0000000  0  4G18G11G19G 2
  21113940.688     2865651.600 7   2232972.47323
  23085638.953    -2021355.959 6  -1575074.11521
  21013011.8754     203117.59646    158274.85062
  23071031.7274   -4169242.40746  -3248742.38061
 91  3 29 22  4 45.0000000  0  4G18G11G19G 2
  21120165.328     2898362.385 8   2258461.35123
  23083463.250    -2032799.631 6  -1583991.21021
  21013823.0944     207376.25246    161593.29062
  23064398.8284   -4204092.67746  -3275898.31861
 91  3 29 22  5  0.0000000  0  4G18G11G19G 2
  21126411.453     2931183.897 8   2284036.50623
  23081310.594    -2044106.844 6  -1592801.98521
  21014640.3054     211677.24046    164944.71062
  23057779.8674   -4238879.26446  -3303004.63361
 91  3 29 22  5 15.0000000  0  4G18G11G19G 2
  21132678.047     2964115.463 8   2309697.41723
  23079185.094    -2055277.882 6  -1601506.64721
  21015467.7504     216020.03846    168328.71162
  23051172.3984   -4273602.48246  -3330061.56761
 91  3 29 22  5 30.0000000  0  4G18G11G19G 2
  21138965.836     2997158.659 8   2335445.31723
  23077085.688    -2066311.114 6  -1610103.93021
  21016300.6254     220406.21346    171746.51362
  23044577.3204   -4308260.70946  -3357067.85661
 91  3 29 22  5 45.0000000  0  4G18G11G19G 2
  21145275.031     3030313.533 8   2361280.24323
  23075012.219    -2077206.027 6  -1618593.42821
  21017144.2974     224835.91646    175198.23662
  23037995.086    -4342853.694 6  -3384023.32021
 91  3 29 22  6  0.0000000  0  4G18G11G19G 2
  21151605.5394    3063580.48348   2387202.50263
  23072965.805    -2087961.476 6  -1626974.25621
  21017994.3674     229310.17346    178684.67562
  23031422.922    -4377380.574 6  -3410927.27221
 91  3 29 22  6 15.0000000  0  4G18G11G19G 2
  21157957.3364    3096959.32348   2413211.95163
  23070945.9614   -2098577.79646  -1635246.67361
  21018856.0554     233828.49646    182205.44862
  23024866.4774   -4411841.64046  -3437779.93561
 91  3 29 22  6 30.0000000  0  4G18G11G19G 2
  21164331.1564    3130451.84148   2439309.97663
  23068952.7734   -2109052.50546  -1643408.74861
  21019723.2034     238393.17746    185762.34862
  23018321.6564   -4446234.62346  -3464579.54761
 91  3 29 22  6 45.0000000  0  4G18G11G19G 2
  21170726.8444    3164059.07448   2465497.39463
  23066986.000    -2119384.329 6  -1651459.47821
  21020601.3204     243005.32346    189356.23062
  23011789.367    -4480558.399 6  -3491325.22721
 91  3 29 22  7  0.0000000  0  4G18G11G19G 2
  21177143.734     3197778.355 8   2491772.13323
  23065047.2974   -2129575.75846  -1659400.78761
  21021487.0474     247662.24346    192985.02062
  23005270.563    -4514815.439 6  -3518018.90121
 91  3 29 22  7 15.0000000  0  4G18G11G19G 2
  21183580.164     3231605.041 8   2518130.54623
  23063134.1094   -2139630.75246  -1667235.81261
  21022381.5394     252359.73746    196645.41462
  22998764.063    -4549009.787 6  -3544663.73121
 91  3 29 22  7 30.0000000  0  4G18G11G19G 2
  21190038.125     3265541.957 8   2544574.84723
  23061245.5084   -2149546.39746  -1674962.25261
  21023282.1884     257100.81646    200339.75962
  22992269.906    -4583138.510 6  -3571257.43621
 91  3 29 22  7 45.0000000  0  4G18G11G19G 2
  21196517.250     3299588.730 8   2571104.75123
  23059385.938    -2159322.789 6  -1682580.17321
  21024194.6174     261885.08346    204067.77062
  22985787.133    -4617202.097 6  -3597800.37821
 91  3 29 22  8  0.0000000  0  4G18G11G19G 2
  21203017.719     3333749.151 8   2597723.21923
  23057552.461    -2168955.525 6  -1690086.15621
  21025114.5944     266716.74446    207832.70762
  22979317.313    -4651196.278 6  -3624289.24021
 91  3 29 22  8 15.0000000  0  4G18G11G19G 2
  21209539.836     3368021.315 8   2624428.75823
  23055747.9924   -2178446.16846  -1697481.42461
  21026042.1334     271594.00246    211633.17162
  22972862.188    -4685122.768 6  -3650725.35121
 91  3 29 22  8 30.0000000  0  4G18G11G19G 2
  21216081.367     3402401.637 8   2651218.57823
  23053967.453    -2187798.087 6  -1704768.59521
  21026977.0864     276513.51546    215466.56662
  22966417.4224   -4718984.86646  -3677111.28661
 91  3 29 22  8 45.0000000  0  4G18G11G19G 2
  21222645.4844    3436893.52148   2678095.33263
  23052215.6094   -2197007.40146  -1711944.64261
  21027923.7114     281478.95746    219335.74662
  22959988.211    -4752778.674 6  -3703444.01621
 91  3 29 22  9  0.0000000  0  4G18G11G19G 2
  21229230.117     3471495.936 8   2705058.21323
  23050489.2974   -2206074.96446  -1719010.24361
  21028876.5864     286489.22046    223239.85062
  22953569.5704   -4786505.49846  -3729724.53761
 91  3 29 22  9 15.0000000  0  4G18G11G19G 2
  21235834.750     3506206.323 8   2732105.21623
  23048790.3204   -2215002.96146  -1725967.08461
  21029838.9454     291542.04046    227177.12062
  22947163.2114   -4820167.53846  -3755954.58561
 91  3 29 22  9 30.0000000  0  4G18G11G19G 2
  21242461.086     3541024.011 7   2759235.82723
  23047117.9144   -2223791.37746  -1732815.16761
  21030807.1564     296637.16746    231147.35262
  22940769.727    -4853764.841 6  -3782134.18921
 91  3 29 22  9 45.0000000  0  4G18G11G19G 2
  21249106.859     3575950.791 7   2786451.44623
  23045472.305    -2232438.536 6  -1739553.17421
  21031786.516      301776.186 6    235151.79522
  22934389.3364   -4887295.89846  -3808262.16661
 91  3 29 22 10  0.0000000  0  4G18G11G19G 2
  21255773.922     3610986.616 7   2813752.03923
  23043853.984    -2240944.022 6  -1746180.78521
  21032770.4064     306959.44046    239190.69862
  22928020.969    -4920760.334 6  -3834338.23921
 91  3 29 22 10 15.0000000  0  4G18G11G19G 2
  21262463.406     3646139.831 7   2841144.11123
  23042263.5164   -2249299.14446  -1752691.24161
  21033768.148      312195.197 6    243270.51622
  22921667.0474   -4954149.63146  -3860355.75761
 91  3 29 22 10 30.0000000  0  5G18G16G11G19G 2
  21269174.078     3681404.091 7   2868622.70823
  24374790.4304         -0.76654
  23040701.9454   -2257509.87546  -1759089.18461
  21034772.3674     317477.48046    247386.59462
  22915328.2344   -4987469.83146  -3886319.43361
 91  3 29 22 10 45.0000000  0  5G18G16G11G19G 2
  21275906.234     3716778.525 7   2896187.15223
  24372290.8134     -13145.36244
  23039166.3134   -2265576.69146  -1765374.97361
  21035787.4534     322805.83646    251538.56463
  22909000.367    -5020721.454 6  -3912229.67421
 91  3 29 22 11  0.0000000  0  5G18G16G11G19G 2
  21282656.883     3752260.997 7   2923835.78723
  24369811.3204     -26161.70344
  23037658.8054   -2273501.62646  -1771550.20561
  21036812.414      328178.135 6    255724.78222
  22902683.6724   -5053906.58346  -3938088.09561
 91  3 29 22 11 15.0000000  0  5G18G16G11G19G 2
  21289430.836     3787851.955 7   2951568.94923
  24367361.0554     -39048.91844
  23036177.3834   -2281283.84146  -1777614.23361
  21037840.6024     333594.89646    259945.64563
  22896381.2664   -5087024.40646  -3963894.07061
 91  3 29 22 11 30.0000000  0  5G18G16G11G19G 2
  21296225.055     3823554.467 7   2979389.04723
  24364935.234      -51803.685 4
  23034723.9144   -2288919.75446  -1783564.26061
  21038881.9064     339059.56846    264203.83562
  22890092.2584   -5120071.35346  -3989644.81061
 91  3 29 22 11 45.0000000  0  5G18G16G11G19G 2
  21303039.859     3859367.194 7   3007295.01923
  24362532.9064     -64426.98344
  23033299.0084   -2296410.17946  -1789400.92061
  21039929.8204     344571.19346    268498.61563
  22883817.1334   -5153048.62746  -4015341.25861
 91  3 29 22 12  0.0000000  0  5G18G16G11G19G 2
  21309875.742     3895290.588 7   3035287.22023
  24360156.1414     -76918.40244        -0.48171
  23031900.9844   -2303754.54446  -1795123.77261
  21040988.7734     350130.37946    272830.45263
  22877555.0944   -5185955.78646  -4040983.08661
 91  3 29 22 12 15.0000000  0  5G18G16G11G19G 2
  21316734.117     3931329.924 7   3063369.76523
  24357804.313      -89272.459 4     -9626.98121
  23030531.8914   -2310947.27446  -1800728.45861
  21042055.2504     355742.47746    277203.52163
  22871307.9144   -5218787.26046  -4066565.92761
 91  3 29 22 12 30.0000000  0  5G18G16G11G19G 2
  21323613.500     3967478.125 7   3091537.13923
  24355476.648     -101496.285 4    -19151.98521
  23029191.3204   -2317995.56146  -1806220.59761
  21043129.7734     361400.21146    281612.14862
  22865073.7974   -5251550.31246  -4092095.45561
 91  3 29 22 12 45.0000000  0  5G18G16G11G19G 2
  21330513.156     4003740.413 7   3119793.41023
  24353176.523     -113584.164 4    -28571.10621
  23027878.5474   -2324893.42846  -1811595.51861
  21044218.0944     367109.54046    286060.97463
  22858852.5554   -5284238.91246  -4117566.96661
 91  3 29 22 13  0.0000000  0  5G18G16G11G19G 2
  21337436.000     4040120.332 7   3148141.34623
  24350903.1024    -125531.92244    -37881.00361
  23026595.1954   -2331636.69146  -1816849.97861
  21045314.3594     372874.25246    290552.96463
  22852647.5164   -5316849.27546  -4142977.51961
 91  3 29 22 13 15.0000000  0  5G18G16G11G19G 2
  21344380.445     4076615.719 7   3176579.25923
  24348654.1724    -137341.95945    -47083.58961
  23025341.297    -2338227.503 6  -1821985.63721
  21046422.2114     378692.00346    295086.27763
  22846456.2114   -5349383.54546  -4168328.78461
 91  3 29 22 13 30.0000000  0  5G18G16G11G19G 2
  21351347.031     4113223.259 7   3205104.56623
  24346435.656     -149017.064 5    -56181.02621
  23024115.4304   -2344668.79446  -1827004.79561
  21047541.8754     384559.87146    299658.64263
  22840278.3204   -5381844.77746  -4193623.12361
 91  3 29 22 13 45.0000000  0  5G18G16G11G19G 2
  21358336.273     4149948.913 7   3233721.90923
  24344237.945     -160551.075 5    -65168.54621
  23022919.1094   -2350954.27746  -1831902.53961
  21048666.1094     390484.08846    304274.92063
  22834116.2194   -5414226.75446  -4218855.71361
 91  3 29 22 14  0.0000000  0  5G18G16G11G19G 2
  21365345.836     4186786.606 7   3262426.55323
  24342071.328     -171950.082 5    -74050.85121
  23021752.0634   -2357089.78346  -1836683.42361
  21049805.4534     396458.60346    308930.38963
  22827967.6644   -5446535.37246  -4244031.12861
 91  3 29 22 14 15.0000000  0  5G18G16G11G19G 2
  21372378.750     4223743.929 7   3291224.42023
  24339928.2194    -183206.06045    -82821.70961
  23020614.4384   -2363067.35246  -1841341.23661
  21050952.0634     402491.58346    313631.41863
  22821835.5554   -5478762.56346  -4269143.10061
 91  3 29 22 14 30.0000000  0  5G18G16G11G19G 2
  21379434.438     4260820.635 7   3320115.30323
  24337814.7814    -194318.85245    -91480.98961
  23019506.5704   -2368886.74446  -1845875.79161
  21052107.7504     408582.93546    318377.92863
  22815718.4064   -5510908.47246  -4294191.73961
 91  3 29 22 14 45.0000000  0  5G18G16G11G19G 2
  21386512.6954    4298014.74747   3349097.67063
  24335726.563     -205290.466 5   -100030.27721
  23018429.1484   -2374549.82346  -1850288.54361
  21053279.9694     414730.62046    323168.33263
  22809615.7894   -5542974.87146  -4319178.41761
 91  3 29 22 15  0.0000000  0  5G18G16G11G19G 2
  21393613.227     4335329.604 7   3378174.12923
  24333665.7974    -216117.26445   -108466.70261
  23017382.4224   -2380052.59546  -1854576.38761
  21054462.3444     420938.45246    328005.61063
  22803529.2734   -5574957.93446  -4344100.16361
 91  3 29 22 15 15.0000000  0  5G18G16G11G19G 2
  21400736.703     4372766.974 7   3407346.05223
  24331634.875     -226797.382 5   -116788.85521
  23016365.1724   -2385393.33946  -1858737.97661
  21055655.1414     427208.13646    332891.08163
  22797459.9144   -5606855.94846  -4368955.63661
 91  3 29 22 15 30.0000000  0  5G18G16G11G19G 2
  21407884.563     4410328.670 7   3436614.85623
  24329628.930     -237328.538 5   -124994.92621
  23015381.5394   -2390569.72346  -1862771.48961
  21056858.4304     433541.90447    337826.48163
  22791406.6334   -5638666.55746  -4393742.99961
 91  3 29 22 15 45.0000000  0  5G18G16G11G19G 2
  21415056.531     4448014.606 7   3465980.47123
  24327655.5864    -247710.79145   -133084.94661
  23014425.5554   -2395581.81746  -1866676.98561
  21058076.8984     439939.81546    342811.87463
  22785368.6804   -5670390.01346  -4418462.45061
 91  3 29 22 16  0.0000000  0  5G18G16G11G19G 2
  21422251.734     4485824.161 7   3495442.41123
  24325706.0944    -257944.32245   -141059.11861
  23013504.1954   -2400429.70446  -1870454.53261
  21059306.2274     446401.55946    347847.00063
  22779348.7344   -5702026.54046  -4443114.16761
 91  3 29 22 16 15.0000000  0  5G18G16G11G19G 2
  21429470.320     4523763.584 7   3525005.55223
  24323789.141     -268022.812 5   -148912.46421
  23012614.2424   -2405106.77846  -1874098.97061
  21060550.5784     452933.52246    352936.84362
  22773346.9924   -5733569.64146  -4467693.09161
 91  3 29 22 16 30.0000000  0  5G18G16G11G19G 2
  21436714.594     4561829.671 7   3554667.37623
  24321898.8524    -277949.01345   -156647.12961
  23011755.8914   -2409615.81946  -1877612.47861
  21061807.0004     459532.86646    358079.19262
  22767361.8594   -5765022.12346  -4492201.39161
 91  3 29 22 16 45.0000000  0  5G18G16G11G19G 2
  21443982.516     4600026.235 7   3584430.88123
  24320040.0944    -287719.20245   -164260.23461
  23010931.5474   -2413952.95146  -1880992.03861
  21063075.8204     466203.38046    363277.00163
  22761393.5084   -5796380.14346  -4516636.08561
 91  3 29 22 17  0.0000000  0  5G18G16G11G19G 2
  21451277.242     4638354.689 7   3614297.15723
  24318210.4694    -297331.76545   -171750.51461
  23010138.2114   -2418116.16946  -1884236.07161
  21064357.7894     472946.80146    368531.61763
  22755443.5474   -5827641.86546  -4540995.75361
 91  3 29 22 17 15.0000000  0  5G18G16G11G19G 2
  21458596.000     4676815.758 7   3644266.76723
  24316412.023     -306785.642 5   -179117.15221
  23009379.8364   -2422104.56246  -1887343.87761
  21065656.5234     479763.93946    373843.67763
  22749513.7894   -5858806.39746  -4565279.68061
 91  3 29 22 17 30.0000000  0  5G18G16G11G19G 2
  21465940.5394    4715411.55747   3674341.35963
  24314643.719     -316078.333 5   -186358.17721
  23008654.4454   -2425915.70946  -1890313.56861
  21066967.5004     486657.24246    379215.08763
  22743601.9384   -5889871.35146  -4589486.01361
 91  3 29 22 17 45.0000000  0  5G18G16G11G19G 2
  21473310.461     4754142.416 7   3704521.19323
  24312904.6564    -325208.99145   -193472.95461
  23007961.9534   -2429548.83246  -1893144.54361
  21068293.1094     493627.47646    384646.44163
  22737710.4774   -5920836.13846  -4613614.29861
 91  3 29 22 18  0.0000000  0  5G18G16G11G19G 2
  21480706.664     4793009.662 7   3734807.30623
  24311200.1094    -334176.48345   -200460.57161
  23007304.6884   -2433002.30646  -1895835.52261
  21069633.7504     500675.93547    390138.75263
  22731836.414    -5951699.209 6  -4637663.33121
 91  3 29 22 18 15.0000000  0  5G18G16G11G19G 2
  21488129.055     4832013.823 7   3765200.10223
  24309522.0944    -342979.96345   -207320.40561
  23006682.7664   -2436275.26846  -1898385.84761
  21070991.9304     507803.79847    395692.93463
  22725981.9774   -5982459.79846  -4661632.50261
 91  3 29 22 18 30.0000000  0  5G18G16G11G19G 2
  21495577.539     4871155.350 7   3795699.94123
  24307882.281     -351618.868 5   -214051.97721
  23006093.7194   -2439367.26246  -1900795.15961
  21072361.4774     515011.28947    401309.16562
  22720148.352    -6013117.369 6  -4685521.40921
 91  3 29 22 18 45.0000000  0  5G18G16G11G19G 2
  21503051.406     4910433.435 7   3826306.18723
  24306266.2504    -360093.52045   -220655.57261
  23005540.1024   -2442278.36546  -1903063.52461
  21073750.0944     522298.34647    406987.39562
  22714333.8594   -6043672.02946  -4709330.11661
 91  3 29 22 19  0.0000000  0  5G18G16G11G19G 2
  21510551.047     4949844.704 7   3857016.21023
  24304684.4614    -368407.69945   -227134.11761
  23005020.3284   -2445012.11746  -1905193.69461
  21075150.4384     529661.32347    412724.78262
  22708538.4534   -6074127.35146  -4733061.41561
 91  3 29 22 19 15.0000000  0  5G18G16G11G19G 2
  21518075.078     4989381.234 7   3887823.84623
  24303131.5784    -376568.96345   -233493.52461
  23004531.8444   -2447575.93846  -1907191.44361
  21076565.0234     537092.69646    418515.46763
  22702761.234    -6104490.935 6  -4756721.24221
 91  3 29 22 19 30.0000000  0  5G18G16G11G19G 2
  21525623.438     5029045.563 7   3918731.05622
  24301609.375     -384574.237 5   -239731.37821
  23004077.1884   -2449966.98246  -1909054.56361
  21077991.8364     544595.04447    424361.46363
  22697000.313    -6134760.083 6  -4780307.48321
 91  3 29 22 19 45.0000000  0  5G18G16G11G19G 2
  21533195.0004    5068834.60647   3949735.44963
  24300114.016     -392426.485 5   -245849.99021
  23003655.1954   -2452187.85846  -1910785.08861
  21079433.0314     552165.77746    430260.73662
  22691258.125    -6164937.413 6  -4803822.17121
 91  3 29 22 20  0.0000000  0  5G18G16G11G19G 2
  21540789.383     5108744.534 7   3980834.04022
  24298650.0084    -400129.17845   -251852.08761
  23003263.5864   -2454242.24146  -1912385.87561
  21080885.1024     559801.27946    436210.48163
  22685531.578    -6195026.608 6  -4827268.18621
 91  3 29 22 20 15.0000000  0  6G18G16G11G 6G19G 2
  21548407.984     5148774.640 7   4012026.27623
  24297211.211     -407682.963 5   -257738.13121
  23002903.0944   -2456130.56846  -1913857.26961
  24548140.4614         -0.72154
  21082351.6334     567500.94246    442210.22562
  22679823.445    -6225028.152 6  -4850645.90421
 91  3 29 22 20 30.0000000  0  6G18G16G11G 6G19G 2
  21556046.875     5188919.257 7   4043307.73723
  24295801.711     -415092.896 5   -263512.08221
  23002574.9534   -2457857.81246  -1915203.14261
  24543011.7034     -26943.27744
  21083827.0314     575259.75146    448256.05063
  22674128.461    -6254947.073 6  -4873959.24121
 91  3 29 22 20 45.0000000  0  6G18G16G11G 6G19G 2
  21563706.3524    5229171.88447   4074673.36863
  24294420.125     -422365.434 5   -269178.96821
  23002276.977    -2459430.425 6  -1916428.53221
  24537884.6174     -53875.15144
  21085313.6484     583071.15646    454342.86363
  22668450.484    -6284789.970 6  -4897213.34421
 91  3 29 22 21  0.0000000  0  6G18G16G11G 6G19G 2
  21571386.9064    5269533.12647   4106123.62763
  24293059.602     -429499.639 5   -274738.08221
  23002007.0634   -2460847.37946  -1917532.62661
  24532762.6644     -80795.43744
  21086810.0004     590936.09146    460471.38762
  22662785.961    -6314555.919 6  -4920407.48921
 91  3 29 22 21 15.0000000  0  6G18G16G11G 6G19G 2
  21579086.4924    5309997.10147   4137653.94063
  24291727.688     -436501.484 5   -280194.03521
  23001766.313    -2462114.362 6  -1918519.86021
  24527638.141     -107710.102 4
  21088316.6724     598848.82546    466637.15763
  22657136.070    -6344250.525 6  -4943546.04321
 91  3 29 22 21 30.0000000  0  6G18G16G11G 6G19G 2
  21586806.172     5350560.620 7   4169261.82123
  24290419.328     -443373.964 5   -285549.19821
  23001552.7814   -2463234.43146  -1919392.61661
  24522514.3754    -134622.13643
  21089829.8984     606806.33646    472837.81562
  22651497.797    -6373877.084 6  -4966631.56821
 91  3 29 22 21 45.0000000  0  6G18G16G11G 6G19G 2
  21594544.1644    5391223.14047   4200946.84463
  24289136.984     -450117.214 5   -290803.66621
  23001367.727    -2464207.620 6  -1920150.91821
  24517396.766     -161531.896 4        -0.07031
  21091353.6414     614808.24646    479073.07562
  22645871.9694   -6403435.54846  -4989664.04461
 91  3 29 22 22  0.0000000  0  6G18G16G11G 6G19G 2
  21602299.9844    5431980.41347   4232705.69963
  24287876.063     -456735.424 5   -295960.68421
  23001209.523    -2465038.149 6  -1920798.06721
  24512276.922     -188443.689 4    -20970.20121
  21092883.1174     622850.72646    485339.94162
  22640260.336    -6432929.995 6  -5012646.62222
 91  3 29 22 22 15.0000000  0  6G18G16G11G 6G19G 2
  21610073.414     5472830.003 7   4264536.49323
  24286640.2274    -463230.58245   -301021.83261
  23001077.9924   -2465727.74046  -1921335.38561
  24507152.813     -215359.535 4    -41943.40721
  21094422.0474     630931.78446    491636.87162
  22634659.047    -6462362.273 6  -5035580.76622
 91  3 29 22 22 30.0000000  0  6G18G16G11G 6G19G 2
  21617864.5864    5513774.36947   4296441.13463
  24285429.531     -469600.181 5   -305985.14621
  23000973.125    -2466273.878 6  -1921760.92421
  24502031.0004    -242277.04643    -62917.94161
  21095966.2814     639053.96146    497965.84362
  22629070.9534   -6491730.07346  -5058464.66662
 91  3 29 22 22 45.0000000  0  6G18G16G11G 6G19G 2
  21625674.3524    5554813.44347   4328419.57263
  24284240.656     -475844.000 5   -310850.43921
  23000896.484    -2466676.360 6  -1922074.52821
  24496908.430     -269196.071 4    -83893.64821
  21097520.3754     647217.51746    504327.05562
  22623495.4304   -6521033.14046  -5081298.12762
 91  3 29 22 23  0.0000000  0  6G18G16G11G 6G19G 2
  21633500.7584    5595944.69847   4360469.83163
  24283076.5864    -481964.49345   -315619.64461
  23000849.414    -2466937.233 6  -1922277.78121
  24491785.836     -296119.027 4   -104872.40221
  21099080.5634     655420.19846    510718.75762
  22617930.4454   -6550273.57646  -5104082.77962
 91  3 29 22 23 15.0000000  0  6G18G16G11G 6G19G 2
  21641346.5554    5637169.63347   4392593.09463
  24281935.188     -487959.981 5   -320291.44521
  23000824.672    -2467054.549 6
  24486660.352     -323044.089 4   -125852.81921
  21100649.8524     663663.74646    517142.30462
  22612378.1564   -6579449.75246  -5126817.36662
 91  3 29 22 23 30.0000000  0  6G18G16G11G 6G19G 2
  21649208.3284    5678484.27147   4424786.25963
  24280817.5704    -493834.11845   -324868.68961
  23000828.750    -2467032.096 6
  24481538.0394    -349975.29544   -146838.06661
  21102229.3444     671944.57946    523594.90362
  22606837.8914   -6608565.37046  -5149504.76361
 91  3 29 22 23 45.0000000  0  6G18G16G11G 6G19G 2
  21657087.2274    5719888.78447   4457049.45463
  24279721.9694    -499586.44345   -329351.01261
  23000859.6024   -2466869.71546
  24476411.070     -376912.324 4   -167827.81321
  21103808.9144     680262.74946    530076.59462
  22601309.1884   -6637620.11146  -5172144.73061
 91  3 29 22 24  0.0000000  0  6G18G16G11G 6G19G 2
  21664984.0004    5761384.70447   4489383.86963
  24278650.7424    -505215.26045   -333737.08761
  23000919.7114   -2466565.37646
  24471281.789     -403853.469 5   -188820.79721
  21105401.5864     688620.11146    536588.82962
  22595790.4304   -6666612.07046  -5194735.77661
 91  3 29 22 24 15.0000000  0  6G18G16G11G 6G19G 2
  21672897.9304    5802972.10247   4521789.56963
  24277604.5784    -510720.20745   -338026.66761
  23001003.672    -2466118.360 6  -1921639.59221
  24466159.852     -430798.277 5   -209816.59521
  21106997.9454     697017.31746    543132.10562
  22590285.7894   -6695540.76246  -5217277.52261
 91  3 29 22 24 30.0000000  0  6G18G16G11G 6G19G 2
  21680829.0554    5844647.93647   4554264.17863
  24276580.016     -516103.856 5   -342221.70621
  23001114.844    -2465531.510 6  -1921182.29221
  24461030.7664    -457749.64445   -230817.52761
  21108604.8284     705451.64446    549704.31062
  22584792.5944   -6724408.94146  -5239772.11161
 91  3 29 22 24 45.0000000  0  6G18G16G11G 6G19G 2
  21688776.2274    5886415.07547   4586809.93363
  24275580.0474    -521363.68845   -346320.26761
  23001254.508    -2464802.047 6  -1920613.85921
  24455900.6954    -484704.77945   -251821.40761
  21110215.4614     713925.81546    556307.56063
  22579311.8134   -6753213.65346  -5262217.25061
 91  3 29 22 25  0.0000000  0  6G18G16G11G 6G19G 2
  21696741.0554    5928269.93847   4619424.04363
  24274600.6174    -526502.86245   -350324.81961
  23001418.219    -2463933.312 6  -1919936.90721
  24450769.438     -511667.236 5   -272830.95421
  21111833.7814     722436.47947    562939.24462
  22573841.0554   -6781958.60246  -5284615.82061
 91  3 29 22 25 15.0000000  0  6G18G16G11G 6G19G 2
  21704723.6804    5970218.70247   4652111.32363
  24273646.7504    -531514.76745   -354230.20761
  23001612.898    -2462918.555 6  -1919146.16821
  24445637.1024    -538630.64545   -293841.30261
  21113462.3984     730990.32046    569604.57462
  22568383.8444   -6810637.01246  -5306962.54562
 91  3 29 22 25 30.0000000  0  6G18G16G11G 6G19G 2
  21712724.0784    6012260.20347   4684870.86563
  24272718.3054    -536400.58145   -358037.33761
  23001834.2344   -2461758.75346  -1918242.42061
  24440506.9534    -565595.99645   -314853.10261
  21115097.1094     739586.30947    576302.76763
  22562938.3984   -6839249.91446  -5329258.22162
 91  3 29 22 25 45.0000000  0  6G18G16G11G 6G19G 2
  21720741.7424    6054391.92047   4717700.70763
  24271812.414     -541162.815 5   -361748.17921
  23002080.867    -2460456.087 6  -1917227.33621
  24435374.1724    -592565.49845   -335868.17561
  21116741.9144     748222.32546    583032.12663
  22557506.2894   -6867799.45646  -5351504.52162
 91  3 29 22 26  0.0000000  0  6G18G16G11G 6G19G 2
  21728776.1094    6096615.35547   4750602.01963
  24270928.422     -545799.682 5   -365361.34121
  23002357.156    -2459008.935 6  -1916099.67622
  24430239.8984    -619537.88745   -356885.49461
  21118395.3754     756899.96846    589793.93163
  22552085.7814   -6896284.00546  -5373700.18162
 91  3 29 22 26 15.0000000  0  6G18G16G11G 6G19G 2
  21736827.8204    6138926.63947   4783571.78063
  24270068.8524    -550314.98945   -368879.75761
  23002658.719    -2457420.815 6  -1914862.16521
  24425105.1564    -646516.63445   -377907.78061
  21120051.4064     765615.72647    596585.43063
  22546677.3204   -6924707.16546  -5395848.00862
 91  3 29 22 26 30.0000000  0  6G18G16G11G 6G19G 2
  21744895.7424    6181323.58947   4816608.29863
  24269234.133     -554710.544 5   -372304.88821
  23002987.008    -2455693.567 7  -1913516.24921
  24419971.1024    -673503.70145   -398936.49661
  21121719.1414     774367.53546    603405.01463
  22541278.852    -6953070.827 6  -5417949.48422
 91  3 29 22 26 45.0000000  0  6G18G16G11G 6G19G 2
  21752980.8204    6223813.74047   4849717.43862
  24268420.9304    -558978.66445   -375630.70561
  23003344.039    -2453819.559 6  -1912055.96422
  24414834.4614    -700491.52045   -419965.83361
  21123389.2424     783163.25447    610258.82463
  22535896.3834   -6981367.33246  -5439998.61462
 91  3 29 22 27  0.0000000  0  6G18G16G11G 6G19G 2
  21761084.7974    6266395.61447   4882898.05263
  24267631.6724    -563120.26345   -378857.92461
  23003727.758    -2451799.784 6  -1910482.08821
  24409699.883     -727481.475 5   -440996.84421
  21125070.9694     792001.67547    617145.90163
  22530522.484    -7009597.892 6  -5461996.36821
 91  3 29 22 27 15.0000000  0  6G18G16G11G 6G19G 2
  21769205.859     6309071.802 7   4916152.15123
  24266868.234     -567132.925 5   -381984.69121
  23004141.289    -2449631.534 7  -1908792.53421
  24404564.4774    -754470.81745   -462027.34961
  21126761.7974     800885.62547    624068.45963
  22525163.242    -7037759.541 6  -5483940.42922
 91  3 29 22 27 30.0000000  0  6G18G16G11G 6G19G 2
  21777344.617     6351843.528 7   4949480.69122
  24266127.016     -571014.945 5   -385009.64821
  23004580.813    -2447312.923 6  -1906985.80521
  24399425.555     -781457.871 5   -483056.07121
  21128464.6334     809816.81846    631027.82963
  22519817.2274   -7065850.55846  -5505829.44662
 91  3 29 22 27 45.0000000  0  6G18G16G11G 6G19G 2
  21785501.000     6394704.689 7   4982878.92822
  24265414.1644    -574772.06445   -387937.27261
  23005049.930    -2444849.930 6  -1905066.57722
  24394289.023     -808448.582 5   -504087.65821
  21130170.7114     818789.36647    638019.43063
  22514482.891    -7093876.824 6  -5527668.01422
 91  3 29 22 28  0.0000000  0  6G18G16G11G 6G19G 2
  21793674.8054    6437656.44347   5016347.76262
  24264722.6174    -578403.29345   -390766.80461
  23005546.164    -2442240.939 6  -1903033.58022
  24389154.2974    -835441.62345   -525121.00861
  21131884.2344     827804.88947    645044.51263
  22509163.4694   -7121836.97046  -5549455.05162
 91  3 29 22 28 15.0000000  0  6G18G16G11G 6G19G 2
  21801867.3914    6480704.56747   5049891.68362
  24264059.5634    -581902.53545   -393493.47961
  23006071.586    -2439480.094 6  -1900882.25822
  24384017.9224    -862431.28245   -546151.76061
  21133610.8594     836869.31447    652107.70063
  22503856.391    -7149725.093 6  -5571185.97422
 91  3 29 22 28 30.0000000  0  6G18G16G11G 6G19G 2
  21810076.2274    6523843.76447   5083506.57762
  24263415.852     -585274.734 5   -396121.18721
  23006625.102    -2436572.313 6  -1898616.44422
  24378880.805     -889422.499 4   -567183.69621
  21135343.4694     845977.64847    659205.10863
  22498562.406    -7177546.073 6  -5592864.58422
 91  3 29 22 28 45.0000000  0  6G18G16G11G 6G19G 2
  21818303.3134    6567079.45047   5117196.64462
  24262798.4534    -588514.58145   -398645.75161
  23007208.016    -2433512.072 7  -1896231.82622
  24373746.3594    -916409.90544   -588212.68061
  21137086.6094     855135.45347    666341.06663
  22493281.477    -7205294.500 6  -5614486.64922
 91  3 29 22 29  0.0000000  0  6G18G16G11G 6G19G 2
  21826548.711     6610410.708 7   5150961.19122
  24262209.6174    -591622.90945   -401067.81361
  23007819.086    -2430300.201 7  -1893729.05922
  24368610.773     -943394.318 4   -609239.33221
  21138841.2814     864342.00547    673515.00663
  22488014.422    -7232971.143 6  -5636052.78222
 91  3 29 22 29 15.0000000  0  6G18G16G11G 6G19G 2
  21834811.7974    6653835.18247   5184798.38162
  24261642.3594    -594601.63445   -403388.92061
  23008458.008    -2426938.436 7  -1891109.48522
  24363473.836     -970377.752 4   -630265.19021
  21140599.7194     873595.49547    680725.52463
  22482762.906    -7260577.744 6  -5657564.33622
 91  3 29 22 29 30.0000000  0  6G18G16G11G 6G19G 2
  21843094.0164    6697356.04847   5218710.67662
  24261100.758     -597447.098 5   -405606.17321
  23009128.398    -2423423.311 7  -1888370.41422
  24358340.289     -997356.717 4   -651287.62221
  21142368.3834     882899.25747    687975.21663
  22477521.727    -7288110.851 6  -5679018.62921
 91  3 29 22 29 45.0000000  0  6G18G16G11G 6G19G 2
  21851393.1804    6740970.51047   5252695.90762
  24260585.828     -600162.440 5   -407722.05821
  23009826.961    -2419757.720 7  -1885514.09122
  24353208.3594   -1024334.25444   -672308.87361
  21144149.3984     892250.53847    695261.93263
  22472296.078    -7315573.402 6  -5700417.93922
 91  3 29 22 30  0.0000000  0  6G18G16G11G 6G19G 2
  21859710.9454    6784680.72947   5286755.75162
  24260090.9454    -602745.20645   -409734.59261
  23010551.859    -2415938.886 7  -1882538.36122
  24348074.1804   -1051307.79644   -693327.04561
  21145939.8674     901652.03047    702587.78063
  22467083.789    -7342962.614 6  -5721760.10122
 91  3 29 22 30 15.0000000  0  6G18G16G11G 6G19G 2
  21868046.8754    6828481.75847   5320886.35262
  24259625.2974    -605199.77145   -411647.24861
  23011307.789    -2411971.416 7  -1879446.81222
  24342942.1414   -1078281.98044   -714345.71461
  21147736.3754     911099.16947    709949.18863
  22461884.320    -7370283.130 6  -5743048.73422
 91  3 29 22 30 30.0000000  0  6G18G16G11G 6G19G 2
  21876399.8444    6872375.25747   5355089.01662
  24259181.102     -607524.256 5   -413458.54021
  23012089.844    -2407853.493 7  -1876238.02022
  24337808.7114   -1105255.05544   -735363.49461
  21149542.7974     920593.96047    717347.72963
  22456699.219    -7397533.094 6  -5764282.39122
 91  3 29 22 30 45.0000000  0  6G18G16G11G 6G19G 2
  21884769.2504    6916360.66347   5389363.29662
  24258766.1954    -609719.29545   -415168.96861
  23012903.617    -2403585.506 7  -1872912.29822
  24332675.039    -1132227.416 4   -756380.75321
  21151358.2504     930135.79347    724782.92763
  22451527.898    -7424712.876 6  -5785461.36322
 91  3 29 22 31  0.0000000  0  6G18G16G11G 6G19G 2
  21893158.0004    6960440.42747   5423711.09362
  24258373.4774    -611782.23245   -416776.47561
  23013743.844    -2399164.610 7  -1869467.42522
  24327542.641    -1159196.599 4   -777395.54121
  21153182.5394     939727.41047    732256.91763
  22446369.305    -7451819.819 6  -5806583.57122
 91  3 29 22 31 15.0000000  0  6G18G16G11G 6G19G 2
  21901562.7974    7004611.84647   5458130.31962
  24258003.8134    -613715.70845   -418283.07461
  23014613.031    -2394593.402 7  -1865905.43522
  24322412.578    -1186165.219 4
  21155019.4454     949366.33247    739767.77163
  22441225.148    -7478856.549 6
 91  3 29 22 31 30.0000000  0  6G18G16G11G 6G19G 2
  21909986.7734    7048875.34947   5492621.29262
  24257661.2114    -615518.83945   -419688.12561
  23015513.266    -2389871.107 7  -1862225.70822
  24317282.9384   -1213132.41845
  21156860.8524     959053.51747    747316.23363
  22436092.680    -7505822.190 6
 91  3 29 22 31 45.0000000  0  6G18G16G11G 6G19G 2
  21918427.4774    7093232.17847   5527184.98762
  24257344.078     -617190.547 5   -420990.75921
  23016440.523    -2384996.112 7  -1858427.00021
  24312150.266    -1240096.717 5   -840434.06821
  21158713.5314     968790.67646    754903.63263
  22430974.859    -7532715.088 6  -5869618.59322
 91  3 29 22 32  0.0000000  0  6G18G16G11G 6G19G 2
  21926885.8284    7137686.11847   5561824.35662
  24257052.9534    -618726.58145   -422187.67461
  23017398.523    -2379964.502 7  -1854506.24922
  24307018.875    -1267054.418 5   -861439.89521
  21160574.8524     978581.67147    762532.98563
  22425871.883    -7559531.440 6  -5890514.36922
 91  3 29 22 32 15.0000000  0  6G18G16G11G 6G19G 2
  21935363.578     7182231.589 7   5596535.04222
  24256783.078     -620132.043 5   -423282.85221
  23018384.930    -2374781.392 7  -1850467.44922
  24301887.766    -1294010.725 5   -882444.64221
  21162448.9924     988421.30646    770200.23663
  22420782.125    -7586276.227 6  -5911354.37722
 91  3 29 22 32 30.0000000  0  6G18G16G11G 6G19G 2
  21943857.328     7226867.840 7   5631316.45922
  24256539.4614    -621407.81545   -424276.99261
  23019400.141    -2369447.485 7  -1846311.14022
  24296757.164    -1320966.382 5   -903448.89821
  21164329.2504     998308.90646    777904.86663
  22415707.5314   -7612950.27446  -5932139.25862
 91  3 29 22 32 45.0010000  0  6G18G16G11G 6G19G 2
  21952368.9274    7271599.62947   5666172.32762
  24256325.0284    -622552.18945   -425168.70661
  23020443.411    -2363960.410 7  -1842035.47922
  24291629.505    -1347921.150 5   -924452.45521
  21166221.2084    1008247.22746    785649.01363
  22410645.8494   -7639553.34546  -5952868.83662
 91  3 29 22 33  0.0010000  0  6G18G16G11G 6G19G 2
  21960898.208     7316416.934 7   5701094.82922
  24256132.8024    -623568.71645   -425960.84161
  23021515.974    -2358324.557 7  -1837643.88821
  24286502.677    -1374875.221 5   -945455.47121
  21168122.0214    1018231.36046    793428.86163
  22405596.435    -7666085.669 6  -5973543.28822
 91  3 29 22 33 15.0010000  0  6G18G16G11G 6G19G 2
  21969443.521     7361323.105 7   5736086.57622
  24255962.099     -624456.942 5   -426652.98321
  23022615.497    -2352538.937 7  -1833135.59322
  24281371.6304   -1401829.87545   -966458.95261
  21170032.1304    1028262.61146    801245.41863
  22400560.3964   -7692548.35846  -5994163.48062
 91  3 29 22 33 30.0010000  0  6G18G16G11G 6G19G 2
  21978006.099     7406317.798 7   5771147.30422
  24255816.239     -625216.918 4   -427245.20821
  23023745.005    -2346603.762 7  -1828510.76722
  24276241.513    -1428785.405 5   -987463.11021
  21171948.0134    1038340.82646    809098.57363
  22395537.9814   -7718941.47546  -6014729.45362
 91  3 29 22 33 45.0010000  0  6G18G16G11G 6G19G 2
  21986585.356     7451406.175 7   5806281.02922
  24255692.7164    -625843.55543   -427733.48761
  23024905.981    -2340513.612 7  -1823765.17622
  24271116.935    -1455736.377 5  -1008463.72521
  21173875.9034    1048471.47046    816992.58663
  22390528.2474   -7745259.46646  -6035236.89262
 91  3 29 22 34  0.0010000  0  6G18G16G11G 6G19G 2
  21995183.700     7496586.996 7   5841486.78722
  24255601.099     -626337.818 3   -428118.60821
  23026092.161    -2334269.322 7  -1818899.48221
  24265985.6614   -1482683.83345  -1029461.61161
  21175813.5284    1058653.78946    824926.85463
  22385535.333    -7771503.335 6  -6055686.57822
 91  3 29 22 34 15.0010000  0  6G18G16G11G 6G19G 2
  22003798.747     7541859.131 7   5876763.70022
  24255532.427     -626700.427 3   -428401.13421
  23027311.755    -2327871.788 7  -1813914.37821
  24260860.481    -1509628.581 5  -1050457.39721
  21177760.2474    1068886.91346    832900.71763
  22380554.9504   -7797673.81846  -6076079.08062
 91  3 29 22 34 30.0010000  0  6G18G16G11G 6G19G 2
  22012431.138     7587220.603 7   5912110.22922
  24255489.411     -626933.124 4   -428582.48021
  23028556.685    -2321322.731 7  -1808811.20421
  24255731.4664   -1536572.56745  -1071452.55361
  21179718.8494    1079169.11046    840912.82163
  22375588.4814   -7823772.79546  -6096415.85962
 91  3 29 22 34 45.0010000  0  6G18G16G11G 6G19G 2
  22021080.724     7632672.259 7   5947527.02922
  24255471.4504    -627035.42845
  23029832.630    -2314621.390 7  -1803589.36821
  24250604.3334   -1563515.02145  -1092446.55661
  21181684.4354    1089501.04546    848963.67663
  22370635.7554   -7849799.50446  -6116696.32362
 91  3 29 22 35  0.0010000  0  6G18G16G11G 6G19G 2
  22029746.692     7678212.468 7   5983012.83222
  24255476.7314    -627008.46245
  23031138.372    -2307768.705 7  -1798249.60021
  24245477.0914   -1590457.04945  -1113440.21361
  21183658.1224    1099881.87246    857052.62963
  22365697.325    -7875754.835 6  -6136921.17122
 91  3 29 22 35 15.0010000  0  6G18G16G11G 6G19G 2
  22038428.513     7723840.137 7   6018566.77722
  24255507.0914    -626852.96645
  23032469.052    -2300765.579 7  -1792792.60321
  24240346.8024   -1617399.54645  -1134434.23261
  21185644.5364    1110310.78446    865179.05763
  22360769.810    -7901639.803 6  -6157091.19622
 91  3 29 22 35 30.0010000  0  6G18G16G11G 6G19G 2
  22047128.747     7769557.251 7   6054190.42022
  24255558.5364    -626566.91245
  23033829.9194   -2293609.82647  -1787216.68461
  24235221.653    -1644340.348 5  -1155426.92721
  21187637.8414    1120790.08446    873344.74463
  22355858.825    -7927452.218 6  -6177204.68622
 91  3 29 22 35 45.0010000  0  6G18G16G11G 6G19G 2
  22055845.372     7815364.251 7   6089884.10522
  24255638.9584    -626149.59645
  23035220.966    -2286300.693 7  -1781521.24221
  24230094.8254   -1671278.71145  -1176417.71861
  21189644.5914    1131320.58946    881550.33363
  22350959.958    -7953191.175 6  -6197260.93922
 91  3 29 22 36  0.0010000  0  6G18G16G11G 6G19G 2
  22064578.802     7861259.405 7   6125646.47922
  24255744.075     -625602.746 5
  23036639.888    -2278839.789 7  -1775707.54021
  24224970.614    -1698216.375 5  -1197407.99321
  21191659.8414    1141900.75846    889794.61863
  22346076.356    -7978858.254 7  -6217261.17722
 91  3 29 22 36 15.0010000  0  6G18G16G11G 6G19G 2
  22073328.630     7907240.197 7   6161475.58622
  24255872.2634    -624928.61545        -0.17271
  23038088.669    -2271229.228 7  -1769777.22521
  24219842.239    -1725155.605 5  -1218399.45721
  21193679.1854    1152528.62846    898076.07163
  22341205.106    -8004455.537 6  -6237207.03522
 91  3 29 22 36 30.0010000  0  6G18G16G11G 6G19G 2
  22082096.153     7953310.954 7   6197374.79322
  24256023.2784    -624122.95645       627.59961
  23039566.5284   -2263464.71147  -1763726.94461
  24214716.4744   -1752092.03845  -1239388.76161
  21195713.1534    1163208.34446    906397.92863
  22336348.138    -8029978.782 6  -6257095.20122
 91  3 29 22 36 45.0010000  0  6G18G16G11G 6G19G 2
  22090879.411     7999468.784 7   6233341.85822
  24256203.638     -623188.255 5      1355.89421
  23041074.8024   -2255548.85847  -1757558.74561
  24209592.114    -1779028.339 5  -1260377.93521
  21197752.3334    1173937.32046    914758.16963
  22331504.411    -8055430.630 6  -6276927.73022
 91  3 29 22 37  0.0010000  0  6G18G16G11G 6G19G 2
  22099680.013     8045715.582 7   6269378.23922
  24256404.622     -622122.287 5      2186.53321
  23042610.036    -2247479.470 7  -1751270.89921
  24204468.239    -1805962.297 5  -1281365.29721
  21199804.1224    1184718.06246    923158.74663
  22326676.192    -8080808.904 6  -6296702.93322
 91  3 29 22 37 15.0010000  0  6G18G16G11G 6G19G 2
  22108497.278     8092047.806 7   6305481.19122
  24256634.208     -620928.554 5      3116.69321
  23044171.8724   -2239259.67547  -1744865.86061
  24199339.013    -1832897.118 5  -1302353.32321
  21201866.2634    1195547.47846    931597.25663
  22321860.325    -8106116.569 6  -6316423.11422
 91  3 29 22 37 30.0010000  0  6G18G16G11G 6G19G 2
  22117330.497     8138468.703 7   6341653.24022
  24256882.997     -619603.753 5      4148.95721
  23045766.583    -2230886.008 7  -1738340.91221
  24194212.8564   -1859829.44845  -1323339.41461
  21203933.9114    1206428.83646    940076.24163
  22317057.903    -8131350.143 7  -6336085.56522
 91  3 29 22 37 45.0010000  0  6G18G16G11G 6G19G 2
  22126179.817     8184976.258 7   6377892.81222
  24257164.1144    -618149.73845      5281.91461
  23047389.4354   -2222360.49147  -1731697.64861
  24189090.372    -1886761.281 5  -1344325.12121
  21206014.6064    1217360.26846    948594.23863
  22312269.614    -8156511.571 7  -6355691.79422
 91  3 29 22 38  0.0010000  0  6G18G16G11G 6G19G 2
  22135047.091     8231573.215 7   6414202.04422
  24257464.8644    -616563.03745      6518.30061
  23049040.5754   -2213679.77447  -1724933.45161
  24183967.7864   -1913689.40545  -1365307.93361
  21208105.2554    1228345.29646    957153.99863
  22307495.474    -8181597.708 7  -6375239.35622
 91  3 29 22 38 15.0010000  0  6G18G16G11G 6G19G 2
  22143930.981     8278254.280 7   6450576.82022
  24257789.583     -614849.271 5      7853.68021
  23050721.7164   -2204849.10147  -1718052.40361
  24178838.2314   -1940619.02744  -1386291.90661
  21210206.1854    1239378.94846    965751.64963
  22302734.880    -8206613.831 7  -6394732.36222
 91  3 29 22 38 30.0010000  0  6G18G16G11G 6G19G 2
  22152831.872     8325024.570 7   6487021.12022
  24258143.0994    -613003.23145      9292.13561
  23052431.5284   -2195863.11247  -1711050.32661
  24173716.3414   -1967544.86144  -1407272.91861
  21212316.4424    1250466.56446    974391.35063
  22297987.903    -8231554.313 7  -6414166.42922
 91  3 29 22 38 45.0010000  0  6G18G16G11G 6G19G 2
  22161748.224     8371877.083 7   6523529.49622
  24258516.942     -611031.517 5     10828.50921
  23054168.7634   -2186728.67247  -1703932.57361
  24168593.9194   -1994473.79544  -1428256.36361
  21214434.7474    1261601.10846    983067.61463
  22293255.966    -8256425.987 7  -6433546.87422
 91  3 29 22 39  0.0010000  0  6G18G16G11G 6G19G 2
  22170679.106     8418815.284 7   6560104.63722
  24258915.755     -608930.589 5     12465.56021
  23055935.0054   -2177442.09947  -1696696.27962
  24163464.966    -2021402.083 4  -1449239.26821
  21216565.5994    1272786.40346    991783.42763
  22288536.583    -8281225.174 7  -6452870.84022
 91  3 29 22 39 15.0010000  0  6G18G16G11G 6G19G 2
  22179627.685     8465835.982 7   6596744.05722
  24259341.6064    -606703.22445     14201.12661
  23057732.802    -2168006.149 7  -1689343.58221
  24158344.278    -2048332.603 4  -1470223.97621
  21218700.3334    1284019.93546   1000536.83263
  22283830.536    -8305954.792 7  -6472140.59122
 91  3 29 22 39 30.0010000  0  6G18G16G11G 6G19G 2
  22188591.091     8512942.863 7   6633450.63122
  24259786.778     -604346.068 5     16037.89321
  23059557.5214   -2158417.16447  -1681871.64061
  24153215.4034   -2075261.60144  -1491207.46861
  21220845.0674    1295305.38946   1009330.69163
  22279138.091    -8330610.855 7  -6491353.03522
 91  3 29 22 39 45.0010000  0  6G18G16G11G 6G19G 2
  22197572.896     8560140.790 7   6670228.15422
  24260261.317     -601853.847 5     17979.81821
  23061412.8334   -2148669.84747  -1674276.32661
  24148095.1384   -2102183.94844  -1512185.77461
  21223005.3804    1306647.99646   1018169.08963
  22274461.255    -8355188.184 7  -6510504.11922
 91  3 29 22 40  0.0010000  0  6G18G16G11G 6G19G 2
  22206570.060     8607421.643 7   6707070.28922
  24260761.966     -599234.437 5     20020.89521
  23063295.9354   -2138772.09147  -1666563.78862
  24142972.450    -2129107.466 5  -1533164.99821
  21225175.4814    1318040.23246   1027046.15663
  22269798.208    -8379694.601 7  -6529599.95322
 91  3 29 22 40 15.0010000  0  6G18G16G11G 6G19G 2
  22215582.771     8654784.302 7   6743976.17722
  24261282.8414    -596489.17945     22160.04561
  23065207.8724   -2128724.82847  -1658734.74362
  24137848.966    -2156033.110 4  -1554145.88321
  21227350.8564    1329481.06546   1035961.08663
  22265147.474    -8404131.226 7  -6548641.39822
 91  3 29 22 40 30.0010000  0  6G18G16G11G 6G19G 2
  22224612.5054    8702235.41047   6780950.98262
  24261830.0364    -593610.87145     24402.86061
  23067148.6224   -2118521.23247  -1650783.89562
  24132724.4354   -2182954.16045  -1575123.17761
  21229538.0674    1340977.46546   1044919.32163
  22260511.325    -8428491.083 7  -6567623.02922
 91  3 29 22 40 45.0010000  0  6G18G16G11G 6G19G 2
  22233658.4814    8749770.95547   6817991.57962
  24262402.278     -590603.944 5     26745.88821
  23069118.1304   -2108165.28347  -1642714.32362
  24127602.2944   -2209874.51745  -1596099.91661
  21231737.7714    1352525.63146   1053917.88263
  22255890.974    -8452777.998 7  -6586547.82122
 91  3 29 22 41  0.0010000  0  6G18G16G11G 6G19G 2
  22242720.1224    8797392.20747   6855098.96262
  24262999.8644    -587466.27644     29190.81261
  23071119.3644   -2097655.24147  -1634524.68861
  24122480.8804   -2236792.45045  -1617074.77861
  21233941.6304    1364127.30446   1062958.14263
  22251282.810    -8476990.258 7  -6605414.44522
 91  3 29 22 41 15.0010000  0  6G18G16G11G 6G19G 2
  22251796.856     8845091.652 7   6892267.27422
  24263621.8334    -584205.22845     31731.85961
  23073147.7864   -2086998.33147  -1626220.61062
  24117357.388    -2263715.177 5  -1638053.38321
  21236160.0834    1375775.34446   1072034.53163
  22246688.380    -8501135.041 7  -6624228.48522
 91  3 29 22 41 30.0010000  0  6G18G16G11G 6G19G 2
  22260887.700     8892857.500 7   6929487.33122
  24264262.083     -580832.728 4     34359.75121
  23075200.1854   -2076206.17747  -1617811.13762
  24112230.794    -2290654.488 5  -1659044.91921
  21238385.8024    1387458.28846   1081138.11963
  22242104.700    -8525223.869 7  -6642998.92222
 91  3 29 22 41 45.0010000  0  6G18G16G11G 6G19G 2
  22269993.231     8940708.879 7   6966774.03422
  24264928.3644    -577329.42544     37089.58461
  23077285.1854   -2065259.33447  -1609281.12961
  24107103.966    -2317590.759 5  -1680034.06521
  21240616.8024    1399195.62246   1090284.09263
  22237535.388    -8549237.296 7  -6661710.59922
 91  3 29 22 42  0.0010000  0  6G18G16G11G 6G19G 2
  22279113.7394    8988639.58147   7004122.54762
  24265619.1534    -573701.24144     39916.70061
  23079395.1464   -2054163.82147  -1600635.28362
  24101977.755    -2344530.224 5  -1701025.72321
  21242859.9274    1410981.33646   1099467.76363
  22232978.263    -8573181.240 7  -6680368.14222
 91  3 29 22 42 15.0010000  0  6G18G16G11G 6G19G 2
  22288250.997     9036653.323 7   7041535.77122
  24266333.6144    -569944.45444     42844.04061
  23081535.3414   -2042915.97147  -1591870.73262
  24096852.4354   -2371469.14945  -1722016.95161
  21245113.5284    1422819.26146   1108692.12363
  22228435.497    -8597052.020 7  -6698968.66922
 91  3 29 22 42 30.0010000  0  6G18G16G11G 6G19G 2
  22297403.2314    9084749.48647   7079013.21162
  24267074.060     -566059.493 4     45871.26821
  23083706.3884   -2031515.95247  -1582987.60462
  24091723.575    -2398407.570 5  -1743007.78421
  21247373.1694    1434709.32446   1117957.10363
  22223907.630    -8620849.781 7  -6717512.30122
 91  3 29 22 42 45.0010000  0  6G18G16G11G 6G19G 2
  22306570.708     9132924.781 7   7116552.31322
  24267839.5754    -562049.49144     48995.90161
  23085902.0914   -2019966.91447  -1573988.36062
  24086599.4114   -2425348.57245  -1764000.63561
  21249647.9194    1446648.70646   1127260.51563
  22219392.224    -8644577.541 7  -6736001.38922
 91  3 29 22 43  0.0010000  0  6G18G16G11G 6G19G 2
  22315753.3644    9181182.05447   7154155.29762
  24268626.263     -557911.057 4     52220.63821
  23088128.7474   -2008265.72347  -1564870.55862
  24081472.974    -2452289.139 5  -1784993.15821
  21251928.7244    1458640.69046   1136604.91863
  22214891.0054   -8668232.22247  -6754433.53362
 91  3 29 22 43 15.0010000  0  6G18G16G11G 6G19G 2
  22324951.505     9229518.733 7   7191820.15922
  24269437.325     -553647.103 5     55543.17021
  23090383.505    -1996414.973 7  -1555636.21322
  24076346.786    -2479231.902 5  -1805987.39121
  21254222.9894    1470682.50646   1145988.14963
  22210401.974    -8691816.452 7  -6772810.78222
 91  3 29 22 43 30.0010000  0  6G18G16G11G 6G19G 2
  22334165.638     9277935.451 7   7229547.38722
  24270273.614     -549256.766 5     58964.19621
  23092667.4034   -1984413.56047
  24071217.653    -2506175.708 5  -1826982.42621
  21256521.8724    1482775.38546
  22205927.513    -8715329.159 7  -6791132.29422
 91  3 29 22 43 45.0010000  0  6G18G16G11G 6G19G 2
  22343394.3884    9326435.12947   7267339.26062
  24271130.536     -544736.964 5     62486.09321
  23094981.3414   -1972258.59547
  24066087.8804   -2533117.60945  -1847975.97161
  21258834.8964    1494922.45446
  22201467.7314   -8738767.09047  -6809395.54362
 91  3 29 22 44  0.0010000  0  6G18G16G11G 6G19G 2
  22352637.8024    9375009.63347   7305189.43462
  24272015.5214    -540095.79445     66102.55661
  23097321.3024   -1959957.78847  -1527228.04262
  24060963.2394   -2560065.46145  -1868974.18461
  21261155.5914    1507115.98046   1174377.86363
  22197020.4744   -8762138.06047  -6827606.62562
 91  3 29 22 44 15.0010000  0  6G18G16G11G 6G19G 2
  22361896.7784    9423665.02047   7343102.63362
  24272923.255     -535326.725 5     69818.69021
  23099690.9274   -1947504.69647  -1517524.34062
  24055835.364    -2587012.635 5  -1889971.87021
  21263485.5134    1519362.72546   1183920.78263
  22192586.9194   -8785435.53147  -6845760.43062
 91  3 29 22 44 30.0010000  0  6G18G16G11G 6G19G 2
  22371169.9894    9472399.25447   7381077.27062
  24273854.2394    -530431.73645     73632.95061
  23102090.5054   -1934901.35247  -1507703.56262
  24050706.435    -2613961.191 5  -1910970.60421
  21265823.7314    1531660.57046   1193503.51863
  22188166.966    -8808661.781 7  -6863858.73322
 91  3 29 22 44 45.0010000  0  6G18G16G11G 6G19G 2
  22380459.0524    9521209.16147   7419110.88062
  24274807.739     -525413.741 5     77543.04521
  23104516.6144   -1922150.57447  -1497767.89262
  24045577.567    -2640914.011 5  -1931972.69821
  21268173.2554    1544006.84946   1203123.99563
  22183759.958    -8831819.379 7  -6881903.54322
 91  3 29 22 45  0.0010000  0  6G18G16G11G 6G19G 2
  22389763.638     9570100.866 7   7457208.22822
  24275788.6854    -520266.58545     81553.77661
  23106972.4354   -1909246.10747  -1487712.46962
  24040448.1614   -2667864.84545  -1952973.21961
  21270533.9424    1556407.96546   1212787.19663
  22179367.9814   -8854902.05247  -6899889.97462
 91  3 29 22 45 15.0010000  0  6G18G16G11G 6G19G 2
  22399082.505     9619073.736 7   7495368.81922
  24276794.5754    -514990.86345     85664.72461
  23109457.4744   -1896188.62447  -1477537.81562
  24035318.919    -2694814.168 5  -1973972.56321
  21272904.1304    1568863.47546   1222492.78563
  22174990.3024   -8877910.24847  -6917818.36962
 91  3 29 22 45 30.0010000  0  6G18G16G11G 6G19G 2
  22408416.8494    9668125.48947   7533590.87662
  24277822.1854    -509589.01045     89873.90361
  23111971.0914   -1882980.09447  -1467245.45462
  24030191.317    -2721763.927 5  -1994972.25321
  21275284.1464    1581371.44346   1232239.25163
  22170625.7864   -8900845.90347  -6935690.24262
 91  3 29 22 45 45.0010000  0  6G18G16G11G 6G19G 2
  22417765.0604    9717253.28547   7571872.19162
  24278873.700     -504063.456 5     94179.51921
  23114511.6064   -1869623.00247  -1456837.34262
  24025058.8414   -2748716.65045  -2015974.25061
  21277674.0214    1593929.52846   1242024.77363
  22166275.4114   -8923711.42947  -6953507.46962
 91  3 29 22 46  0.0010000  0  6G18G16G11G 6G19G 2
  22427129.5054    9766460.01947   7610215.00962
  24279947.403     -498411.212 5     98583.83421
  23117083.5134   -1856114.41147  -1446311.17062
  24019932.200    -2775669.239 5  -2036976.11321
  21280074.1224    1606540.80046   1251851.74063
  22161936.6614   -8946503.86047  -6971267.74362
 91  3 29 22 46 15.0010000  0  6G18G16G11G 6G19G 2
  22436508.2554    9815746.38947   7648619.87962
  24281049.661     -492631.326 5    103087.62421
  23119684.7084   -1842453.33247  -1435666.18062
  24014804.6854   -2802620.78745  -2057977.21161
  21282483.2634    1619206.52346   1261721.13763
  22157614.4744   -8969222.10947  -6988970.20462
 91  3 29 22 46 30.0010000  0  6G18G16G11G 6G19G 2
  22445901.7474    9865110.94047   7687085.67362
  24282171.286     -486724.516 5    107690.30821
  23122310.8564   -1828640.67947  -1424903.08162
  24009674.771    -2829572.197 5  -2078978.15721
  21284903.9114    1631925.81946   1271632.27463
  22153304.3414   -8991867.02447  -7006615.53362
 91  3 29 22 46 45.0010000  0  6G18G16G11G 6G19G 2
  22455311.2714    9914555.78647   7725614.03162
  24283318.8964    -480689.33545    112392.99861
  23124968.3644   -1814674.67047  -1414020.48362
  24004545.2554   -2856521.69245  -2099977.65561
  21287336.7164    1644700.60246   1281586.63963
  22149009.1534   -9014436.89147  -7024202.38362
 91  3 29 22 47  0.0010000  0  6G18G16G11G 6G19G 2
  22464735.1534    9964081.56147   7764205.45162
  24284492.481     -474525.019 5    117196.32621
  23127655.4034   -1800554.41747  -1403017.69962
  23999417.685    -2883468.318 5  -2120974.88521
  21289776.7004    1657531.83346   1291585.00163
  22144729.5134   -9036930.78147  -7041730.02462
 91  3 29 22 47 15.0010000  0  6G18G16G11G 6G19G 2
  22474174.7244   10013686.68246   7802858.69561
  24285691.021     -468232.559 5    122099.51821
  23130372.7244   -1786281.04447  -1391895.59662
  23994290.6924   -2910413.13745  -2141970.71261
  21292229.1464    1670418.61146   1301626.64463
  22140463.1064   -9059349.71247  -7059199.26262
 91  3 29 22 47 30.0010000  0  6G18G16G11G 6G19G 2
  22483630.4584   10063374.31946   7841576.23561
  24286913.4814    -461808.71745    127105.06661
  23133119.2554   -1771851.22347  -1380651.58662
  23989163.903    -2937352.832 5  -2162962.54821
  21294690.7394    1683364.37346   1311714.24463
  22136212.8564   -9081690.24147  -7076607.41062
 91  3 29 22 47 45.0010000  0  6G18G16G11G 6G19G 2
  22493101.2474   10113143.25146   7880357.11861
  24288159.669     -455254.707 5    132212.06221
  23135893.7164   -1757266.09147  -1369286.54562
  23984037.177    -2964288.365 5  -2183951.14221
  21297167.5444    1696368.32346   1321847.18863
  22131975.9424   -9103953.33347  -7093955.21062
 91  3 29 22 48  0.0010000  0  6G18G16G11G 6G19G 2
  22502588.052    10162993.924 6   7919201.69522
  24289434.747     -448570.040 5    137420.85621
  23138698.8494   -1742525.03347  -1357800.01662
  23978914.0214   -2991219.14545  -2204936.04061
  21299652.6304    1709431.03046   1332025.91663
  22127753.8024   -9126138.47247  -7111242.27262
 91  3 29 22 48 15.0010000  0  6G18G16G11G 6G19G 2
  22512090.224    10212925.898 7   7958109.62221
  24290727.942     -441755.326 5    142730.99821
  23141532.6464   -1727628.36647  -1346192.23061
  23973789.9034   -3018145.42845  -2225917.43161
  21302150.8964    1722552.21746   1342250.21263
  22123547.4354   -9148245.90547  -7128468.78262
 91  3 29 22 48 30.0010000  0  6G18G16G11G 6G19G 2
  22521606.122    10262933.597 7   7997076.56121
  24292049.4664    -434815.41645    148138.67861
  23144395.9034   -1712581.36147  -1334467.29462
  23968667.5914   -3045072.27445  -2246899.25261
  21304660.6224    1735726.96446   1352516.23563
  22119354.2554   -9170280.70447  -7145638.68962
 91  3 29 22 48 45.0010000  0  6G18G16G11G 6G19G 2
  22531136.6694   10313020.95947   8036105.57261
  24293393.0604    -427746.09345    153647.20161
  23147289.9814   -1697379.78347  -1322621.91662
  23963544.4664   -3071995.69945  -2267878.41561
  21307174.5914    1748959.42346   1362827.23463
  22115174.9114   -9192238.71947  -7162748.76962
 91  3 29 22 49  0.0010000  0  6G18G16G11G 6G19G 2
  22540683.3494   10363185.86147   8075195.01062
  24294763.927     -420550.010 5    159254.47921
  23150211.7244   -1682025.93747  -1310657.88562
  23958419.4354   -3098917.80345  -2288856.54261
  21309706.6064    1762247.72846   1373181.74763
  22111010.6774   -9214122.08647  -7179800.69062
 91  3 29 22 49 15.0010000  0  6G18G16G11G 6G19G 2
  22550244.271    10413428.579 7   8114345.08122
  24296159.7084    -413226.48445    164961.08761
  23153161.356    -1666519.104 7  -1298574.65421
  23953295.903    -3125837.798 5  -2309833.03121
  21312244.3804    1775592.67946   1383580.40363
  22106861.4664   -9235929.81647  -7196793.66062
 91  3 29 22 49 30.0010000  0  6G18G16G11G 6G19G 2
  22559820.349    10463749.516 7   8153556.10121
  24297575.1694    -405774.91845    170767.46761
  23156143.0284   -1650858.67847  -1286371.73462
  23948177.935    -3152754.980 5  -2330807.32821
  21314794.7314    1788994.90946   1394023.68963
  22102724.7474   -9257661.42347  -7213727.32162
 91  3 29 22 49 45.0010000  0  6G18G16G11G 6G19G 2
  22569409.966    10514145.922 7   8192825.92421
  24299016.528     -398197.943 5    176671.54121
  23159150.4664   -1635047.32747  -1274051.20862
  23943052.7784   -3179671.91045  -2351781.43161
  21317355.9664    1802452.07746   1404509.79163
  22098602.997    -9279319.468 7  -7230603.66822
 91  3 29 22 50  0.0010000  0  6G18G16G11G 6G19G 2
  22579016.091    10564620.027 7   8232156.28422
  24300482.3334    -390493.52345    182674.95861
  23162190.224    -1619082.658 7  -1261611.22322
  23937930.8414   -3206586.34245  -2372753.57661
  21319925.6614    1815966.76646   1415040.71163
  22094496.8884   -9300901.47847  -7247420.76462
 91  3 29 22 50 15.0010000  0  6G18G16G11G 6G19G 2
  22588634.333    10615166.781 7   8271543.25421
  24301973.2784    -382666.05345    188774.24361
  23165255.896    -1602969.324 7  -1249055.39522
  23932808.7084   -3233502.70045  -2393727.24461
  21322507.6614    1829534.50446   1425612.96563
  22090403.3494   -9322412.05447  -7264182.19162
 91  3 29 22 50 30.0010000  0  6G18G16G11G 6G19G 2
  22598267.435    10665790.276 7   8310990.02621
  24303487.224     -374711.424 5    194972.63921
  23168350.106    -1586703.289 7  -1236380.57622
  23927686.052    -3260416.840 5  -2414699.16221
  21325101.0134    1843159.36746   1436229.73963
  22086324.6064   -9343846.90747  -7280884.61362
 91  3 29 22 50 45.0010000  0  6G18G16G11G 6G19G 2
  22607915.606    10716489.100 7   8350495.49722
  24305023.5134    -366630.60845    201269.32561
  23171474.177    -1570285.422 7  -1223587.44322
  23922565.5054   -3287329.67645  -2435670.07961
  21327705.8104    1856840.57046   1446890.40763
  22082260.560    -9365207.114 7  -7297528.87722
 91  3 29 22 51  0.0010000  0  6G18G16G11G 6G19G 2
  22617577.536    10767263.538 7   8390059.89321
  24306587.8724    -358423.63645    207664.31961
  23174627.8414   -1553715.51347  -1210675.83962
  23917444.6614   -3314240.84945  -2456639.69461
  21330320.864     1870578.513 6   1457595.28123
  22078209.974    -9386492.244 7  -7314114.63822
 91  3 29 22 51 15.0010000  0  6G18G16G11G 6G19G 2
  22627255.005    10818114.895 7   8429684.22421
  24308173.880     -350089.074 5    214158.75121
  23177811.1304   -1536992.24747  -1197644.73862
  23912324.755    -3341148.950 5  -2477606.90921
  21332944.0524    1884374.74546   1468345.58163
  22074173.888    -9407700.770 7  -7330640.70822
 91  3 29 22 51 30.0010000  0  6G18G16G11G 6G19G 2
  22636946.411    10869043.360 7   8469368.64522
  24309785.0284    -341626.93245    220752.56561
  23181022.7714   -1520115.17947  -1184493.78962
  23907202.5674   -3368053.50645  -2498571.36961
  21335582.3564    1898229.86546   1479141.77163
  22070152.4194   -9428832.28447  -7347106.76562
 91  3 29 22 51 45.0010000  0  6G18G16G11G 6G19G 2
  22646652.060    10920047.027 6   8509111.65222
  24311416.3334    -333038.46645    227444.81561
  23184263.1384   -1503085.80247  -1171224.15962
  23902083.3024   -3394955.93545  -2519534.18761
  21338228.278     1912142.653 6   1489982.89123
  22066145.364    -9449888.208 7  -7363513.92922
 91  3 29 22 52  0.0010000  0  6G18G16G11G 6G19G 2
  22656372.161    10971124.376 6   8548912.07622
  24313077.544     -324325.046 5    234234.45921
  23187531.661    -1485905.399 7  -1157836.85022
  23896963.927    -3421857.462 5  -2540496.29821
  21340883.9814    1926111.85146   1500867.97363
  22062152.231    -9470869.694 7  -7379863.08122
 91  3 29 22 52 15.0010000  0  6G18G16G11G 6G19G 2
  22666105.356    11022274.871 6   8588769.49422
  24314760.0284    -315487.31745    241120.93761
  23190829.263    -1468574.632 7  -1144332.36922
  23891848.8104   -3448758.59245  -2561458.10161
  21343556.4194    1940137.16346   1511796.77963
  22058174.4114   -9491777.34147  -7396154.69762
 91  3 29 22 52 30.0010000  0  6G18G16G11G 6G19G 2
  22675852.567    11073497.803 6   8628683.35621
  24316462.5284    -306526.09745    248103.62961
  23194155.763    -1451093.975 7  -1130711.09922
  23886725.708    -3475659.871 5  -2582420.01121
  21346238.2004    1954218.07646   1522768.90963
  22054208.591    -9512611.463 7  -7412389.02622
 91  3 29 22 52 45.0010000  0  6G18G16G11G 6G19G 2
  22685614.278    11124794.919 6   8668655.02921
  24318190.3334    -297439.45945    255184.09661
  23197511.200    -1433461.524 7  -1116971.54422
  23881608.1144   -3502559.01145  -2603380.26561
  21348925.1694    1968356.86746   1533786.14263
  22050259.872    -9533369.988 7  -7428564.44422
 91  3 29 22 53  0.0010000  0  6G18G16G11G 6G19G 2
  22695390.927    11176167.988 6   8708685.87321
  24319948.1534    -288224.99145    262364.15861
  23200897.255    -1415675.195 7  -1103112.08222
  23876490.833    -3529454.138 5  -2624337.39121
  21351625.4814    1982555.74846   1544850.19663
  22046323.903    -9554050.985 7  -7444679.45122
 91  3 29 22 53 15.0010000  0  6G18G16G11G 6G19G 2
  22705179.497    11227612.172 6   8748772.13321
  24321722.169     -278887.662 5    269639.92921
  23204308.216    -1397739.850 7  -1089136.50722
  23871373.880    -3556349.835 5  -2645294.96521
  21354342.3104    1996809.92846   1555957.34763
  22042401.4274   -9574659.14347  -7460737.70162
 91  3 29 22 53 30.0010000  0  6G18G16G11G 6G19G 2
  22714982.5604   11279129.08046   8788915.06661
  24323524.122     -269426.022 5    277012.60121
  23207751.591    -1379653.770 6  -1075043.47722
  23866252.2394   -3583244.36045  -2666251.62461
  21357062.4814    2011121.38246   1567109.11963
  22038494.614    -9595192.619 7  -7476737.75522
 91  3 29 22 53 45.0010000  0  6G18G16G11G 6G19G 2
  22724800.153    11330716.473 6   8829112.92321
  24325345.2554    -259841.72445    284480.82561
  23211219.771    -1361418.789 6  -1060834.42022
  23861136.2394   -3610139.34245  -2687208.64361
  21359798.9894    2025488.49246   1578304.26763
  22034602.005    -9615653.017 7  -7492680.87322
 91  3 29 22 54  0.0010000  0  6G18G16G11G 6G19G 2
  22734630.739    11382376.398 6   8869367.29721
  24327196.325     -250132.917 5    292046.07221
  23214719.833    -1343032.801 6  -1046507.69622
  23856018.224    -3637032.640 5  -2708164.33921
  21362542.9504    2039913.54546   1589544.56263
  22030722.060    -9636038.299 7  -7508565.45322
 91  3 29 22 54 15.0010000  0  6G18G16G11G 6G19G 2
  22744474.724    11434106.348 6   8909676.23621
  24329065.7864    -240302.22645    299706.31661
  23218246.239    -1324498.331 6  -1032065.27022
  23850900.3804   -3663926.64745  -2729120.59261
  21365298.3644    2054394.26646   1600828.23563
  22026856.4814   -9656350.87847  -7524393.38662
 91  3 29 22 54 30.0010000  0  6G18G16G11G 6G19G 2
  22754331.396    11485905.466 6   8950039.07121
  24330957.2164    -230350.20845    307461.08561
  23221801.294    -1305815.912 7  -1017507.55922
  23845780.8254   -3690821.85545  -2750077.79061
  21368063.6464    2068930.15146   1612154.89363
  22023004.9584   -9676591.23047  -7540165.03062
 91  3 29 22 54 45.0010000  0  6G18G16G11G 6G19G 2
  22764201.817    11537773.260 6   8990455.42521
  24332877.130     -220276.988 5    315310.30621
  23225385.567    -1286985.913 6  -1002834.85122
  23840663.208    -3717718.596 5  -2771036.18721
  21370840.0604    2083521.06046   1623524.42863
  22019167.2314   -9696759.50347  -7555880.51362
 91  3 29 22 55  0.0010000  0  6G18G16G11G 6G19G 2
  22774084.8644   11589712.70346   9030927.59661
  24334817.255     -210080.076 5    323255.90821
  23228997.630    -1268005.154 6   -988044.66122
  23835546.763    -3744613.533 5  -2791993.18021
  21373627.2004    2098170.36246   1634939.46363
  22015343.294    -9716852.587 7  -7571537.41022
 91  3 29 22 55 15.0010000  0  6G18G16G11G 6G19G 2
  22783982.372    11641721.166 6   9071453.55421
  24336776.997     -199761.431 5    331296.37021
  23232637.489    -1248875.958 6   -973138.81122
  23830428.0134   -3771508.84045  -2812950.45461
  21376426.5054    2112876.07346   1646398.45263
  22011533.997    -9736872.499 7  -7587137.28722
 91  3 29 22 55 30.0010000  0  6G18G16G11G 6G19G 2
  22793892.169    11693797.186 6   9112032.15421
  24338765.810     -189322.489 5    339430.57121
  23236306.013    -1229599.792 6   -958118.43722
  23825310.9814   -3798405.82245  -2833909.02061
  21379235.2474    2127636.88146   1657900.37963
  22007736.9194   -9756820.70547  -7602681.28362
 91  3 29 22 55 45.0010000  0  6G18G16G11G 6G19G 2
  22803815.638    11745940.980 6   9152663.56621
  24340776.5284    -178762.73145    347658.90261
  23240001.177    -1210176.283 6   -942983.25222
  23820190.1304   -3825303.98245  -2854868.51461
  21382053.9974    2142453.23346   1669445.58163
  22003955.0604   -9776696.68447  -7618169.00262
 91  3 29 22 56  0.0010000  0  6G18G16G11G 6G19G 2
  22813751.3884   11798156.62546   9193350.96061
  24342808.185     -168078.489 5    355984.24121
  23243726.263    -1190601.346 6   -927730.07222
  23815073.552    -3852199.237 5  -2875825.74421
  21384885.8564    2157329.51646   1681037.48363
  22000186.622    -9796496.383 7  -7633597.28322
 91  3 29 22 56 15.0010000  0  6G18G16G11G 6G19G 2
  22823701.4034   11850439.99946   9234091.13461
  24344862.528     -157273.473 5    364403.69121
  23247480.216    -1170878.762 6   -912361.84122
  23809954.7394   -3879095.17045  -2896783.51261
  21387727.4814    2172262.16546   1692673.31363
  21996432.8884   -9816223.30247  -7648968.85062
 91  3 29 22 56 30.0010000  0  6G18G16G11G 6G19G 2
  22833662.708    11902790.613 6   9274883.70321
  24346945.247     -146347.603 5    372917.31821
  23251261.560    -1151008.542 6   -896878.57521
  23804834.138    -3905991.679 5  -2917741.73121
  21390579.4504    2187251.49446   1704353.30563
  21992693.3724   -9835877.39147  -7664283.66662
 91  3 29 22 56 45.0010000  0  6G18G16G11G 6G19G 2
  22843638.3644   11955210.50146   9315730.24861
  24349048.333     -135299.339 5    381526.30221
  23255070.083    -1130989.046 6   -881278.98321
  23799718.646    -3932886.988 5  -2938699.00721
  21393445.3964    2202299.25346   1716078.82563
  21988968.0214   -9855456.83447  -7679540.31462
 91  3 29 22 57  0.0010000  0  6G18G16G11G 6G19G 2
  22853625.0134   12007693.18646   9356625.73061
  24351172.2394    -124134.84245    390225.88061
  23258906.505    -1110826.460 6   -865567.89821
  23794599.6614   -3959787.17245  -2959660.07161
  21396316.4744    2217399.51746   1727845.26463
  21985254.3494   -9874967.73247  -7694743.55362
 91  3 29 22 57 15.0010000  0  6G18G16G11G 6G19G 2
  22863626.0604   12060244.99946   9397575.07561
  24353317.7314    -112847.89145    399020.85561
  23262773.200    -1090514.356 6   -849740.30721
  23789479.7244   -3986685.62045  -2980619.79161
  21399201.9114    2232558.75346   1739657.65363
  21981555.255    -9894403.565 7  -7709888.30522
 91  3 29 22 57 30.0010000  0  6G18G16G11G 6G19G 2
  22873638.1614   12112859.62446   9438573.36461
  24355490.4354    -101444.78145    407906.34361
  23266664.966    -1070058.711 6   -833800.86121
  23784361.778    -4013588.249 5  -3001582.76821
  21402096.4814    2247771.20246   1751511.50463
  21977870.1854   -9913770.20347  -7724979.13262
 91  3 29 22 57 45.0010000  0  6G18G16G11G 6G19G 2
  22883663.1534   12165537.67246   9479621.06561
  24357682.4894     -89924.90745    416882.82061
  23270584.825    -1049458.952 6   -817749.12321
  23779242.5834   -4040494.36945  -3022548.47361
  21405001.7554    2263037.62346   1763407.41363
  21974198.856    -9933067.026 7  -7740015.56522
 91  3 29 22 58  0.0010000  0  6G18G16G11G 6G19G 2
  22893699.9894   12218284.32846   9520722.22961
  24359898.146      -78282.758 5    425954.58221
  23274533.427    -1028709.583 6   -801580.80221
  23774121.786    -4067398.418 5  -3043512.55721
  21407918.9584    2278363.74246   1775349.83863
  21970540.7714   -9952288.46747  -7754993.25662
 91  3 29 22 58 15.0010000  0  6G18G16G11G 6G19G 2
  22903749.9894   12271092.80746   9561871.57261
  24362132.825      -66524.558 5    435116.76521
  23278510.169    -1007817.298 6   -785301.12021
  23769000.739    -4094306.851 5  -3064480.06221
  21410844.6924    2293743.19546   1787333.81663
  21966896.1384   -9971441.09447  -7769917.32262
 91  3 29 22 58 30.0010000  0  6G18G16G11G 6G19G 2
  22913811.0284   12323967.71746   9603072.67561
  24364394.552      -54645.970 5    444372.76121
  23282511.849     -986777.405 6   -768906.41621
  23763881.614    -4121214.878 5  -3085447.24021
  21413781.5134    2309180.89946   1799363.19363
  21963264.7004   -9990520.16947  -7784784.07162
 91  3 29 22 58 45.0010000  0  6G18G16G11G 6G19G 2
  22923885.5214   12376906.84046   9644323.81661
  24366679.419      -42648.985 5    453720.99521
  23286544.669     -965591.860 6   -752398.21421
  23758758.685    -4148124.351 5  -3106415.55321
  21416730.0604    2324675.11446   1811436.59963
  21959649.1614  -10009527.28447  -7799594.75462
 91  3 29 22 59  0.0010000  0  6G18G16G11G 6G19G 2
  22933970.9894   12429909.21446   9685624.23861
  24368981.036      -30534.935 5    463160.47421
  23290604.630     -944261.663 6   -735777.29821
  23753637.130    -4175036.092 5  -3127385.62621
  21419688.3334    2340224.95046   1823553.34963
  21956045.841   -10028463.382 7  -7814350.10122
 91  3 29 22 59 15.0010000  0  6G18G16G11G 6G19G 2
  22944068.6464   12482975.04446   9726974.10961
  24371310.497      -18303.089 5    472691.74321
  23294690.130     -922786.335 6   -719043.29621
  23748515.411    -4201949.396 5  -3148356.92021
  21422658.6614    2355831.15246   1835714.02263
  21952454.802   -10047327.735 7  -7829049.54622
 91  3 29 22 59 30.0010000  0  6G18G16G11G 6G19G 2
  22954179.0914   12536102.39046   9768371.90961
  24373660.9744      -5955.36345    482313.28061
  23298803.763     -901167.713 6   -702197.63121
  23743396.114    -4228865.846 5  -3169330.67421
  21425639.5444    2371492.35846   1847917.55063
  21948878.7164  -10066122.06847  -7843694.42362
 91  3 29 22 59 45.0010000  0  6G18G16G11G 6G19G 2
  22964300.8174   12589295.26946   9809820.77661
  24376033.0134       6512.43745    492028.39361
  23302945.028     -879401.675 6   -685237.09821
  23738271.060    -4255781.337 5  -3190303.66421
  21428631.6774    2387212.68846   1860167.15563
  21945315.192   -10084842.229 7  -7858281.51422
 91  3 29 23  0  0.0010000  0  6G18G16G11G 6G19G 2
  22974435.9114   12642550.57346   9851318.28761
  24378424.317       19096.886 5    501834.40121
  23307114.661     -857491.499 6   -668164.24121
  23733150.7474   -4282698.93845  -3211278.33061
  21431633.3884    2402989.24746   1872460.56563
  21941766.747   -10103491.282 7  -7872813.19722
 91  3 29 23  0 15.0010000  0  6G18G16G11G 6G19G 2
  22984582.1534   12695868.82246   9892864.84961
  24380845.521       31798.840 5    511731.98121
  23311310.8104    -835436.09746   -650978.23161
  23728028.489    -4309617.387 5  -3232253.63721
  21434648.0834    2418823.25546   1884798.74763
  21938231.466   -10122068.139 7  -7887288.61622
 91  3 29 23  0 30.0010000  0  6G18G16G11G 6G19G 2
  22994739.9584   12749249.71146   9934460.21361
  24383285.0214      44618.27745    521721.08661
  23315537.231     -813235.696 6   -633679.22921
  23722903.403    -4336536.826 5  -3253229.71521
  21437668.7084    2434714.67246   1897181.66463
  21934711.169   -10140572.915 7  -7901707.87122
 91  3 29 23  0 45.0010000  0  6G18G16G11G 6G19G 2
  23004910.841    12802694.918 6   9976105.69721
  24385747.427       57556.782 5    531802.97721
  23319789.942     -790888.555 6   -616265.89121
  23717781.3174   -4363455.41745  -3274205.12561
  21440705.8884    2450665.31346   1909610.72263
  21931202.403   -10159003.734 7  -7916069.49622
 91  3 29 23  1  0.0010000  0  6G18G16G11G 6G19G 2
  23015092.896    12856205.499 6  10017802.11921
  24388230.4354      70615.86045    541978.83261
  23324070.771     -768393.322 6   -598737.14921
  23712659.481    -4390371.533 5  -3295178.61621
  21443755.1534    2466676.93746   1922087.30563
  21927710.661   -10177359.084 7  -7930372.31122
 91  3 29 23  1 15.0010000  0  6G18G16G11G 6G19G 2
  23025287.2864   12909777.17146  10059546.14961
  24390739.5524      83790.69745    552244.87961
  23328378.4584    -745754.61046   -581096.60861
  23707539.325    -4417289.625 5  -3316153.64621
  21446810.8494    2482745.10546   1934607.94663
  21924231.4354  -10195643.45247  -7944619.81562
 91  3 29 23  1 30.0010000  0  6G18G16G11G 6G19G 2
  23035494.599    12963412.098 6  10101339.46821
  24393269.560       97083.803 5    562603.06221
  23332713.739     -722969.741 6   -563342.18121
  23702415.856    -4444206.863 5  -3337128.00621
  21449882.0444    2498872.70546   1947174.89463
  21920766.005   -10213854.039 7  -7958809.83422
 91  3 29 23  1 45.0010000  0  6G18G16G11G 6G19G 2
  23045712.067    13017108.529 6  10143180.70721
  24395823.7864     110493.43045    573052.06561
  23337077.7244    -700040.46746   -545475.22861
  23697291.6774   -4471124.90345  -3358102.98561
  21452958.9744    2515058.39246   1959787.10763
  21917314.099   -10231992.505 7  -7972943.65222
 91  3 29 23  2  0.0010000  0  6G18G16G11G 6G19G 2
  23055942.239    13070865.223 6  10185068.90221
  24398395.567      124018.617 5    583591.09921
  23341467.942     -676967.860 6   -527496.58821
  23692170.888    -4498044.741 5  -3379079.36921
  21456052.5754    2531301.08346   1972443.73763
  21913875.817   -10250059.869 7  -7987022.06122
 91  3 29 23  2 15.0010000  0  6G18G16G11G 6G19G 2
  23066184.966    13124689.595 6  10227009.84421
  24400990.966      137666.748 5    594225.96021
  23345888.341     -653744.330 6   -509400.34921
  23687047.5994   -4524958.46645  -3400050.97361
  21459153.6534    2547608.85546   1985151.08263
  21910452.294   -10268048.324 7  -8001038.99222
 91  3 29 23  2 30.0010000  0  6G18G16G11G 6G19G 2
  23076438.8804   13178573.81646  10268997.41761
  24403613.3174     151430.19545    604950.65261
  23350333.114     -630377.775 6   -491192.66121
  23681927.364    -4551873.668 5  -3421023.74921
  21462267.075     2563974.182 6   1997903.27023
  21907043.544   -10285965.468 7  -8015000.35322
 91  3 29 23  2 45.0010000  0  6G18G16G11G 6G19G 2
  23086705.755    13232523.327 6  10311035.86321
  24406256.239      165314.500 5    615769.51721
  23354809.224     -606862.559 6   -472869.13221
  23676805.7784   -4578784.70745  -3441993.27761
  21465393.5834    2580402.71746   2010704.71763
  21903647.646   -10303805.564 7  -8028901.66922
 91  3 29 23  3  0.0010000  0  6G18G16G11G 6G19G 2
  23096983.130    13286536.031 6  10353123.54121
  24408915.6774     179317.45445    626680.85761
  23359311.396     -583200.537 6   -454431.21521
  23671685.5054   -4605693.32645  -3462960.92461
  21468531.8564    2596892.79946   2023554.12363
  21900268.192   -10321570.469 7  -8042744.40322
 91  3 29 23  3 15.0010000  0  6G18G16G11G 6G19G 2
  23107274.317    13340612.397 6  10395260.84021
  24411603.419      193439.658 5    637685.10521
  23363841.833     -559391.118 6   -435878.43921
  23666564.1924   -4632598.52345  -3483925.90761
  21471682.8104    2613445.38046   2036452.22963
  21896900.903   -10339259.368 7  -8056527.90822
 91  3 29 23  3 30.0010000  0  6G18G16G11G 6G19G 2
  23117576.560    13394752.533 6  10437447.82221
  24414313.044      207681.400 5    648782.48621
  23368400.942     -535434.142 6   -417210.68721
  23661445.8724   -4659500.20145  -3504888.12761
  21474845.8254    2630060.72646   2049399.23863
  21893550.052   -10356871.909 7  -8070251.92223
 91  3 29 23  3 45.0010000  0  6G18G16G11G 6G19G 2
  23127890.278    13448951.433 6  10479680.58521
  24417048.8334     222037.84045    659969.23461
  23372987.333     -511334.439 6   -398431.71922
  23656326.591    -4686402.948 5  -3525851.20021
  21478016.8724    2646734.37046   2062391.68063
  21890211.771   -10374412.884 7  -8083920.16922
 91  3 29 23  4  0.0010000  0  6G18G16G11G 6G19G 2
  23138215.8724   13503210.59546  10521960.32761
  24419801.411      236510.307 5    671246.40421
  23377601.833     -487090.718 6   -379540.52522
  23651207.013    -4713305.170 5  -3546813.86021
  21481202.5834    2663467.86046   2075430.75163
  21886887.794   -10391880.778 7  -8097531.46623
 91  3 29 23  4 15.0010000  0  6G18G16G11G 6G19G 2
  23148552.5284   13557531.16646  10564287.91061
  24422575.958      251100.038 5    682614.95121
  23382242.458     -462701.465 6   -360535.93522
  23646087.8964   -4740205.32045  -3567774.89361
  21484397.021     2680262.924 6   2088517.80023
  21883578.036   -10409274.012 7  -8111084.58422
 91  3 29 23  4 30.0010000  0  6G18G16G11G 6G19G 2
  23158900.880    13611910.127 6  10606660.98921
  24425374.606      265804.084 5    694072.57321
  23386908.880     -438169.520 6   -341420.15222
  23640968.403    -4767106.044 5  -3588736.39021
  21487602.4274    2697116.97947   2101650.81663
  21880281.263   -10426595.386 7  -8124581.70722
 91  3 29 23  4 45.0010000  0  6G18G16G11G 6G19G 2
  23169260.0674   13666349.54246  10649081.18461
  24428199.372      280624.758 5    705621.06121
  23391605.919     -413492.828 6   -322191.58522
  23635849.3414   -4794004.98845  -3609696.48561
  21490822.372     2714032.434 6   2114831.67823
  21876999.192   -10443842.601 7  -8138021.04923
 91  3 29 23  5  0.0010000  0  6G18G16G11G 6G19G 2
  23179628.646    13720832.427 6  10691535.24021
  24431037.599      295545.320 5    717247.39621
  23396326.677     -388688.022 6   -302863.18722
  23630728.1694   -4820918.51845  -3630667.94661
  21494052.942     2730992.819 6   2128047.54923
  21873727.880   -10461032.016 7  -8151415.34922
 91  3 29 23  5 15.0010000  0  6G18G16G11G 6G19G 2
  23190008.122    13775371.405 6  10734033.01221
  24433895.466      310578.539 5    728961.51721
  23401073.380     -363742.450 6   -283425.09921
  23625606.9424   -4847833.89345  -3651640.84661
  21497289.8334    2748011.00046   2141308.45863
  21870471.192   -10478150.798 7  -8164754.61222
 91  3 29 23  5 30.0010000  0  6G18G16G11G 6G19G 2
  23200394.6304   13829964.76546  10776573.14861
  24436780.208      325722.440 5    740761.88621
  23405845.864     -338657.721 6   -263878.57421
  23620483.458    -4874752.504 5  -3672616.27321
  21500536.685     2765085.660 6   2154613.37423
  21867226.833   -10495200.458 7  -8178040.01723
 91  3 29 23  5 45.0010000  0  6G18G16G11G 6G19G 2
  23210796.0754   13884617.12746  10819159.25961
  24439686.677      340981.833 5    752652.22921
  23410647.153     -313429.283 6   -244220.07721
  23615361.481    -4901669.749 5  -3693590.63721
  21503800.0364    2782221.61946   2167966.05563
  21863996.263   -10512176.470 7  -8191268.03422
 91  3 29 23  6  0.0010000  0  6G18G16G11G 6G19G 2
  23221206.911    13939330.163 6  10861792.65621
  24442610.7164     356358.54445    764634.02461
  23415476.747     -288055.229 6   -224448.11021
  23610240.099    -4928583.400 6  -3714562.20321
  21507071.4274    2799421.11046   2181368.25163
  21860780.419   -10529076.652 7  -8204436.95223
 91  3 29 23  6 15.0010000  0  6G18G16G11G 6G19G 2
  23231629.5754   13994096.90546  10904467.88761
  24445554.833      371845.199 5    776701.45921
  23420330.380     -262542.495 6   -204568.07721
  23605119.7784   -4955500.31246  -3735536.30261
  21510355.560     2816677.350 6   2194814.65723
  21857576.052   -10545907.971 7  -8217552.22123
 91  3 29 23  6 30.0010000  0  6G18G16G11G 6G19G 2
  23242061.646    14048916.842 6  10947184.57621
  24448520.9664     387441.68345    788854.50061
  23425211.458     -236891.625 6   -184580.41321
  23599995.380    -4982420.655 6  -3756513.07121
  21513653.091     2833990.058 6   2208305.06423
  21854387.271   -10562670.583 7  -8230613.94123
 91  3 29 23  6 45.0010000  0  6G18G16G11G 6G19G 2
  23252504.2314   14103792.39846  10989944.60761
  24451510.6064     403150.30945    801094.90861
  23430120.9974    -211099.97846   -164483.05461
  23594870.911    -5009341.680 6  -3777490.38621
  21516957.356     2851362.192 6   2221841.77623
  21851211.099   -10579361.646 7  -8243619.91223
 91  3 29 23  7  0.0010000  0  6G18G16G11G 6G19G 2
  23262957.239    14158724.974 6  11032749.06421
  24454522.271      418972.653 5    813423.92921
  23435053.8414    -185165.97146   -144274.76861
  23589750.7634   -5036261.64746  -3798466.85361
  21520273.302     2868795.603 6   2235426.23923
  21848049.349   -10595979.712 7  -8256569.01023
 91  3 29 23  7 15.0010000  0  6G18G16G11G 6G19G 2
  23273420.9814   14213712.15746  11075596.07261
  24457554.5604     434906.62645    825839.94161
  23440015.3564    -159091.85946   -123957.30561
  23584625.169    -5063182.553 6  -3819444.07421
  21523602.903     2886288.143 6   2249056.77223
  21844900.106   -10612526.932 7  -8269462.89723
 91  3 29 23  7 30.0010000  0  6G18G16G11G 6G19G 2
  23283895.5604   14268752.78446  11118484.72261
  24460605.427      450950.793 5    838341.81221
  23445005.1384    -132878.91646   -103531.66561
  23579504.5754   -5090105.41946  -3840422.81161
  21526942.638     2903839.070 6   2262732.80323
  21841764.333   -10629004.210 7  -8282302.29123
 91  3 29 23  7 45.0010000  0  6G18G16G11G 6G19G 2
  23294377.981    14323844.292 6  11161413.03321
  24463680.7244     467102.49945    850927.48461
  23450018.3104    -106529.70546    -82999.83961
  23574378.7944   -5117032.58046  -3861404.89361
  21530293.747     2921446.140 6   2276452.58123
  21838641.911   -10645413.989 7  -8295089.08223
 91  3 29 23  8  0.0010000  0  6G18G16G11G 6G19G 2
  23304872.646    14378987.413 6  11204381.55721
  24466775.4354     483362.86545    863597.82161
  23455058.9894     -80043.14346    -62360.99161
  23569254.411    -5143962.669 6  -3882389.27121
  21533654.013     2939110.655 6   2290217.11923
  21835531.200   -10661754.845 7  -8307822.17823
 91  3 29 23  8 15.0010000  0  6G18G16G11G 6G19G 2
  23315375.4194   14434182.51046  11247390.57661
  24469892.763      499732.572 5    876353.35321
  23460125.0994     -53418.59746    -41614.62961
  23564129.9744   -5170894.82946  -3903375.25161
  21537026.6774    2956833.54346   2304027.15463
  21832435.771   -10678026.252 7  -8320501.15323
 91  3 29 23  8 30.0010000  0  6G18G16G11G 6G19G 2
  23325889.810    14489432.505 6  11290442.38321
  24473032.4354     516214.23745    889196.14161
  23465219.200      -26653.295 6    -20758.56821
  23559004.1144   -5197826.16046  -3924360.58161
  21540409.919     2974617.689 6   2317884.91323
  21829353.435   -10694225.083 7  -8333123.57323
 91  3 29 23  8 45.0010000  0  6G18G16G11G 6G19G 2
  23336414.185    14544738.389 6  11333537.73821
  24476188.060      532808.744 5    902126.84621
  23470339.2944        253.54446       207.76561
  23553880.2554   -5224755.64546  -3945344.48161
  21543806.763     2992464.152 6   2331791.23423
  21826284.153   -10710350.428 7  -8345688.73623
 91  3 29 23  9  0.0010000  0  6G18G16G11G 6G19G 2
  23346948.630    14600097.338 6  11376674.43821
  24479363.544      549513.759 5    915143.66021
  23475485.317       27299.547 6     21282.54121
  23548756.1694   -5251685.40646  -3966328.59261
  21547215.2474    3010371.00346   2345744.61763
  21823228.560   -10726404.393 7  -8358198.27023
 91  3 29 23  9 15.0010000  0  6G18G16G11G 6G19G 2
  23357491.653    14655505.635 6  11419849.59721
  24482562.8724     566325.83245    928243.90461
  23480659.3494      54481.29846     42463.09861
  23543629.747    -5278618.711 6  -3987315.47621
  21550633.5754    3028334.89246   2359742.43363
  21820187.474   -10742390.468 7  -8370654.90823
 91  3 29 23  9 30.0010000  0  6G18G16G11G 6G19G 2
  23368047.489    14710966.476 6  11463065.69421
  24485788.1614     583247.72445    941429.71661
  23485857.3174      81801.81646     63751.78061
  23538503.442    -5305552.276 6  -4008302.55621
  21554062.6384    3046359.17646   2373787.32363
  21817159.247   -10758305.365 7  -8383056.08523
 91  3 29 23  9 45.0010000  0  6G18G16G11G 6G19G 2
  23378610.3104   14766480.88846  11506323.53861
  24489027.8724     600280.71245    954702.08461
  23491083.356      109262.417 6     85149.62521
  23533380.708    -5332484.585 6  -4029288.65221
  21557505.3414    3064445.48246   2387880.54863
  21814143.239   -10774147.621 7  -8395400.65622
 91  3 29 23 10  0.0010000  0  6G18G16G11G 6G19G 2
  23389184.911    14822044.137 6  11549619.43021
  24492285.692      617419.968 5    968057.27521
  23496335.2004     136858.24946    106652.84461
  23528252.442    -5359420.199 6  -4050277.33521
  21560956.7474    3082589.37246   2402018.62963
  21811141.8254  -10789921.88147  -8407692.24763
 91  3 29 23 10 15.0010000  0  6G18G16G11G 6G19G 2
  23399767.263    14877657.717 6  11592954.54521
  24495567.2084     634667.00045    981496.42261
  23501612.4894     164590.67646    128262.49061
  23523127.521    -5386357.445 6  -4071267.29421
  21564422.4974    3100792.35746   2416202.76463
  21808153.6924  -10805626.66547  -8419929.70563
 91  3 29 23 10 30.0010000  0  6G18G16G11G 6G19G 2
  23410360.341    14933323.403 6  11636330.26421
  24498873.2244     652023.65745    995021.00661
  23506914.8104     192461.82046    149980.23661
  23518001.8564   -5413294.11046  -4092256.78361
  21567897.2164    3119056.89846   2430434.86563
  21805178.8254  -10821259.62047  -8432111.18763
 91  3 29 23 10 45.0010000  0  6G18G16G11G 6G19G 2
  23420963.0674   14989041.79946  11679747.05261
  24502197.4974     669490.89245   1008631.76761
  23512246.2634     220472.64446    171806.81861
  23512876.7394   -5440228.93446  -4113244.85961
  21571384.5604    3137384.24046   2444715.89763
  21802217.677   -10836819.680 7  -8444235.86523
 91  3 29 23 11  0.0010000  0  6G18G16G11G 6G19G 2
  23431575.7244   15044813.18546  11723205.12661
  24505540.810      687068.935 5   1022328.86321
  23517603.5754     248623.12946    193742.22461
  23507750.528    -5467161.710 6  -4134231.33121
  21574884.0604    3155774.63846   2459046.07063
  21799270.810   -10852306.797 7  -8456303.70422
 91  3 29 23 11 15.0010000  0  6G18G16G11G 6G19G 2
  23442198.567    15100634.209 6  11766701.88621
  24508906.0214     704754.26445   1036109.53961
  23522985.5054     276910.08846    215783.96961
  23502626.2004   -5494095.44446  -4155218.55961
  21578395.4664    3174225.04746   2473423.01063
  21796337.794   -10867723.932 7  -8468317.01423
 91  3 29 23 11 30.0010000  0  6G18G16G11G 6G19G 2
  23452831.2634   15156507.34446  11810239.25261
  24512292.771      722549.787 5   1049976.09721
  23528394.9894     305335.99246    237933.99461
  23497499.825    -5521027.283 6  -4176204.29421
  21581916.9194    3192738.50846   2487849.07563
  21793416.927   -10883068.323 7  -8480273.63323
 91  3 29 23 11 45.0010000  0  6G18G16G11G 6G19G 2
  23463473.716    15212433.264 6  11853817.74621
  24515702.8964     740456.00145   1063928.89961
  23533831.1064     333901.83446    260193.05761
  23492376.0834   -5547956.12346  -4197187.71261
  21585454.3334    3211316.20646   2502325.19863
  21790510.9974  -10898338.89647  -8492172.74563
 91  3 29 23 12  0.0010000  0  6G18G16G11G 6G19G 2
  23474125.4744   15268411.50646  11897437.00761
  24519128.817      758472.437 5   1077967.60821
  23539293.7634     362607.24546    282560.86561
  23487250.9744   -5574881.97346  -4218168.79561
  21589001.5994    3229957.97946   2516851.24463
  21787619.6224  -10913535.70647  -8504014.37763
 91  3 29 23 12 15.0010000  0  6G18G16G11G 6G19G 2
  23484787.0364   15324437.65546  11941093.59961
  24522579.841      776594.818 5   1092088.85921
  23544780.9814     391447.71146    305033.91861
  23482129.1534   -5601809.29346  -4239151.03061
  21592560.0444    3248659.73546   2531424.03063
  21784740.763   -10928663.145 7  -8515801.94723
 91  3 29 23 12 30.0010000  0  6G18G16G11G 6G19G 2
  23495459.5364   15380518.74746  11984793.00361
  24526049.661      794829.897 5   1106297.91121
  23550297.3644     420430.42246    327617.80661
  23477004.6854   -5628730.48046  -4260128.48461
  21596131.1224    3267428.96946   2546049.40363
  21781876.8104  -10943713.77047  -8527529.66563
 91  3 29 23 12 45.0010000  0  6G18G16G11G 6G19G 2
  23506140.3564   15436647.45646  12028529.50861
  24529539.927      813170.618 5   1120589.31521
  23555837.4424     449547.96246    350306.75861
  23471881.622    -5655652.574 6  -4281106.63421
  21599714.6854    3286258.45846   2560721.72863
  21779025.8024  -10958695.06647  -8539203.36163
 91  3 29 23 13  0.0010000  0  6G18G16G11G 6G19G 2
  23516831.5444   15492825.91646  12072304.78661
  24533050.325      831619.076 5   1134964.64421
  23561404.9974     478802.39946    373102.38361
  23466757.966    -5682573.361 6  -4302083.78221
  21603309.3884    3305150.64046   2575442.89963
  21776188.231   -10973604.674 7  -8550821.19623
 91  3 29 23 13 15.0010000  0  6G18G16G11G 6G19G 2
  23527531.3644   15549056.76846  12116120.87561
  24536580.0674     850178.23945   1149426.25461
  23566998.6224     508196.70846    396006.99961
  23461636.7944   -5709489.67646  -4323057.44561
  21606917.7784    3324108.73446   2590215.43563
  21773365.7394  -10988439.37747  -8562380.66462
 91  3 29 23 13 30.0010000  0  6G18G16G11G 6G19G 2
  23538241.2944   15605338.24446  12159976.41861
  24540134.036      868846.533 5   1163972.88121
  23572619.286      537729.281 6    419019.34821
  23456516.0914   -5736402.78846  -4344028.60561
  21610540.9504    3343131.38246   2605038.27063
  21770557.333   -11003200.737 7  -8573882.97723
 91  3 29 23 13 45.0010000  0  6G18G16G11G 6G19G 2
  23548960.7554   15661666.26846  12203868.23461
  24543706.9894     887619.46245   1178601.06561
  23578263.8724     567395.94146    442136.18461
  23451394.2164   -5763316.68246  -4365000.37561
  21614169.0914    3362214.62246   2619908.32663
  21767761.411   -11017892.873 7  -8585331.34523
 91  3 29 23 14  0.0010000  0  6G18G16G11G 6G19G 2
  23559689.2394   15718045.54746  12247799.97861
  24547301.716      906502.061 5   1193314.69021
  23583935.231      597201.707 6    465361.41221
  23446272.1144   -5790225.95246  -4385968.54561
  21617813.8414    3381364.08646   2634829.97663
  21764979.3644  -11032510.22247  -8596721.44963
 91  3 29 23 14 15.0010000  0  6G18G16G11G 6G19G 2
  23570427.8644   15774474.18846  12291770.20561
  24550914.6774     925492.58645   1208112.39261
  23589634.130      627144.532 6    488693.44521
  23441152.1694   -5817132.41646  -4406934.53061
  21621469.0604    3400577.80946   2649801.69863
  21762211.802   -11047054.685 7  -8608054.75323
 91  3 29 23 14 30.0010000  0  6G18G16G11G 6G19G 2
  23581174.622    15830948.278 6  12335775.82221
  24554547.3964     944586.95645   1222991.02561
  23595356.333      657220.663 6    512129.34421
  23436031.9354   -5844039.81646  -4427901.24561
  21625138.6064    3419852.25046   2664820.73363
  21759457.208   -11061530.115 7  -8619334.26023
 91  3 29 23 14 45.0010000  0  6G18G16G11G 6G19G 2
  23591929.9424   15887468.73246  12379817.57961
  24558199.5674     963785.77645   1237951.02761
  23601106.1064     687430.89446    535669.74261
  23430911.669    -5870946.852 6  -4448867.66921
  21628816.1774    3439188.52546   2679887.95363
  21756715.325   -11075935.507 7  -8630559.19823
 91  3 29 23 15  0.0010000  0  6G18G16G11G 6G19G 2
  23602694.3964   15944037.46946  12423896.96161
  24561872.7164     983091.38545
  23606880.692      717777.479 6    559316.38321
  23425791.5524   -5897851.12446  -4469831.94361
  21632507.2634    3458589.29446
  21753988.177   -11090268.367 7  -8641727.61323
 91  3 29 23 15 15.0010000  0  5G18G11G 6G19G 2
  23613466.653    16000645.748 6  12468007.15021
  23612680.544      748251.774 6    583062.53821
  23420670.6224   -5924760.83446  -4490800.45461
  21636210.771     3478046.347 6   2710166.75223
  21751272.763   -11104537.125 7  -8652846.08423
 91  3 29 23 15 30.0010000  0  5G18G11G 6G19G 2
  23624249.2084   16057304.23046  12512156.45961
  23618505.099      778864.121 6    606916.27221
  23415552.4974   -5951665.32146  -4511764.88761
  21639926.208     3497570.289 6   2725380.19723
  21748571.786   -11118730.901 7  -8663906.12323
 91  3 29 23 15 45.0010000  0  5G18G11G 6G19G 2
  23635039.1384   16114004.36446  12556338.22761
  23624354.9114     809606.14846    630871.05861
  23410430.1774   -5978572.93246  -4532731.75461
  21643652.2084    3517152.88546   2740639.35263
  21745883.075   -11132858.206 7  -8674914.36823
 91  3 29 23 16  0.0010000  0  5G18G11G 6G19G 2
  23645837.224    16170751.716 6  12600556.77721
  23630230.880      840483.715 6    654931.45121
  23405312.231    -6005477.486 6  -4553696.24521
  21647392.591     3536800.353 6   2755949.05523
  21743208.302   -11146913.119 7  -8685866.19823
 91  3 29 23 16 15.0010000  0  5G18G11G 6G19G 2
  23656645.278    16227543.464 6  12644809.91921
  23636130.380      871493.941 6    679095.22421
  23400192.1694   -6032381.37046  -4574660.21461
  21651141.849     3556510.381 6   2771307.50223
  21740548.099   -11160898.100 7  -8696763.54623
 91  3 29 23 16 30.0010000  0  5G18G11G 6G19G 2
  23667460.638    16284380.190 6  12689098.10921
  23642058.505      902637.684 6    703363.02621
  23395072.771    -6059283.653 6  -4595622.92721
  21654907.364     3576283.982 6   2786715.48723
  21737899.716   -11174812.129 7  -8707605.60423
 91  3 29 23 16 45.0010000  0  5G18G11G 6G19G 2
  23678283.849    16341257.201 6  12733417.68621
  23648010.356      933910.031 6    727731.04821
  23389951.5604   -6086188.92046  -4616587.97461
  21658678.224     3596116.428 6   2802169.32323
  21735264.661   -11188659.989 7  -8718396.09623
 91  3 29 23 17  0.0010000  0  5G18G11G 6G19G 2
  23689114.653    16398174.251 6  12777768.47121
  23653984.130      965310.807 6    752199.13121
  23384831.583    -6113096.950 6  -4637555.17421
  21662462.700     3616007.894 6   2817669.14923
  21732641.919   -11202441.642 7  -8729135.00223
 91  3 29 23 17 15.0010000  0  5G18G11G 6G19G 2
  23699953.864    16455135.135 6  12822153.39821
  23659986.169      996843.950 6    776770.37021
  23379711.255    -6140003.576 6  -4658521.27421
  21666262.083     3635962.727 6   2833218.35323
  21730032.0674  -11216153.04447  -8739819.17163
 91  3 29 23 17 30.0010000  0  5G18G11G 6G19G 2
  23710802.825    16512141.627 6  12866573.87521
  23666011.950     1028511.452 6    801446.29921
  23374592.2474   -6166906.63246  -4679484.60161
  21670074.427     3655983.378 6   2848818.83923
  21727436.9894  -11229791.90147  -8750446.81363
 91  3 29 23 17 45.0010000  0  5G18G11G 6G19G 2
  23721659.278    16569191.331 6  12911028.01521
  23672062.239     1060310.731 6    826224.91921
  23369472.685    -6193808.225 6  -4700446.77621
  21673893.388     3676067.510 6   2864468.79423
  21724854.9034  -11243360.65247  -8761019.82763
 91  3 29 23 18  0.0010000  0  5G18G11G 6G19G 2
  23732523.4274   16626282.87746  12955514.75461
  23678139.052     1092240.334 6    851105.08521
  23364352.0444   -6220709.51246  -4721408.72461
  21677725.731     3696214.002 6   2880167.34623
  21722286.435   -11256860.420 7  -8771539.08523
 91  3 29 23 18 15.0010000  0  5G18G11G 6G19G 2
  23743395.708    16683417.734 6  13000035.25521
  23684240.356     1124301.783 6    876087.98721
  23359235.091    -6247608.835 6  -4742369.14621
  21681572.739     3716424.522 6   2895915.78523
  21719730.325   -11270289.626 7  -8782003.36023
 91  3 29 23 18 30.0010000  0  5G18G11G 6G19G 2
  23754276.013    16740599.299 6  13044592.15321
  23690367.489     1156498.724 6    901176.46621
  23354117.0214   -6274502.21746  -4763324.93061
  21685431.606     3736703.058 6   2911717.22423
  21717188.7784  -11283644.58047  -8792409.78363
 91  3 29 23 18 45.0010000  0  5G18G11G 6G19G 2
  23765166.5214   16797822.91846  13089181.81061
  23696518.169     1188826.526 6    926366.91621
  23348999.9504   -6301394.01646  -4784279.47861
  21689302.685     3757045.324 6   2927568.32623
  21714660.6854  -11296929.61147  -8802761.71963
 91  3 29 23 19  0.0010000  0  5G18G11G 6G19G 2
  23776064.317    16855090.422 6  13133805.67721
  23702695.841     1221286.987 6    951660.73321
  23343883.2004   -6328282.01146  -4805231.06461
  21693188.825     3777453.388 6   2943470.70023
  21712146.7784  -11310142.68647  -8813057.58363
 91  3 29 23 19 15.0010000  0  5G18G11G 6G19G 2
  23786969.208    16912395.005 6  13178458.42721
  23708897.614     1253873.527 6    977052.80121
  23338764.528    -6355172.564 6  -4826184.64121
  21697081.099     3797920.942 6   2959419.42223
  21709643.9894  -11323290.19347  -8823302.35463
 91  3 29 23 19 30.0010000  0  5G18G11G 6G19G 2
  23797881.325    16969741.190 6  13223143.60221
  23715123.255     1286590.587 6   1002546.55921
  23333648.7864   -6382060.93346  -4847136.51861
  21700988.021     3818452.980 6   2975418.39723
  21707156.5994  -11336367.51247  -8833492.43763
 91  3 29 23 19 45.0010000  0  5G18G11G 6G19G 2
  23808801.778    17027131.131 6  13267862.86221
  23721374.356     1319440.369 6   1028143.74521
  23328532.2554   -6408944.43846  -4868084.61461
  21704908.435     3839052.101 6   2991469.64723
  21704681.0834  -11349372.10947  -8843625.84963
 91  3 29 23 20  0.0010000  0  5G18G11G 6G19G 2
  23819732.0754   17084563.47946  13312615.16061
  23727650.724     1352421.573 6   1053843.33421
  23323417.4424   -6435824.16946  -4889029.75561
  21708840.778     3859717.259 6   3007572.35423
  21702220.0054  -11362305.05847  -8853703.43463
 91  3 29 23 20 15.0010000  0  5G18G11G 6G19G 2
  23830669.388    17142036.040 6  13357398.80121
  23733949.981     1385532.013 6   1079643.62321
  23318304.1854   -6462702.20146  -4909973.58361
  21712786.497     3880446.478 6   3023724.97823
  21699772.4744  -11375168.46747  -8863726.83663
 91  3 29 23 20 30.0010000  0  5G18G11G 6G19G 2
  23841614.1384   17199548.41746  13402213.47161
  23740274.6224    1418771.52646   1105544.50761
  23313188.5054   -6489578.07646  -4930915.72261
  21716741.708     3901240.101 6   3039927.78423
  21697337.2394  -11387962.27047  -8873695.99863
 91  3 29 23 20 45.0010000  0  5G18G11G 6G19G 2
  23852564.6304   17257100.16946  13447058.80461
  23746624.958     1452139.484 6   1131545.46921
  23308076.0834   -6516452.37546  -4951856.64661
  21720711.1464    3922097.53746   3056180.32263
  21694915.6224  -11400687.01747  -8883611.35163
 91  3 29 23 21  0.0010000  0  5G18G11G 6G19G 2
  23863523.5914   17314688.99146  13491933.03061
  23752999.294     1485633.733 6   1157644.84221
  23302959.786    -6543326.835 6  -4972797.68521
  21724691.2474    3943017.12046   3072481.28563
  21692507.5674  -11413344.52547  -8893474.31063
 91  3 29 23 21 15.0010000  0  5G18G11G 6G19G 2
  23874488.7714   17372312.96146  13536834.65861
  23759395.614     1519252.643 6   1183841.34621
  23297845.5364   -6570202.81146  -4993739.90761
  21728684.872     3963997.494 6   3088829.61523
  21690111.5524  -11425936.28847  -8903286.03863
 91  3 29 23 21 30.0010000  0  5G18G11G 6G19G 2
  23885463.1774   17429975.46446  13581766.29261
  23765817.817     1552999.120 6   1210137.25821
  23292732.028    -6597077.013 6  -5014680.74121
  21732687.771     3985042.009 6   3105227.92023
  21687728.4974  -11438459.13247  -8913044.06263
 91  3 29 23 21 45.0010000  0  5G18G11G 6G19G 2
  23896443.1384   17487676.68946  13626728.10761
  23772264.2394    1586873.66346   1236532.96261
  23287618.396    -6623948.748 6  -5035619.65821
  21736706.872     4006151.344 6   3121676.73523
  21685357.9974  -11450912.32947  -8922747.81163
 91  3 29 23 22  0.0010000  0  5G18G11G 6G19G 2
  23907430.4894   17545413.11646  13671717.34861
  23778735.013     1620872.552 6   1263025.56121
  23282504.614    -6650821.035 6  -5056558.99521
  21740733.599     4027322.310 6   3138173.57823
  21683000.7944  -11463299.31747  -8932399.97663
 91  3 29 23 22 15.0010000  0  5G18G11G 6G19G 2
  23918424.919    17603189.064 6  13716737.37821
  23785229.083     1654999.948 6   1289618.29121
  23277391.2394   -6677689.75446  -5077495.56161
  21744775.583     4048559.354 6   3154721.90823
  21680658.7864  -11475615.67247  -8941997.10063
 91  3 29 23 22 30.0010000  0  5G18G11G 6G19G 2
  23929427.0834   17661004.88246  13761788.49361
  23791748.247     1689257.011 6   1316312.06021
  23272277.927    -6704553.318 6  -5098428.09821
  21748829.419     4069863.900 6   3171322.83723
  21678327.8804  -11487860.14947  -8951538.20963
 91  3 29 23 22 45.0010000  0  5G18G11G 6G19G 2
  23940436.3334   17718864.03346  13806873.36061
  23798292.9354    1723647.04946   1343109.45061
  23267170.200    -6731408.135 6  -5119353.83221
  21752898.5054    4091239.48346   3187979.12563
  21676011.013   -11500029.382 7  -8961020.68823
 91  3 29 23 23  0.0010000  0  5G18G11G 6G19G 2
  23951454.122    17776763.372 6  13851989.55721
  23804860.8804    1758166.69046   1370007.83561
  23262059.841    -6758257.206 6  -5140275.08221
  21756979.028     4112683.147 6   3204688.45823
  21673710.3334  -11512126.40347  -8970446.89963
 91  3 29 23 23 15.0010000  0  5G18G11G 6G19G 2
  23962480.4894   17834701.47446  13897135.95661
  23811454.3414    1792814.69546   1397006.23561
  23256952.0214   -6785101.56546  -5161192.66361
  21761072.044     4134194.179 6   3221450.28623
  21671421.6144  -11524152.26447  -8979817.66263
 91  3 29 23 23 30.0010000  0  5G18G11G 6G19G 2
  23973512.9034   17892678.43746  13942312.63261
  23818072.950     1827591.208 6   1424104.77921
  23251842.864    -6811940.605 6  -5182106.09821
  21765176.981     4155772.910 6   3238264.86023
  21669146.731   -11536106.516 7  -8989132.62523
 91  3 29 23 23 45.0010000  0  5G18G11G 6G19G 2
  23984553.5994   17950693.88946  13987519.30761
  23824713.544     1862495.907 6   1451303.19521
  23246737.622    -6838774.250 6  -5203015.33621
  21769297.653     4177419.330 6   3255132.18523
  21666884.9894  -11547989.31047  -8998391.90163
 91  3 29 23 24  0.0010000  0  5G18G11G 6G19G 2
  23995601.263    18008748.662 6  14032756.62321
  23831380.622     1897529.334 6   1478601.92121
  23241632.5914   -6865601.60746  -5223919.67661
  21773429.2634    4199134.45446   3272053.05263
  21664637.3414  -11559799.79747  -9007594.84363
 91  3 29 23 24 15.0010000  0  5G18G11G 6G19G 2
  24006656.419    18066841.879 6  14078023.89021
  23838072.4504    1932690.88446   1506000.47761
  23236528.0604   -6892423.05346  -5244819.39361
  21777574.606     4220918.082 6   3289027.29123
  21662403.685   -11571538.378 7  -9016741.74923
 91  3 29 23 24 30.0010000  0  5G18G11G 6G19G 2
  24017717.9354   18124973.65545  14123321.18961
  23844788.169     1967980.805 6   1533499.06921
  23231427.896    -6919238.025 6  -5265714.07621
  21781731.974     4242770.673 6   3306055.26923
  21660183.4274  -11583204.91447  -9025832.51963
 91  3 29 23 24 45.0010000  0  5G18G11G 6G19G 2
  24028786.700    18183142.371 5  14168647.28921
  23851526.153     2003397.230 6   1561096.22821
  23226324.083    -6946048.068 6  -5286604.93921
  21785904.677     4264690.393 6   3323135.55823
  21657977.3024  -11594800.76447  -9034868.21363
 91  3 29 23 25  0.0010000  0  5G18G11G 6G19G 2
  24039863.7164   18241346.28545  14214000.80861
  23858289.849     2038938.470 6   1588790.64621
  23221223.4194   -6972854.51646  -5307492.95761
  21790087.786     4286676.141 6   3340267.29023
  21655782.9894  -11606327.58947  -9043850.11763
 91  3 29 23 25 15.0010000  0  5G18G11G 6G19G 2
  24050944.849    18299584.406 5  14259380.96521
  23865077.3644    2074603.47346   1616581.50161
  23216121.364    -6999658.110 6  -5328378.76521
  21794285.349     4308727.396 6   3357450.06723
  21653602.9424  -11617786.09947  -9052778.79063
 91  3 29 23 25 30.0010000  0  5G18G11G 6G19G 2
  24062036.3964   18357857.20345  14304788.14961
  23871887.2554    2110392.98746   1644469.37861
  23211024.5134   -7026457.54746  -5349261.35161
  21798491.583     4330845.094 6   3374684.61923
  21651435.7944  -11629175.39647  -9061653.53363
 91  3 29 23 25 45.0010000  0  5G18G11G 6G19G 2
  24073133.6064   18416167.10645  14350224.24461
  23878723.044     2146309.437 6   1672456.17321
  23205924.8024   -7053250.28146  -5370138.71461
  21802714.950     4353032.057 6   3391973.14223
  21649282.4744  -11640492.65247  -9070472.14263
 91  3 29 23 26  0.0010000  0  5G18G11G 6G19G 2
  24084233.2084   18474510.18845  14395686.18461
  23885580.403     2182348.702 6   1700538.66021
  23200824.9354   -7080039.97646  -5391013.70761
  21806952.747     4375284.562 6   3409312.73823
  21647140.8964  -11651741.75647  -9079237.64363
 91  3 29 23 26 15.0010000  0  5G18G11G 6G19G 2
  24095342.481    18532887.857 5  14441175.08521
  23892462.286     2218512.377 6   1728718.10221
  23195728.8414   -7106824.61646  -5411884.77061
  21811196.817     4397604.535 6   3426704.90823
  21645014.4354  -11662921.03347  -9087948.73663
 91  3 29 23 26 30.0010000  0  5G18G11G 6G19G 2
  24106457.638    18591299.659 5  14486690.58321
  23899367.005     2254800.115 6   1756994.20821
  23190634.099    -7133604.386 6  -5432752.02221
  21815458.372     4419991.817 6   3444149.52423
  21642900.7784  -11674030.72247  -9096605.60163
 91  3 29 23 26 45.0010000  0  5G18G11G 6G19G 2
  24117579.622    18649743.608 5  14532231.12621
  23906295.5444    2291209.97146   1785365.46661
  23185537.591    -7160380.738 6  -5453616.61021
  21819730.231     4442444.767 6   3461645.31023
  21640798.2554  -11685072.49047  -9105209.54363
 91  3 29 23 27  0.0010000  0  5G18G11G 6G19G 2
  24128708.005    18708219.845 6  14577796.83621
  23913247.2944    2327742.04846   1813831.96061
  23180441.661    -7187153.293 6  -5474478.23421
  21824016.591     4464963.972 6   3479192.72523
  21638710.6144  -11696046.06347  -9113760.34263
 91  3 29 23 27 15.0010000  0  5G18G11G 6G19G 2
  24139842.0134   18766728.29546  14623387.64061
  23920223.5834    2364396.25546   1842393.61661
  23175347.7714   -7213921.60346  -5495336.56461
  21828313.896     4487549.810 6   3496792.06423
  21636635.9034  -11706951.12947  -9122257.76063
 91  3 29 23 27 30.0010000  0  5G18G11G 6G19G 2
  24150981.7244   18825273.40146  14669007.01761
  23927223.2944    2401176.89546   1871053.79761
  23170257.364    -7240681.175 6  -5516188.07121
  21832623.185     4510206.780 6   3514446.82323
  21634575.0914  -11717783.31647  -9130698.39163
 91  3 29 23 27 45.0010000  0  5G18G11G 6G19G 2
  24162130.2554   18883853.66946  14714653.80161
  23934245.3494    2438082.68546   1899811.49461
  23165165.8334   -7267432.92446  -5537033.50361
  21836949.739     4532933.884 6   3532156.23723
  21632526.1534  -11728543.61547  -9139083.00163
 91  3 29 23 28  0.0010000  0  5G18G11G 6G19G 2
  24173284.653    18942468.154 5  14760327.23521
  23941292.356     2475112.385 6   1928665.74921
  23160076.3024   -7294177.73546  -5557873.51661
  21841286.896     4555730.358 6   3549919.70023
  21630492.2314  -11739232.89947  -9147412.28063
 91  3 29 23 28 15.0010000  0  5G18G11G 6G19G 2
  24184444.3804   19001114.30545  14806025.34461
  23948361.3724    2512263.89046   1957614.92361
  23154987.9584   -7320917.36246  -5578709.48661
  21845638.536     4578594.303 6   3567735.74623
  21628470.8644  -11749853.22647  -9155687.82263
 91  3 29 23 28 30.0010000  0  5G18G11G 6G19G 2
  24195611.4894   19059793.55145  14851749.24461
  23955454.755     2549538.664 6   1986660.14321
  23149901.4274   -7347649.92346  -5599539.96561
  21850003.442     4601527.649 6   3585605.86723
  21626463.5284  -11760402.66247  -9163908.12963
 91  3 29 23 28 45.0010000  0  5G18G11G 6G19G 2
  24206784.1144   19118502.26845  14897496.12161
  23962571.185     2586932.817 6   2015798.39921
  23144814.3804   -7374378.92946  -5620367.67261
  21854379.325     4624526.971 6   3603527.39823
  21624469.0834  -11770884.89347  -9172076.06663
 91  3 29 23 29  0.0010000  0  5G18G11G 6G19G 2
  24217960.888    19177240.333 5  14943265.85021
  23969709.536     2624446.294 6   2045029.63321
  23139727.255    -7401104.071 6  -5641192.34921
  21858771.810     4647592.502 6   3621500.52223
  21622486.6384  -11781299.87247  -9180191.60463
 91  3 29 23 29 15.0010000  0  5G18G11G 6G19G 2
  24229142.6854   19236006.68045  14989057.61861
  23976871.263     2662078.006 6   2074352.99721
  23134642.7864   -7427826.12346  -5662014.63761
  21863170.646     4670723.519 6   3639524.67223
  21620517.1694  -11791648.62847  -9188255.53663
 91  3 29 23 29 30.0010000  0  5G18G11G 6G19G 2
  24240332.7714   19294803.54945  15034873.17361
  23984055.216     2699830.226 6   2103770.25921
  23129558.8254   -7454542.52546  -5682832.51861
  21867582.622     4693922.471 6   3657601.75723
  21618562.2394  -11801928.76347  -9196265.99863
 91  3 29 23 29 45.0010000  0  5G18G11G 6G19G 2
  24251526.3104   19353626.28845  15080708.88661
  23991260.669     2737698.249 6   2133277.76121
  23124475.2084   -7481257.48246  -5703649.27961
  21872011.403     4717185.307 6   3675728.62223
  21616617.7784  -11812144.37447  -9204226.18463
 91  3 29 23 30  0.0010000  0  5G18G11G 6G19G 2
  24262724.442    19412476.040 5  15126565.64021
  23998489.130     2775683.158 6   2162876.33321
  23119391.6924   -7507969.40646  -5724463.67161
  21876452.028     4740513.397 6   3693906.32923
  21614684.7394  -11822294.10447  -9212135.03263
 91  3 29 23 30 15.0010000  0  5G18G11G 6G19G 2
  24273929.2004   19471354.48045  15172444.73261
  24005740.692     2813786.713 6   2192567.36221
  23114310.833    -7534676.318 6  -5745274.16421
  21880902.903     4763908.713 6   3712136.42723
  21612767.052   -11832376.171 7  -9219991.16323
 91  3 29 23 30 30.0010000  0  5G18G11G 6G19G 2
  24285139.3964   19530260.73445  15218345.53161
  24013013.364     2852008.155 6   2222350.25921
  23109229.4194   -7561378.57446  -5766081.03061
  21885366.466     4787370.999 6   3730418.70723
  21610861.2784  -11842391.05847  -9227794.94263
 91  3 29 23 30 45.0010000  0  5G18G11G 6G19G 2
  24296352.4894   19589193.39145  15264266.90561
  24020309.278     2890345.943 6   2252223.81021
  23104148.419    -7588077.463 6  -5786885.27421
  21889845.302     4810898.977 6   3748752.17023
  21608968.0604  -11852340.12147  -9235547.43263
 91  3 29 23 31  0.0010000  0  5G18G11G 6G19G 2
  24307572.919    19648156.175 5  15310211.73021
  24027627.0444    2928803.95746   2282191.03661
  23099069.028    -7614768.538 6  -5807683.43421
  21894334.442     4834496.818 6   3767140.07323
  21607088.5364  -11862219.33247  -9243245.49263
 91  3 29 23 31 15.0010000  0  5G18G11G 6G19G 2
  24318798.1924   19707142.78645  15356175.12761
  24034967.8024    2967375.74446   2312246.92261
  23093989.9504   -7641458.00546  -5828480.32961
  21898838.646     4858158.523 6   3785577.74223
  21605220.724   -11872034.640 7  -9250893.75923
 91  3 29 23 31 30.0010000  0  5G18G11G 6G19G 2
  24330028.091    19766155.275 5  15402158.69321
  24042329.0364    3006063.43946   2342393.11061
  23088911.708    -7668143.242 6  -5849273.93521
  21903354.356     4881886.620 6   3804067.14823
  21603365.3104  -11881783.76647  -9258490.45163
 91  3 29 23 31 45.0010000  0  5G18G11G 6G19G 2
  24341262.255    19825192.842 5  15448161.78721
  24049712.6304    3044866.23846   2372629.00261
  23083833.052    -7694824.739 6  -5870064.62421
  21907880.880     4905680.720 6   3822607.97723
  21601522.286   -11891467.436 7  -9266036.14323
 91  3 29 23 32  0.0010000  0  5G18G11G 6G19G 2
  24352502.435    19884255.215 5  15494184.21521
  24057119.302     3083784.078 6   2402954.54121
  23078757.786    -7721502.152 6  -5890852.14021
  21912420.966     4929540.917 6   3841200.31323
  21599691.739   -11901085.525 7  -9273530.73023
 91  3 29 23 32 15.0010000  0  5G18G11G 6G19G 2
  24363747.3804   19943342.78945  15540226.28161
  24064546.1854    3122817.22446   2433369.91661
  23073682.7474   -7748174.87346  -5911635.99161
  21916974.724     4953467.920 6   3859844.71223
  21597874.1614  -11910637.38147  -9280973.70863
 91  3 29 23 32 30.0010000  0  5G18G11G 6G19G 2
  24374996.5214   20002451.24645  15586284.61861
  24071995.1694    3161961.08246   2463871.55961
  23068606.622    -7774846.961 6  -5932419.35221
  21921539.177     4977457.575 6   3878537.92723
  21596068.1534  -11920127.24647  -9288368.38263
 91  3 29 23 32 45.0010000  0  5G18G11G 6G19G 2
  24386247.2554   20061582.16245  15632360.43961
  24079465.5364    3201217.27146   2494460.74061
  23063531.239    -7801516.467 6  -5953200.70221
  21926118.2554    5001511.82946   3897281.47363
  21594274.3644  -11929553.33547  -9295713.35763
 91  3 29 23 33  0.0010000  0  5G18G11G 6G19G 2
  24397503.0914   20120732.17645  15678451.16061
  24086956.7634    3240582.56446   2525134.93561
  23058455.091    -7828186.283 6  -5973982.30521
  21930705.817     5025627.824 6   3916073.13223
  21592492.7004  -11938918.83447  -9303011.12063
 91  3 29 23 33 15.0010000  0  5G18G11G 6G19G 2
  24408762.9274   20179907.88245  15724561.88061
  24094470.2944    3280063.66546   2555899.36461
  23053382.278    -7854849.263 6  -5994758.57021
  21935309.583     5049812.669 6   3934918.44023
  21590724.177   -11948216.697 7  -9310256.18323
 91  3 29 23 33 30.0010000  0  5G18G11G 6G19G 2
  24420028.763    20239108.626 5  15770692.12521
  24102005.4424    3319659.64146   2586753.30761
  23048310.302    -7881505.932 6  -6015529.92221
  21939922.630     5074065.588 6   3953816.80023
  21588966.7714  -11957447.56747  -9317449.04163
 91  3 29 23 33 45.0010000  0  5G18G11G 6G19G 2
  24431299.349    20298332.211 5  15816840.17621
  24109560.9504    3359368.57946   2617695.26261
  23043237.060    -7908157.792 6  -6036297.53021
  21944552.872     5098385.308 6   3972767.20523
  21587222.5834  -11966613.13547  -9324591.01463
 91  3 29 23 34  0.0010000  0  5G18G11G 6G19G 2
  24442574.3174   20357582.23145  15863008.80561
  24117139.6694    3399193.90346   2648727.91761
  23038167.146    -7934800.992 6  -6057058.39021
  21949193.677     5122775.738 6   3991772.71523
  21585491.7944  -11975709.61247  -9331679.15263
 91  3 29 23 34 15.0010000  0  5G18G11G 6G19G 2
  24453855.208    20416860.208 5  15909199.23821
  24124740.8174    3439137.12146   2679852.44361
  23033099.9584   -7961433.55546  -6077810.96461
  21953848.356     5147238.650 6   4010834.70223
  21583773.5364  -11984735.19647  -9338712.04963
 91  3 29 23 34 30.0010000  0  5G18G11G 6G19G 2
  24465139.278    20476156.667 5  15955404.04221
  24132363.3724    3479188.66946   2711061.37361
  23028032.872    -7988064.805 6  -6098562.51021
  21958514.380     5171764.657 6   4029945.85023
  21582068.1304  -11993699.38547  -9345697.09963
 91  3 29 23 34 45.0010000  0  5G18G11G 6G19G 2
  24476427.9034   20535477.19045  16001627.61861
  24140005.7714    3519354.35146   2742359.24861
  23022965.6304   -8014688.50446  -6119308.18261
  21963196.708     5196359.978 6   4049111.01323
  21580374.9354  -12002596.15347  -9352629.61563
 91  3 29 23 35  0.0010000  0  5G18G11G 6G19G 2
  24487720.185    20594817.856 5  16047866.88121
  24147669.4664    3559630.13146   2773742.91861
  23017899.786    -8041308.392 6  -6140050.87521
  21967887.302     5221020.874 6   4068327.27323
  21578694.5284  -12011429.42747  -9359512.65663
 91  3 29 23 35 15.0010000  0  5G18G11G 6G19G 2
  24499016.700    20654178.754 5  16094121.93321
  24155356.075     3600016.115 6   2805212.45221
  23012835.466    -8067923.889 6  -6160790.14621
  21972594.356     5245747.655 6   4087594.87223
  21577025.3644  -12020198.71947  -9366345.84463
 91  3 29 23 35 30.0010000  0  5G18G11G 6G19G 2
  24510316.247    20713559.029 5  16140392.07021
  24163061.0604    3640511.38446   2836767.14761
  23007771.0444   -8094535.55946  -6181526.44161
  21977311.700     5270540.000 6   4106913.55423
  21575368.653   -12028904.638 8  -9373129.65123
 91  3 29 23 35 45.0010000  0  5G18G11G 6G19G 2
  24521618.747    20772955.624 5  16186674.89521
  24170788.411     3681113.025 6   2868404.71321
  23002706.810    -8121145.828 6  -6202261.64021
  21982043.255     5295395.428 6   4126281.40323
  21573723.4274  -12037549.94048  -9379866.22263
 91  3 29 23 36  0.0010000  0  5G18G11G 6G19G 2
  24532926.255    20832373.006 5  16232973.95621
  24178534.4504    3721825.24346   2900128.45661
  22997644.380    -8147749.922 6  -6222992.02621
  21986783.552     5320318.505 6   4145701.96223
  21572091.661   -12046130.024 8  -9386551.97723
 91  3 29 23 36 15.0010000  0  5G18G11G 6G19G 2
  24544238.489    20891815.028 5  16279292.20621
  24186304.880     3762651.922 6   2931941.39821
  22992583.817    -8174343.626 6  -6243714.31421
  21991541.521     5345313.574 6   4165178.62223
  21570470.185   -12054640.816 7  -9393183.73923
 91  3 29 23 36 30.0010000  0  5G18G11G 6G19G 2
  24555552.810    20951274.637 5  16325624.13621
  24194094.356     3803586.020 6   2963838.02221
  22987523.864    -8200933.534 6  -6264433.63721
  21996308.497     5370374.050 6   4184706.24323
  21568863.7554  -12063088.92047  -9399766.64763
 91  3 29 23 36 45.0010000  0  5G18G11G 6G19G 2
  24566873.5134   21010756.42145  16371973.37461
  24201904.3724    3844632.06146   2995821.88961
  22982466.263    -8227514.821 6  -6285146.25421
  22001092.864     5395504.545 6   4204288.43223
  21567268.6924  -12071469.67947  -9406297.08163
 91  3 29 23 37  0.0010000  0  5G18G11G 6G19G 2
  24578194.7004   21070258.62745  16418338.52261
  24209736.060     3885788.237 6   3027891.58021
  22977408.138    -8254088.684 6  -6305853.08621
  22005886.888     5420703.844 6   4223924.22723
  21565686.8334  -12079784.84847  -9412776.40563
 91  3 29 23 37 15.0010000  0  5G18G11G 6G19G 2
  24589523.3174   21129784.59345  16464722.16761
  24217590.224     3927058.158 6   3060049.88921
  22972353.731    -8280651.468 6  -6326551.29021
  22010697.271     5445975.627 6   4243616.50423
  21564118.0674  -12088030.65747  -9419201.67963
 91  3 29 23 37 30.0010000  0  5G18G11G 6G19G 2
  24600856.052    21189332.612 5  16511123.00021
  24225464.8884    3968439.90146   3092295.34461
  22967302.286    -8307204.429 6  -6347241.82921
  22015518.278     5471318.461 6   4263364.13923
  21562561.6534  -12096208.53447  -9425574.02463
 91  3 29 23 37 45.0010000  0  5G18G11G 6G19G 2
  24612188.966    21248897.375 5  16557536.87521
  24233359.9664    4009928.02746   3124623.68961
  22962248.771    -8333752.556 6  -6367928.60721
  22020354.724     5496727.336 6   4283163.24223
  21561016.528   -12104323.649 7  -9431897.46523
 91  3 29 23 38  0.0010000  0  5G18G11G 6G19G 2
  24623529.6144   21308484.48545  16603968.15861
  24241275.7864    4051528.15846   3157039.31061
  22957198.9354   -8360289.79646  -6388606.90761
  22025202.1304    5522208.34146   4303018.54863
  21559485.677   -12112370.155 7  -9438167.44523
 91  3 29 23 38 15.0010000  0  5G18G11G 6G19G 2
  24634870.6854   21368087.70845  16650411.99461
  24249212.8174    4093234.26546   3189537.50661
  22952150.474    -8386821.806 6  -6409281.12621
  22030065.513     5547755.840 6   4322925.66523
  21557966.903   -12120353.958 7  -9444388.56523
 91  3 29 23 38 30.0010000  0  5G18G11G 6G19G 2
  24646215.974    21427714.394 5  16696874.10721
  24257170.9744    4135053.50946   3222123.86161
  22947102.997    -8413341.111 6  -6429945.44321
  22034942.724     5573377.211 6   4342890.34523
  21556460.614   -12128267.606 7  -9450555.02223
 91  3 29 23 38 45.0010000  0  5G18G11G 6G19G 2
  24657568.075    21487363.001 5  16743353.30921
  24265149.7714    4176984.41946   3254797.24561
  22942058.349    -8439848.639 6  -6450600.58821
  22039829.3724    5599071.34246   4362911.71963
  21554967.810   -12136112.284 7  -9456667.73223
 91  3 29 23 39  0.0010000  0  5G18G11G 6G19G 2
  24668921.333    21547023.297 5  16789841.62921
  24273148.0134    4219016.73746   3287549.63461
  22937015.200    -8466354.235 6  -6471254.21721
  22044733.942     5624828.299 6   4382982.05023
  21553485.513   -12143898.134 7  -9462734.60423
 91  3 29 23 39 15.0010000  0  5G18G11G 6G19G 2
  24680277.6384   21606698.48345  16836341.53261
  24281167.4034    4261153.62146   3320383.50461
  22931971.817    -8492854.416 6  -6491903.63021
  22049645.411     5650651.707 6   4403104.16223
  21552015.716   -12151621.699 7  -9468752.94423
 91  3 29 23 39 30.0010000  0  5G18G11G 6G19G 2
  24691637.5754   21666391.89445  16882855.63661
  24289206.2004    4303398.36346   3353301.41461
  22926931.974    -8519345.291 6  -6512545.79821
  22054573.481     5676545.196 6   4423280.88223
  21550559.036   -12159279.518 7  -9474720.05023
 91  3 29 23 39 45.0010000  0  5G18G11G 6G19G 2
  24702998.606    21726103.066 5  16929383.56921
  24297264.4744    4345750.34946   3386302.88961
  22921891.505    -8545827.040 6  -6533180.84621
  22059513.747     5702508.730 6   4443512.18722
  21549114.724   -12166871.634 7  -9480635.96123
 91  3 29 23 40  0.0010000  0  5G18G11G 6G19G 2
  24714365.036    21785829.818 5  16975923.66821
  24305343.6464    4388207.43546   3419386.26361
  22916853.091    -8572301.502 6  -6553810.22121
  22064465.583     5728540.265 6   4463796.47323
  21547681.317   -12174400.079 7  -9486502.25823
 91  3 29 23 40 15.0010000  0  5G18G11G 6G19G 2
  24725735.5134   21845570.03345  17022474.23661
  24313442.481     4430767.613 6   3452549.96521
  22911817.771    -8598770.258 6  -6574435.15021
  22069433.5914    5754638.18646   4484132.48863
  21546260.091   -12181866.603 7  -9492320.30423
 91  3 29 23 40 30.0010000  0  5G18G11G 6G19G 2
  24737106.4034   21905329.00145  17069039.44361
  24321561.7314    4473435.98246   3485797.97861
  22906782.474    -8625227.716 6  -6595051.27421
  22074412.4114    5780808.29646   4504524.75463
  21544852.294   -12189265.867 7  -9498085.94123
 91  3 29 23 40 45.0010000  0  5G18G11G 6G19G 2
  24748481.4814   21965104.14845  17115617.25761
  24329702.638     4516210.019 6   3519128.32021
  22901748.771    -8651675.988 6  -6615660.24221
  22079406.3884    5807048.29846   4524971.47363
  21543456.325   -12196600.106 7  -9503800.90623
 91  3 29 23 41  0.0010000  0  5G18G11G 6G19G 2
  24759855.747    22024885.146 5  17162199.63021
  24337861.364     4559079.420 6   3552532.96421
  22896716.896    -8678124.992 6  -6636269.78421
  22084412.849     5833348.106 6   4545464.79923
  21542072.3564  -12203879.69947  -9509473.29163
 91  3 29 23 41 15.0010000  0  5G18G11G 6G19G 2
  24771235.661    22084681.978 5  17208794.36421
  24346036.435     4602053.950 5   3586019.52321
  22891684.614    -8704564.373 6  -6656871.82121
  22089429.927     5859717.935 6   4566012.69623
  21540699.3024  -12211094.28447  -9515095.01763
 91  3 29 23 41 30.0010000  0  5G18G11G 6G19G 2
  24782617.0604   22144490.72945  17255398.35661
  24354233.1694    4645129.71945   3619585.00061
  22886654.911    -8730997.588 6  -6677469.05721
  22094461.7474    5886154.29246   4586612.42263
  21539337.364   -12218247.497 8  -9520668.92923
 91  3 29 23 41 45.0010000  0  5G18G11G 6G19G 2
  24794000.3884   22204311.66545  17302011.83561
  24362452.4424    4688307.09046   3653229.61461
  22881626.521    -8757423.863 6  -6698060.88321
  22099503.4584    5912657.99346   4607264.62863
  21537988.161   -12225338.768 7  -9526194.56923
 91  3 29 23 42  0.0010000  0  5G18G11G 6G19G 2
  24805386.4894   22264143.51345  17348633.81661
  24370686.763     4731584.721 6   3686952.36921
  22876598.747    -8783844.175 6  -6718648.06121
  22104557.2084    5939227.94246   4627968.45863
  21536650.9814  -12232369.10848  -9531672.72563
 91  3 29 23 42 15.0010000  0  5G18G11G 6G19G 2
  24816774.575    22323986.555 5  17395264.54821
  24378940.6384    4774962.86446   3720753.44461
  22871573.286    -8810257.863 6  -6739230.07521
  22109628.771     5965864.753 6   4648724.38823
  21535323.817   -12239338.066 8  -9537103.06023
 91  3 29 23 42 30.0010000  0  5G18G11G 6G19G 2
  24828166.591    22383841.595 5  17441904.62121
  24387215.6224    4818442.29646   3754633.45861
  22866546.950    -8836663.561 6  -6759805.86521
  22114712.286     5992569.617 6   4669533.34123
  21534010.763   -12246244.634 8  -9542484.78123
 91  3 29 23 42 45.0010000  0  5G18G11G 6G19G 2
  24839557.2084   22443709.68245  17488554.84561
  24395510.2164    4862023.91146   3788593.08961
  22861523.802    -8863060.003 6  -6780374.44321
  22119805.778     6019343.827 6   4690396.34223
  21532707.552   -12253087.580 8  -9547816.92123
 91  3 29 23 43  0.0010000  0  5G18G11G 6G19G 2
  24850954.1924   22503588.35745  17535213.33661
  24403821.8024    4905705.57346   3822630.68261
  22856503.560    -8889449.064 6  -6800937.27421
  22124911.450     6046185.360 6   4711311.79723
  21531416.747   -12259869.025 8  -9553101.14123
 91  3 29 23 43 15.0010000  0  4G11G 6G19G 2
  24412153.1854    4949490.30146   3856748.58061
  22851482.325    -8915827.071 6  -6821491.49021
  22130034.1144    6073097.84146   4732282.53263
  21530138.974   -12266585.449 8  -9558334.69523
 91  3 29 23 43 30.0010000  0  4G11G 6G19G 2
  24420504.9034    4993375.20646   3890944.55261
  22846464.583    -8942196.361 6  -6842038.91421
  22135167.255     6100078.880 6   4753306.68723
  21528873.005   -12273239.481 8  -9563519.63023
 91  3 29 23 43 45.0010000  0  4G11G 6G19G 2
  24428874.9354    5037357.41846   3925216.33961
  22841446.599    -8968559.354 6  -6862581.43121
  22140315.4504    6127125.95446   4774382.30463
  21527619.239   -12279833.872 8  -9568658.09024
 91  3 29 23 44  0.0010000  0  4G11G 6G19G 2
  24437264.130     5081444.186 6   3959569.61021
  22836434.567    -8994908.464 6  -6883113.12821
  22145478.1614    6154246.64646   4795515.28363
  21526376.638   -12286361.037 8  -9573744.16823
 91  3 29 23 44 15.0010000  0  4G11G 6G19G 2
  24445671.9974    5125629.48046   3993999.64961
  22831421.560    -9021249.193 6  -6903638.29621
  22150650.958     6181435.383 6   4816701.28323
  21525144.606   -12292826.746 8  -9578782.35723
 91  3 29 23 44 30.0010000  0  4G11G 6G19G 2
  24454100.8644    5169918.95346   4028510.85961
  22826411.575    -9047575.354 6  -6924152.11121
  22155837.7394    6208698.16546   4837944.97963
  21523928.2474  -12299225.05248  -9583768.02463
 91  3 29 23 44 45.0010000  0  4G11G 6G19G 2
  24462546.021     5214306.606 6   4063098.58721
  22821404.114    -9073892.661 6  -6944659.03221
  22161038.708     6236029.277 6   4859241.92323
  21522721.817   -12305561.701 8  -9588705.64723
 91  3 29 23 45  0.0010000  0  4G11G 6G19G 2
  24471012.646     5258793.830 6   4097763.90321
  22816397.263    -9100199.256 6  -6965157.60021
  22166253.841     6263430.596 6   4880593.57723
  21521527.864   -12311834.999 8  -9593593.91023
 91  3 29 23 45 15.0010000  0  4G11G 6G19G 2
  24479497.1464    5303376.03046   4132503.22061
  22811392.521    -9126499.251 6  -6985651.02321
  22171481.536     6290897.821 6   4901996.58323
  21520345.513   -12318049.300 8  -9598436.19323
 91  3 29 23 45 30.0010000  0  4G11G 6G19G 2
  24487999.5444    5348055.28446   4167318.16061
  22806389.0524   -9152789.97746  -7006137.23761
  22176719.2474    6318433.55146   4923452.97062
  21519175.606   -12324202.258 8  -9603230.68523
 91  3 29 23 45 45.0010000  0  4G11G 6G19G 2
  24496517.833     5392831.312 6   4202208.49221
  22801386.341    -9179071.403 6  -7026616.19721
  22181973.606     6346037.784 6   4944962.74023
  21518015.8174  -12330293.98448  -9607977.45763
 91  3 29 23 46  0.0010000  0  4G11G 6G19G 2
  24505057.2474    5437703.85846   4237174.05561
  22796389.200    -9205343.321 6  -7047087.74321
  22187238.677     6373710.687 6   4966526.01923
  21516868.3334  -12336324.42647  -9612676.47463
 91  3 29 23 46 15.0010000  0  4G11G 6G19G 2
  24513614.9744    5482676.16246   4272217.34961
  22791392.4034   -9231601.96046  -7067548.95261
  22192519.497     6401455.742 6   4988145.51523
  21515732.8254  -12342290.00548  -9617324.95363
 91  3 29 23 46 30.0010000  0  4G11G 6G19G 2
  24522194.2554    5527748.79446   4307338.81361
  22786398.3024   -9257846.18946  -7087998.93261
  22197811.7394    6429274.09546   5009822.12663
  21514609.388   -12348189.794 8  -9621922.16723
 91  3 29 23 46 45.0010000  0  4G11G 6G19G 2
  24530787.3414    5572915.09246   4342533.26161
  22781405.130    -9284082.335 6  -7108442.60921
  22203119.6774    6457159.31546   5031550.83662
  21513497.7394  -12354030.37648  -9626473.24763
 91  3 29 23 47  0.0010000  0  4G11G 6G19G 2
  24539399.7164    5618171.53545   4377797.95661
  22776413.0834   -9310313.43946  -7128882.35961
  22208436.560     6485108.312 6   5053329.24522
  21512397.3724  -12359815.08048  -9630980.77463
 91  3 29 23 47 15.0010000  0  4G11G 6G19G 2
  24548029.4034    5663520.86846   4413135.03361
  22771423.2244   -9336536.29246  -7149315.68461
  22213768.739     6513124.250 6   5075159.82922
  21511308.6774  -12365540.81648  -9635442.36263
 91  3 29 23 47 30.0010000  0  4G11G 6G19G 2
  24556677.3964    5708964.40946   4448545.51261
  22766436.8254   -9362748.97746  -7169741.08061
  22219110.9034    6541208.76146   5097043.83762
  21510230.0524  -12371205.92448  -9639856.70563
 91  3 29 23 47 45.0010000  0  4G11G 6G19G 2
  24565342.1694    5754498.58246   4484026.61261
  22761447.8254   -9388954.70246  -7190161.05961
  22224469.3884    6569358.76846   5118978.87662
  21509163.7394  -12376813.55448  -9644226.25463
 91  3 29 23 48  0.0010000  0  4G11G 6G19G 2
  24574024.3564    5800129.18446   4519582.86161
  22756464.692    -9415147.123 6  -7210570.66521
  22229840.1924    6597580.46446   5140969.78062
  21508107.2164  -12382357.77648  -9648546.40563
 91  3 29 23 48 15.0010000  0  4G11G 6G19G 2
  24582726.388     5845851.108 6   4555210.26221
  22751481.9194   -9441331.04146  -7230973.65361
  22235223.755     6625868.985 6   5163012.76122
  21507063.450   -12387843.517 8  -9652820.98223
 91  3 29 23 48 30.0010000  0  4G11G 6G19G 2
  24591444.5754    5891664.44446   4590908.89861
  22746501.7474   -9467505.75346  -7251369.46661
  22240617.099     6654224.657 6   5185108.06622
  21506032.7164  -12393270.53148  -9657049.79663
 91  3 29 23 48 45.0010000  0  4G11G 6G19G 2
  24600178.8104    5937571.12946   4626680.27161
  22741522.286    -9493668.916 6  -7271756.27422
  22246028.4584    6682649.96846   5207257.62762
  21505010.1854  -12398636.53948  -9661231.07063
 91  3 29 23 49  0.0010000  0  4G11G 6G19G 2
  24608933.0604    5983569.27746   4662522.92361
  22736545.278    -9519821.921 6  -7292135.15822
  22251449.4504    6711143.34346   5229460.22662
  21504001.106   -12403943.091 8  -9665366.02223
 91  3 29 23 49 15.0010000  0  4G11G 6G19G 2
  24617704.614     6029657.614 6   4698435.83721
  22731568.997    -9545965.574 6  -7312506.76222
  22256886.2394    6739703.99546   5251715.24562
  21503001.8724  -12409191.22248  -9669455.44663
 91  3 29 23 49 30.0010000  0  4G11G 6G19G 2
  24626491.411     6075838.749 6   4734421.08721
  22726599.3334   -9572096.68046  -7332868.59461
  22262332.5754    6768335.01246   5274025.09762
  21502014.755   -12414378.044 8  -9673497.10323
 91  3 29 23 49 45.0010000  0  4G11G 6G19G 2
  24635297.052     6122108.349 6   4770475.24121
  22721627.716    -9598219.085 6  -7353223.64322
  22267795.8104    6797032.32046   5296386.60862
  21501038.4354  -12419507.52548  -9677494.07163
 91  3 29 23 50  0.0010000  0  4G11G 6G19G 2
  24644117.942     6168465.648 5   4806597.72821
  22716657.310    -9624333.078 6  -7373572.13421
  22273266.6464    6825795.42846   5318799.38762
  21500072.864   -12424580.286 8  -9681446.84823
 91  3 29 23 50 15.0010000  0  4G11G 6G19G 2
  24652956.8644    6214911.58645   4842789.28161
  22711689.5524   -9650437.39646  -7393913.08961
  22278754.5674    6854625.77446   5341264.55862
  21499119.146   -12429595.199 8  -9685354.54623
 91  3 29 23 50 30.0010000  0  4G11G 6G19G 2
  24661811.7714    6261446.37745   4879050.08761
  22706724.333    -9676531.236 6  -7414245.88022
  22284251.9114    6883523.86246   5363782.51462
  21498175.5604  -12434551.53748  -9689216.60063
 91  3 29 23 50 45.0010000  0  4G11G 6G19G 2
  24670684.036     6308071.557 5   4915381.30921
  22701760.935    -9702612.665 6  -7434568.99521
  22289765.5914    6912491.50446   5386354.67062
  21497244.0674  -12439447.53748  -9693031.64063
 91  3 29 23 51  0.0010000  0  4G11G 6G19G 2
  24679572.966     6354783.829 5   4951780.40421
  22696798.5834   -9728684.45246  -7454884.60162
  22295294.3024    6941525.91346   5408978.85162
  21496323.8254  -12444286.26048  -9696802.04563
 91  3 29 23 51 15.0010000  0  4G11G 6G19G 2
  24688479.013     6401583.175 5   4988247.32721
  22691841.263    -9754746.025 6  -7475192.24722
  22300829.6064    6970627.46146   5431655.35162
  21495414.013   -12449067.448 8  -9700527.62523
 91  3 29 23 51 30.0010000  0  4G11G 6G19G 2
  24697402.271     6448474.642 5   5024786.05721
  22686884.958    -9780792.027 6  -7495487.75422
  22306382.3644    6999801.68846   5454388.47762
  21494515.1384  -12453785.83848  -9704204.26463
 91  3 29 23 51 45.0010000  0  4G11G 6G19G 2
  24706341.6924    6495453.13845   5061392.57561
  22681930.677    -9806826.838 6  -7515774.54522
  22311945.7784    7029043.86946   5477174.56262
  21493628.661   -12458446.296 8  -9707835.76423
 91  3 29 23 52  0.0010000  0  4G11G 6G19G 2
  24715297.3024    6542519.85345   5098067.85761
  22676978.466    -9832848.877 6  -7536051.38022
  22317524.1924    7058355.47346   5500014.74362
  21492752.856   -12463047.307 8  -9711420.94223
 91  3 29 23 52 15.0010000  0  4G11G 6G19G 2
  24724270.013     6589669.313 5   5134807.61621
  22672026.849    -9858863.052 6  -7556322.08822
  22323113.2084    7087731.43546   5522905.06562
  21491888.7634  -12467593.95448  -9714963.75463
 91  3 29 23 52 30.0010000  0  4G11G 6G19G 2
  24733259.4274    6636902.61545   5171612.70061
  22667078.200    -9884867.917 6  -7576585.54622
  22328715.1304    7117173.13646   5545846.60962
  21491034.6774  -12472085.05248  -9718463.28363
 91  3 29 23 52 45.0010000  0  4G11G 6G19G 2
  24742264.2554    6684222.15845   5208484.97761
  22662132.278    -9910860.387 6  -7596839.34222
  22334332.7634    7146683.59446   5568841.73462
  21490190.849   -12476517.667 8  -9721917.24323
 91  3 29 23 53  0.0010000  0  4G11G 6G19G 2
  24751285.716     6731630.296 6   5245426.30621
  22657188.692    -9936837.729 6  -7617081.34522
  22339959.1464    7176265.43046   5591892.48062
  21489358.427   -12480889.486 8  -9725323.83023
 91  3 29 23 53 15.0010000  0  4G11G 6G19G 2
  24760322.271     6779120.685 6   5282431.71821
  22652248.263    -9962805.868 6  -7637316.18722
  22345602.8964    7205912.68446   5614994.19762
  21488536.6384  -12485206.57348  -9728687.76763
 91  3 29 23 53 30.0010000  0  4G11G 6G19G 2
  24769376.505     6826697.071 6   5319504.14421
  22647308.427    -9988760.473 6  -7657540.47422
  22351259.4034    7235629.31046   5638149.97362
  21487726.513   -12489464.778 8  -9732005.82223
 91  3 29 23 53 45.0010000  0  4G11G 6G19G 2
  24778446.6854    6874359.39346   5356643.52561
  22642371.036   -10014701.187 6  -7677753.94022
  22356925.3414    7265415.63346   5661360.05762
  21486927.192   -12493663.842 8  -9735277.79723
 91  3 29 23 54  0.0010000  0  4G11G 6G19G 2
  24787532.739     6922106.879 6   5393849.27821
  22637438.997   -10040628.374 6  -7697956.86622
  22362609.0994    7295271.32546   5684624.19362
  21486139.2244  -12497804.37948  -9738504.16163
 91  3 29 23 54 15.0010000  0  4G11G 6G19G 2
  24796633.435     6969937.195 6   5431119.58221
  22632506.833   -10066543.618 6  -7718150.48122
  22368301.1224    7325194.52446   5707940.93462
  21485362.122   -12501888.294 8  -9741686.40623
 91  3 29 23 54 30.0010000  0  4G11G 6G19G 2
  24805753.200     7017855.493 6   5468458.43321
  22627578.333   -10092441.236 6  -7738330.36822
  22374007.2244    7355190.80346   5731314.61862
  21484597.458   -12505910.128 8  -9744820.28123
 91  3 29 23 54 45.0010000  0  4G11G 6G19G 2
  24814888.099     7065857.481 6   5505862.50821
  22622652.450   -10118325.177 6  -7758499.59522
  22379731.5054    7385256.16246   5754742.13662
  21483842.177   -12509874.139 8  -9747909.09423
 91  3 29 23 55  0.0010000  0  4G11G 6G19G 2
  24824037.521     7113938.471 6   5543328.11621
  22617728.630   -10144199.695 6  -7778661.47522
  22385466.6464    7415386.18146   5778220.04162
  21483097.911   -12513784.638 8  -9750956.20923
 91  3 29 23 55 15.0010000  0  4G11G 6G19G 2
  24833202.833     7162101.234 6   5580857.47421
  22612808.052   -10170061.358 6  -7798813.33822
  22391210.9504    7445584.30746   5801751.00562
  21482365.3174  -12517638.56848  -9753959.24663
 91  3 29 23 55 30.0010000  0  4G11G 6G19G 2
  24842382.4744    7210344.01245   5618449.19161
  22607888.372   -10195911.468 6  -7818956.20222
  22396968.2864    7475848.94546   5825333.80262
  21481641.474   -12521437.221 8  -9756919.21023
 91  3 29 23 55 45.0010000  0  4G11G 6G19G 2
  24851579.856     7258671.100 5   5656106.58221
  22602972.419   -10221745.158 6  -7839086.27522
  22402743.2244    7506184.81446   5848972.10762
  21480930.8724  -12525176.14448  -9759832.63363
 91  3 29 23 56  0.0010000  0  4G11G 6G19G 2
  24860789.333     7307081.833 5   5693829.15621
  22598059.028   -10247562.639 6  -7859203.71422
  22408528.2474    7536591.59746   5872665.67862
  21480230.622   -12528855.691 8  -9762699.78523
 91  3 29 23 56 15.0010000  0  4G11G 6G19G 2
  24870019.950     7355575.816 5   5731616.59821
  22593149.8804  -10273363.76846  -7879308.41862
  22414328.3884    7567069.24246   5896414.45462
  21479541.442   -12532475.977 8  -9765520.76323
 91  3 29 23 56 30.0010000  0  4G11G 6G19G 2
  24879262.513     7404151.667 5   5769467.83121
  22588242.497   -10299149.335 6  -7899400.99022
  22420143.888     7597616.880 6   5920217.76322
  21478863.825   -12536038.209 8  -9768296.50123
 91  3 29 23 56 45.0010000  0  4G11G 6G19G 2
  24888522.8804    7452812.03646   5807384.91661
  22583339.302   -10324916.162 6  -7919478.96322
  22425969.7634    7628237.54746   5944077.98762
  21478197.052   -12539539.285 8  -9771024.58723
 91  3 29 23 57  0.0010000  0  4G11G 6G19G 2
  24897799.6304    7501556.99946   5845367.90561
  22578441.192   -10350663.813 6  -7939541.99622
  22431809.4744    7658931.71046   5967995.48262
  21477541.8494  -12542979.04248  -9773704.89263
 91  3 29 23 57 15.0010000  0  4G11G 6G19G 2
  24907090.536     7550384.027 6   5883414.85821
  22573542.622   -10376394.266 6  -7959591.62722
  22437665.0604    7689697.10346   5991968.47862
  21476899.942   -12546359.697 8  -9776339.14423
 91  3 29 23 57 30.0010000  0  4G11G 6G19G 2
  24916397.364     7599295.661 6   5921527.74021
  22568651.442   -10402104.386 6  -7979625.41022
  22443532.7244    7720536.70446   6015999.29962
  21476268.5364  -12549678.36048  -9778925.08763
 91  3 29 23 57 45.0010000  0  4G11G 6G19G 2
  24925722.1924    7648289.59446   5959704.74261
  22563762.458   -10427796.008 6  -7999644.78422
  22449414.6384    7751448.56146   6040086.42562
  21475648.036   -12552937.003 8  -9781464.26423
 91  3 29 23 58  0.0010000  0  4G11G 6G19G 2
  24935060.6304    7697363.91946   5997944.38261
  22558876.4664  -10453470.60547  -8019650.89462
  22455310.1614    7782431.02046   6064228.56862
  21475037.646   -12556137.464 8  -9783958.10523
 91  3 29 23 58 15.0010000  0  4G11G 6G19G 2
  24944413.2164    7746521.62646   6036249.01161
  22553994.786   -10479124.647 6  -8039640.98422
  22461221.2554    7813487.55646   6088428.43162
  21474440.411   -12559276.415 8  -9786404.01723
 91  3 29 23 58 30.0010000  0  4G11G 6G19G 2
  24953784.0754    7795762.23246   6074618.24161
  22549116.4194  -10504758.04646  -8059614.99162
  22467143.7944    7844617.99046   6112685.87662
  21473855.450   -12562353.961 8  -9788802.08023
 91  3 29 23 58 45.0010000  0  4G11G 6G19G 2
  24963170.802     7845082.598 6   6113049.61021
  22544242.060   -10530373.499 6  -8079575.01122
  22473081.6384    7875819.65146   6136998.82462
  21473281.028   -12565372.957 8  -9791154.52023
 91  3 29 23 59  0.0010000  0  4G11G 6G19G 2
  24972570.9354    7894482.15346   6151542.68461
  22539371.130   -10555970.961 6  -8099521.01422
  22479033.2164    7907092.14246   6161366.96062
  21472717.692   -12568333.617 8  -9793461.50223
 91  3 29 23 59 15.0010000  0  4G11G 6G19G 2
  24981987.075     7943960.590 6   6190097.22621
  22534501.9274  -10581550.22546  -8119452.84262
  22484997.6064    7938435.70446   6185790.48462
  21472165.083   -12571236.063 8  -9795723.12223
 91  3 29 23 59 30.0010000  0  4G11G 6G19G 2
  24991416.396     7993516.838 6   6228712.40721
  22529638.200   -10607111.905 6  -8139370.96122
  22490975.5834    7969849.63546   6210268.83762
  21471623.310   -12574081.270 8  -9797940.14424
 91  3 29 23 59 45.0010000  0  4G11G 6G19G 2
  25000861.106     8043151.273 6   6267388.52021
  22524779.0054  -10632655.06046  -8159274.65262
  22496967.3964    8001334.76646   6234802.66862
  21471093.442   -12576868.283 8  -9800111.81723
 91  3 30  0  0  0.0010000  0  4G11G 6G19G 2
  25010321.997     8092862.229 6   6306124.24921
  22519920.7314  -10658180.76047  -8179164.73862
  22502969.9274    8032889.88946   6259391.03762
  21470573.396   -12579598.637 8  -9802239.34124
 91  3 30  0  0 15.0010000  0  4G11G 6G19G 2
  25019795.622     8142646.417 5   6344917.03921
  22515065.3414  -10683691.85846  -8199043.44862
  22508987.6144    8064512.00346   6284031.60962
  21470063.880   -12582275.409 8  -9804325.11124
 91  3 30  0  0 30.0010000  0  4G11G 6G19G 2
  25029285.0604    8192508.41145   6383770.45561
  22510215.1534  -10709183.31046  -8218906.85362
  22515020.9114    8096205.87146   6308728.09862
  21469566.114   -12584893.670 8  -9806365.29123
 91  3 30  0  0 45.0010000  0  3G 6G19G 2
  22505366.9354  -10734655.76246  -8238755.44662
  22521063.0604    8127970.69346   6333479.87262
  21469079.755   -12587454.346 8  -9808360.59924
 91  3 30  0  1  0.0010000  0  3G 6G19G 2
  22500523.4814  -10760109.15546  -8258589.19262
  22527123.8414    8159806.55446   6358287.00462
  21468603.325   -12589957.684 8  -9810311.23124
 91  3 30  0  1 15.0010000  0  3G 6G19G 2
  22495685.4424  -10785537.12946  -8278403.12962
  22533194.1854    8191719.60146   6383154.27762
  21468138.208   -12592397.594 8  -9812212.43624
 91  3 30  0  1 30.0010000  0  3G 6G19G 2
  22490851.1224  -10810937.79546  -8298195.78862
  22539283.4194    8223711.50446   6408082.99562
  21467687.083   -12594772.290 8  -9814062.82724
 91  3 30  0  1 45.0010000  0  3G 6G19G 2
  22486022.6464  -10836315.82546  -8317970.80962
  22545384.8804    8255777.30446   6433069.30462
  21467245.849   -12597086.671 8  -9815866.21624
 91  3 30  0  2  0.0010000  0  3G 6G19G 2
  22481198.0444  -10861667.41347  -8337725.23562
  22551502.3494    8287920.68846   6458116.05962
  21466817.841   -12599337.262 8  -9817619.90624
 91  3 30  0  2 15.0010000  0  3G 6G19G 2
  22476376.9664  -10886998.92746  -8357464.01262
  22557630.521     8320135.238 6   6483218.26522
  21466400.271   -12601530.629 8  -9819329.00324
 91  3 30  0  2 30.0010000  0  3G 6G19G 2
  22471560.6694  -10912310.67046  -8377187.38762
  22563775.396     8352420.482 6   6508375.55622
  21465993.122   -12603667.459 8  -9820994.04424
 91  3 30  0  2 45.0010000  0  4G15G 6G19G 2
  24767337.7784     -22985.78445
  22466745.8104  -10937603.03646  -8396895.65762
  22569931.927     8384775.817 6   6533587.46222
  21465597.864   -12605748.267 8  -9822615.42424
 91  3 30  0  3  0.0010000  0  4G15G 6G19G 2
  24762976.6224     -45898.48245
  22461939.5444  -10962875.97347  -8416588.78262
  22576103.1614    8417201.06646   6558853.85462
  21465212.286   -12607773.448 8  -9824193.46524
 91  3 30  0  3 15.0010000  0  4G15G 6G19G 2
  24758630.6854     -68735.39445        -0.24771
  22457134.419   -10988126.849 7  -8436264.73922
  22582285.575     8449698.825 6   6584176.74022
  21464837.692   -12609740.595 8  -9825726.28524
 91  3 30  0  3 30.0010000  0  4G15G 6G19G 2
  24754301.3724     -91497.11445    -17736.53361
  22452331.7944  -11013356.52447  -8455924.16462
  22588488.396     8482267.995 6   6609555.26922
  21464474.192   -12611650.577 8  -9827214.56024
 91  3 30  0  3 45.0010000  0  4G15G 6G19G 2
  24749980.888     -114184.866 5    -35415.20421
  22447535.4744  -11038566.42147  -8475568.17662
  22594694.177     8514906.864 6   6634988.10122
  21464120.833   -12613505.246 8  -9828659.73424
 91  3 30  0  4  0.0010000  0  4G15G 6G19G 2
  24745680.1144    -136795.95445    -53034.12361
  22442741.9974  -11063753.93147  -8495194.74462
  22600923.7714    8547617.94846   6660477.21962
  21463779.200   -12615302.304 8  -9830060.01824
 91  3 30  0  4 15.0010000  0  4G15G 6G19G 2
  24741391.8494    -159331.33745    -70594.04961
  22437953.2164  -11088920.11647  -8514804.69862
  22607156.7864    8580400.10946   6686021.71862
  21463447.950   -12617042.885 8  -9831416.29424
 91  3 30  0  4 30.0010000  0  4G15G 6G19G 2
  24737114.810     -181797.751 5    -88100.24021
  22433166.739   -11114071.985 7  -8534403.50022
  22613411.474     8613246.197 6   6711616.02922
  21463126.060   -12618734.253 8  -9832734.21724
 91  3 30  0  4 45.0010000  0  4G15G 6G19G 2
  24732855.333     -204186.487 5   -105545.91921
  22428384.5054  -11139201.18947  -8553984.64262
  22619671.771     8646164.413 6   6737266.53222
  21462814.981   -12620368.339 8  -9834007.51024
 91  3 30  0  5  0.0010000  0  4G15G 6G19G 2
  24728610.8884    -226495.24345   -122929.27161
  22423606.8644  -11164305.38947  -8573546.30062
  22625951.388     8679156.695 6   6762974.75522
  21462515.872   -12621943.041 8  -9835234.53124
 91  3 30  0  5 15.0010000  0  4G15G 6G19G 2
  24724381.5214    -248727.53345   -140253.02461
  22418833.3804  -11189388.44247  -8593091.47162
  22632242.177     8712219.235 6   6788737.72222
  21462226.817   -12623462.503 8  -9836418.50424
 91  3 30  0  5 30.0010000  0  4G15G 6G19G 2
  24720163.1694    -270882.29745   -157516.38961
  22414064.333   -11214449.405 7  -8612619.43722
  22638549.606     8745352.615 6   6814555.89322
  21461948.396   -12624926.100 8  -9837558.94924
 91  3 30  0  5 45.0010000  0  4G15G 6G19G 2
  24715962.817     -292962.360 5   -174721.50921
  22409299.3494  -11239491.24647  -8632132.50562
  22644865.083     8778553.669 6   6840426.79622
  21461678.435   -12626337.103 8  -9838658.41324
 91  3 30  0  6  0.0010000  0  4G15G 6G19G 2
  24711774.4504    -314964.02245   -191865.56061
  22404537.9504  -11264510.43547  -8651627.91662
  22651200.591     8811825.859 6   6866353.12422
  21461421.333   -12627692.423 8  -9839714.49124
 91  3 30  0  6 15.0010000  0  4G15G 6G19G 2
  24707605.2474    -336884.49645   -208946.35461
  22399782.2714  -11289504.21347  -8671103.52662
  22657542.802     8845171.881 6   6892336.98622
  21461174.380   -12628989.241 8  -9840724.97624
 91  3 30  0  6 30.0020000  0  4G15G 6G19G 2
  24703445.1194    -358731.12344   -225969.58561
  22395029.0024  -11314480.41847  -8690565.44862
  22663905.666     8878587.507 6   6918375.08822
  21460938.057   -12630234.055 8  -9841694.94524
 91  3 30  0  6 45.0020000  0  4G15G 6G19G 2
  24699304.1194    -380498.28644   -242930.88261
  22390280.791   -11339433.000 7  -8710008.96122
  22670272.533     8912070.774 6   6944465.90122
  21460711.963   -12631424.325 8  -9842622.41024
 91  3 30  0  7  0.0020000  0  4G15G 6G19G 2
  24695178.5724    -402187.34545   -259831.32761
  22385536.6584  -11364364.00947  -8729435.66562
  22676658.229     8945623.258 6   6970610.64322
  21460495.549   -12632560.775 8  -9843507.94324
 91  3 30  0  7 15.0020000  0  4G15G 6G19G 2
  24691062.088     -423796.524 5   -276669.53921
  22380796.9554  -11389271.92447  -8748844.37162
  22683055.986     8979246.296 6   6996810.36022
  21460288.877   -12633642.156 8  -9844350.56124
 91  3 30  0  7 30.0020000  0  4G15G 6G19G 2
  24686966.861     -445320.906 5   -293441.68121
  22376062.268   -11414151.526 7  -8768231.02222
  22689473.377     9012945.086 6   7023069.10222
  21460095.479   -12634663.571 8  -9845146.45124
 91  3 30  0  7 45.0020000  0  4G15G 6G19G 2
  24682885.8384    -466766.78045   -310152.64861
  22371332.197   -11439009.541 7  -8787600.84722
  22695894.471     9046712.704 6   7049381.48622
  21459910.549   -12635631.750 8  -9845900.85924
 91  3 30  0  8  0.0020000  0  4G15G 6G19G 2
  24678821.6504    -488131.29145   -326800.23561
  22366606.299   -11463843.304 7  -8806951.77722
  22702334.455     9080551.391 6   7075749.25022
  21459735.604   -12636544.492 8  -9846612.07524
 91  3 30  0  8 15.0020000  0  4G15G 6G19G 2
  24674771.6114    -509416.25845   -343385.81061
  22361884.6744  -11488654.99547  -8826285.50862
  22708785.416     9114459.061 6   7102170.76922
  21459574.158   -12637404.177 8  -9847281.94324
 91  3 30  0  8 30.0020000  0  4G15G 6G19G 2
  24670733.8934    -530620.62945   -359908.55961
  22357167.6744  -11513443.53647  -8845601.19962
  22715254.307     9148436.727 6   7128646.83122
  21459419.916   -12638210.087 8  -9847909.91124
 91  3 30  0  8 45.0020000  0  4G15G 6G19G 2
  24666717.2834    -551739.20445   -376364.48461
  22352456.1744  -11538203.78147  -8864894.83462
  22721731.635     9182488.882 6   7155180.93322
  21459278.924   -12638957.303 8  -9848492.14324
 91  3 30  0  9  0.0020000  0  4G15G 6G19G 2
  24662713.4004    -572778.00745   -392758.26661
  22347749.4084  -11562941.80147  -8884171.15962
  22728228.2914    9216609.39446   7181768.30462
  21459145.479   -12639652.163 8  -9849033.57724
 91  3 30  0  9 15.0020000  0  4G15G 6G19G 2
  24658723.3544    -593734.69145   -409088.05461
  22343046.143   -11587655.537 7  -8903428.56122
  22734732.502     9250800.129 6   7208410.39322
  21459024.5724  -12640292.80748  -9849532.77064
 91  3 30  0  9 30.0020000  0  4G15G 6G19G 2
  24654752.7364    -614611.49745   -425355.57861
  22338347.3224  -11612347.20447  -8922668.76562
  22741250.768     9285058.621 6   7235105.27922
  21458912.854   -12640881.886 8  -9849991.77824
 91  3 30  0  9 45.0020000  0  4G15G 6G19G 2
  24650794.5644    -635406.27045   -441559.21561
  22333652.8144  -11637015.11847  -8941890.45662
  22747780.994     9319386.451 6   7261854.19122
  21458811.072   -12641418.029 8  -9850409.53924
 91  3 30  0 10  0.0020000  0  4G15G 6G19G 2
  24646853.939     -656118.545 5   -457698.57321
  22328962.9394  -11661659.08647  -8961093.49062
  22754330.908     9353783.591 6   7288657.11022
  21458715.393   -12641901.209 8  -9850786.03024
 91  3 30  0 10 15.0020000  0  4G15G 6G19G 2
  24642926.588     -676753.443 5   -473777.62121
  22324276.2834  -11686284.08747  -8980281.74662
  22760885.908     9388244.985 6   7315510.10222
  21458633.7914  -12642336.62948  -9851125.30964
 91  3 30  0 10 30.0020000  0  4G15G 6G19G 2
  24639016.8144    -697302.77645   -489790.00061
  22319596.9794  -11710882.25847  -8999449.09562
  22767459.1274    9422778.32746   7342419.15962
  21458561.666   -12642716.549 8  -9851421.33624
 91  3 30  0 10 45.0020000  0  4G15G 6G19G 2
  24635122.5884    -717767.07345   -505736.10861
  22314921.150   -11735454.052 7  -9018595.89522
  22774043.104     9457382.843 6   7369383.67822
  21458499.596   -12643041.780 8  -9851674.75024
 91  3 30  0 11  0.0020000  0  4G15G 6G19G 2
  24631244.197     -738146.200 5   -521615.85821
  22310249.2364  -11759999.70647  -9037722.32462
  22780642.1824    9492058.08346   7396403.30862
  21458449.596   -12643313.026 8  -9851886.09524
 91  3 30  0 11 15.0020000  0  5G15G13G 6G19G 2
  24627381.635     -758441.762 5   -537430.48321
  24604667.3224         -0.94855
  22305583.494   -11784520.701 7  -9056829.53622
  22787252.5024    9526802.40446   7423476.76662
  21458409.150   -12643531.930 8  -9852056.65024
 91  3 30  0 11 30.0020000  0  5G15G13G 6G19G 2
  24623536.307     -778650.322 5   -553177.33921
  24594154.1504     -55240.29645
  22300922.8934  -11809013.84347  -9075915.04262
  22793881.588     9561618.944 6   7450606.49422
  21458376.041   -12643695.624 8
 91  3 30  0 11 45.0020000  0  5G15G13G 6G19G 2
  24619707.1664    -798777.30145   -568860.61361
  24583647.1504    -110455.56845
  22296265.8464  -11833484.76447  -9094983.23262
  22800516.4324    9596501.67246   7477787.79962
  21458353.510   -12643809.823 8
 91  3 30  0 12  0.0020000  0  5G15G13G 6G19G 2
  24615895.0024    -818820.16445   -584478.33761
  24573145.1974    -165644.10445
  22291613.2134  -11857931.01847  -9114032.20362
  22807169.111     9631452.856 6   7505022.44622
  21458341.908   -12643872.448 8
 91  3 30  0 12 15.0020000  0  5G15G13G 6G19G 2
  24612096.479     -838776.626 5   -600028.74621
  24562647.6434    -220803.79945
  22286966.3464  -11882350.61547  -9133060.39962
  22813832.002     9666474.234 6   7532311.79222
  21458340.111   -12643881.839 8
 91  3 30  0 12 30.0020000  0  5G15G13G 6G19G 2
  24608314.377     -858646.688 5   -615511.82221
  24552159.3854    -275934.46844
  22282324.5104  -11906743.49247  -9152067.76962
  22820511.7134    9701565.65146   7559655.71262
  21458347.494   -12643838.067 8
 91  3 30  0 12 45.0020000  0  5G15G13G 6G19G 2
  24604548.7054    -878426.67345   -630924.72261
  24541671.861     -331032.590 4
  22277688.9794  -11931106.36847  -9171051.77362
  22827200.775     9736730.203 6   7587056.61722
  21458368.900   -12643738.149 8
 91  3 30  0 13  0.0020000  0  5G15G13G 6G19G 2
  24600801.1114    -898118.50845   -646268.90761
  24531189.5964    -386099.47644        -0.16471
  22273057.6664  -11955440.97847  -9190013.73862
  22833909.908     9771965.826 6   7614512.90122
  21458398.143   -12643584.237 8
 91  3 30  0 13 15.0020000  0  5G15G13G 6G19G 2
  24597071.877     -917726.151 5   -661547.50521
  24520716.1824    -441139.35045    -42888.10461
  22268431.5104  -11979751.52547  -9208956.95762
  22840623.564     9807268.281 6   7642021.26122
  21458436.963   -12643380.466 8
 91  3 30  0 13 30.0020000  0  5G15G13G 6G19G 2
  24593356.5644    -937245.39945   -676757.24361
  24510249.783     -496148.008 5    -85751.68221
  22263810.8614  -12004033.92047  -9227878.24962
  22847357.627     9842641.477 6   7669584.74622
  21458484.080   -12643123.196 8  -9851738.01324
 91  3 30  0 13 45.0020000  0  5G15G13G 6G19G 2
  24589659.2914    -956676.18345   -691898.03961
  24499789.064     -551125.425 5   -128590.94521
  22259194.9794  -12028288.25747  -9246777.67062
  22854100.971     9878085.081 6   7697203.09222
  21458544.674   -12642812.831 8  -9851496.15624
 91  3 30  0 14  0.0020000  0  5G15G13G 6G19G 2
  24585977.471     -976019.610 5   -706970.76321
  24489330.049     -606072.701 5   -171406.73021
  22254585.7294  -12052515.85947  -9265656.26162
  22860860.299     9913597.420 6   7724874.99622
  21458612.197   -12642451.048 8  -9851214.23324
 91  3 30  0 14 15.0020000  0  5G15G13G 6G19G 2
  24582313.1044    -995275.81645   -721975.50661
  24478881.0574    -660990.06645   -214199.18061
  22249979.4714  -12076717.11047  -9284514.31662
  22867628.307     9949177.886 6   7752599.99122
  21458692.283   -12642038.604 8  -9850892.83124
 91  3 30  0 14 30.0020000  0  5G15G13G 6G19G 2
  24578664.104    -1014446.895 5   -736913.92221
  24468438.0644    -715879.36145   -256969.80561
  22245378.7444  -12100894.12547  -9303353.49062
  22874413.400     9984824.195 6   7780376.28522
  21458778.572   -12641577.845 8  -9850533.78224
 91  3 30  0 14 45.0020000  0  5G15G13G 6G19G 2
  24575033.135    -1033529.087 5   -751783.08321
  24457996.6504    -770736.80045   -299715.58461
  22240783.3224  -12125043.18747  -9322170.87662
  22881209.166    10020539.881 6   7808206.64322
  21458877.924   -12641065.275 7  -9850134.36824
 91  3 30  0 15  0.0020000  0  5G15G13G 6G19G 2
  24571418.6434   -1052520.71945   -766581.66061
  24447565.2834    -825560.50145   -342435.08661
  22236193.5884  -12149162.55747  -9340965.12862
  22888021.400    10056326.238 6   7836092.06222
  21458985.619   -12640499.508 8  -9849693.49324
 91  3 30  0 15 15.0020000  0  5G15G13G 6G19G 2
  24567822.7134   -1071423.31545   -781310.87761
  24437137.721     -880352.029 5   -385129.53321
  22231608.3224  -12173254.08147  -9359737.67862
  22894842.260    10092181.444 6   7864031.13521
  21459102.807   -12639882.586 8  -9849212.76024
 91  3 30  0 15 30.0020000  0  5G15G13G 6G19G 2
  24564243.994    -1090234.653 5   -795968.97621
  24426719.252     -935109.177 5   -427797.22021
  22227029.2134  -12197315.54247  -9378486.80362
  22901681.971    10128107.462 6   7892025.38821
  21459227.119   -12639212.416 7  -9848690.53424
 91  3 30  0 15 45.0020000  0  5G15G13G 6G19G 2
  24560680.346    -1108955.262 5   -810556.38221
  24416305.0804    -989832.38145   -470438.35161
  22222457.1974  -12221347.82247  -9397213.19462
  22908529.236    10164103.298 6   7920074.03922
  21459365.510   -12638490.286 7  -9848127.82024
 91  3 30  0 16  0.0020000  0  5G15G13G 6G19G 2
  24557135.604    -1127590.355 5   -825077.15321
  24405896.236    -1044526.673 5   -513057.04621
  22217888.3464  -12245356.23647  -9415920.98862
  22915394.0494   10200163.28346   7948172.67062
  21459512.236   -12637721.821 8  -9847529.00224
 91  3 30  0 16 15.0020000  0  5G15G13G 6G19G 2
  24553605.174    -1146135.300 5   -839527.72721
  24395495.135    -1099187.642 5
  22213325.1504  -12269336.47147  -9434606.81963
  22922265.0644   10236291.62646   7976324.57162
  21459666.994   -12636902.763 7  -9846890.75824
 91  3 30  0 16 30.0020000  0  5G15G13G 6G19G 2
  24550093.4634   -1164590.21645   -853908.08961
  24385096.7444   -1153815.54645
  22208766.5644  -12293288.51147  -9453270.68462
  22929157.455    10272487.852 6   8004529.36522
  21459834.736   -12636033.739 7  -9846213.58324
 91  3 30  0 16 45.0020000  0  5G15G13G 6G19G 2
  24546597.900    -1182955.715 5   -868218.80321
  24374709.8614   -1208410.50945        -0.40971
  22204213.424   -12317213.041 7  -9471913.11922
  22936054.0254   10308751.02846   8032786.33262
  21460008.510   -12635115.554 7  -9845498.09824
 91  3 30  0 17  0.0020000  0  5G15G13G 6G19G 2
  24543119.2684   -1201231.01045   -882459.20961
  24364326.9944   -1262971.87345    -42515.47961
  22199667.3074  -12341109.51547  -9490533.68462
  22942971.400    10345081.617 6   8061095.82922
  21460192.900   -12634148.124 7  -9844744.24324
 91  3 30  0 17 15.0020000  0  5G15G13G 6G19G 2
  24539661.455    -1219415.304 5   -896628.71621
  24353947.4244   -1317498.58545    -85003.54961
  22195124.846   -12364976.993 7  -9509131.66422
  22949893.0574   10381480.25346   8089458.34362
  21460387.150   -12633130.789 7  -9843951.50124
 91  3 30  0 17 30.0020000  0  5G15G13G 6G19G 2
  24536217.7834   -1237504.88145   -910724.40461
  24343580.5804   -1371986.84545   -127461.67661
  22190589.6744  -12388811.87347  -9527704.24162
  22956834.4244   10417950.21846   8117876.43662
  21460589.986   -12632060.198 7  -9843117.25824
 91  3 30  0 17 45.0020000  0  5G15G13G 6G19G 2
  24532793.174    -1255501.073 5   -924747.34121
  24333218.236    -1426438.241 5   -169891.04021
  22186059.205   -12412615.870 7  -9546252.75322
  22963787.5024   10454489.72746   8146348.72362
  21460803.197   -12630938.052 7  -9842242.84624
 91  3 30  0 18  0.0020000  0  5G15G13G 6G19G 2
  24529384.533    -1273405.273 5   -938698.59321
  24322864.0254   -1480853.95845   -212292.62461
  22181535.658   -12436390.183 7  -9564778.13622
  22970754.643    10491097.262 6   8174874.01822
  21461025.588   -12629766.086 7  -9841329.60524
 91  3 30  0 18 15.0020000  0  5G15G13G 6G19G 2
  24525996.4084   -1291216.29545   -952577.24161
  24312516.0884   -1535232.85145   -254665.52261
  22177017.924   -12460133.829 7  -9583279.62122
  22977731.729    10527773.706 6   8203453.01121
  21461259.5254  -12628543.47147  -9840376.91063
 91  3 30  0 18 30.0020000  0  5G15G13G 6G19G 2
  24522625.1974   -1308935.56145   -966384.36761
  24302173.2134   -1589576.08845   -297010.64361
  22172504.557   -12483848.367 7  -9601758.42922
  22984728.6044   10564517.20246   8232084.24962
  21461500.924   -12627271.999 7  -9839386.13524
 91  3 30  0 18 45.0020000  0  5G15G13G 6G19G 2
  24519270.900    -1326562.536 5   -980119.59221
  24291838.8304   -1643883.38145   -339327.73661
  22167997.1664  -12507533.53947  -9620214.35263
  22991729.5644   10601327.71046   8260767.70062
  21461751.244   -12625951.894 7  -9838357.46524
 91  3 30  0 19  0.0020000  0  5G15G13G 6G19G 2
  24515934.963    -1344094.887 5   -993781.06021
  24281513.463    -1698152.119 5   -381614.78221
  22163495.822   -12531186.981 7  -9638645.54922
  22998752.7294   10638207.42346   8289505.08462
  21462012.807   -12624580.867 7  -9837289.12124
 91  3 30  0 19 15.0020000  0  5G15G13G 6G19G 2
  24512615.2914   -1361536.99745  -1007372.21761
  24271191.346    -1752386.670 5   -423875.19021
  22159000.424   -12554813.204 7  -9657055.54222
  23005777.8694   10675151.44546   8318292.57762
  21462283.033   -12623163.839 7  -9836184.92624
 91  3 30  0 19 30.0020000  0  5G15G13G 6G19G 2
  24509313.6434   -1378881.64045  -1020887.43461
  24260878.5184   -1806579.75245   -466103.30961
  22154510.908   -12578405.092 7  -9675438.77422
  23012822.689    10712166.567 6   8347135.47022
  21462562.596   -12621693.948 8  -9835039.54024
 91  3 30  0 19 45.0020000  0  5G15G13G 6G19G 2
  24506030.5334   -1396132.13045  -1034329.28261
  24250573.463    -1860734.677 5   -508301.67921
  22150026.814   -12601966.211 7  -9693798.04022
  23019877.471    10749249.222 6   8376030.99122
  21462851.182   -12620174.932 7  -9833855.87624
 91  3 30  0 20  0.0020000  0  5G15G13G 6G19G 2
  24502764.822    -1413286.055 5  -1047695.88421
  24240274.2214   -1914848.70745   -550468.18261
  22145550.447   -12625494.078 7  -9712131.39022
  23026952.1354   10786401.67246   8404980.89762
  21463149.463   -12618604.793 7  -9832632.37724
 91  3 30  0 20 15.0020000  0  5G15G13G 6G19G 2
  24499519.119    -1430348.237 5  -1060991.01321
  24229985.721    -1968926.430 5   -592606.37021
  22141078.408   -12648993.440 7  -9730442.53322
  23034029.3144   10823618.83846   8433981.22662
  21463457.346   -12616988.632 8  -9831373.01524
 91  3 30  0 20 30.0020000  0  5G15G13G 6G19G 2
  24496292.174    -1447312.408 5  -1074209.75121
  24219701.4864   -2022961.88845   -634711.70161
  22136613.361   -12672458.233 7  -9748726.73922
  23041126.369    10860906.506 6   8463036.49721
  21463775.486   -12615320.373 8  -9830073.05824
 91  3 30  0 20 45.0020000  0  5G15G13G 6G19G 2
  24493081.6894   -1464180.43745  -1087353.58261
  24209427.236    -2076957.011 5   -676785.51621
  22132153.096   -12695890.575 7  -9766985.65722
  23048234.291    10898262.210 6   8492144.78522
  21464101.596   -12613602.782 8  -9828734.66424
 91  3 30  0 21  0.0020000  0  5G15G13G 6G19G 2
  24489889.830    -1480953.274 5  -1100423.24921
  24199158.822    -2130912.492 5   -718828.52321
  22127701.369   -12719291.382 7  -9785220.00722
  23055357.424    10935684.792 6   8521305.18621
  21464437.533   -12611836.980 8  -9827358.70324
 91  3 30  0 21 15.0020000  0  5G15G13G 6G19G 2
  24486715.6274   -1497628.24145  -1113416.63861
  24188899.721    -2184825.680 5   -760838.52321
  22123254.150   -12742658.035 7  -9803427.73822
  23062490.2754   10973176.70646   8550519.60461
  21464783.314   -12610020.537 8  -9825943.27224
 91  3 30  0 21 30.0020000  0  5G15G13G 6G19G 2
  24483564.1584   -1514204.44945  -1126333.07561
  24178648.2364   -2238695.72645   -802814.93861
  22118813.713   -12765990.097 7  -9821608.52223
  23069643.096    11010738.265 6   8579788.29921
  21465138.697   -12608153.304 8  -9824488.27524
 91  3 30  0 21 45.0020000  0  5G15G13G 6G19G 2
  24480426.197    -1530682.457 5  -1139173.00421
  24168406.291    -2292523.101 5   -844758.06221
  22114381.307   -12789287.976 7  -9839762.66622
  23076799.7214   11048368.83346   8609110.76361
  21465503.572   -12606235.960 8  -9822994.22824
 91  3 30  0 22  0.0020000  0  5G15G13G 6G19G 2
  24477311.283    -1547061.374 5  -1151935.71921
  24158170.596    -2346306.687 5   -886667.12321
  22109953.299   -12812550.778 7  -9857889.47622
  23083974.666    11086068.776 6   8638487.28621
  21465878.096   -12604267.947 8  -9821460.69824
 91  3 30  0 22 15.0020000  0  5G15G13G 6G19G 2
  24474208.3074   -1563342.00445  -1164621.83661
  24147942.3464   -2400047.13145   -928542.53461
  22105533.752   -12835779.245 7  -9875989.53822
  23091159.971    11123837.230 6   8667917.19321
  21466262.283   -12602250.209 8  -9819888.42124
 91  3 30  0 22 30.0020000  0  5G15G13G 6G19G 2
  24471132.1504   -1579525.26745  -1177232.09361
  24137725.1974   -2453745.38045   -970385.04461
  22101119.979   -12858974.493 7  -9894063.70623
  23098362.252    11161672.857 6   8697399.44721
  21466654.971   -12600184.252 8  -9818278.57224
 91  3 30  0 22 45.0020000  0  5G15G13G 6G19G 2
  24468071.596    -1595605.718 5  -1189762.23821
  24127516.6354   -2507395.87245  -1012190.39861
  22096713.393   -12882131.137 7  -9912107.80422
  23105574.299    11199580.770 6   8726938.03121
  21467058.924   -12598065.031 8  -9816627.21724
 91  3 30  0 23  0.0020000  0  5G15G13G 6G19G 2
  24465030.4324   -1611587.56445  -1202215.55161
  24117315.330    -2561002.637 5  -1053961.64421
  22092313.010   -12905253.627 7  -9930125.28022
  23112803.283    11237556.109 6   8756529.14821
  21467471.697   -12595897.261 8  -9814938.02824
 91  3 30  0 23 15.0020000  0  5G15G13G 6G19G 2
  24462008.1274   -1627472.33245  -1214593.21361
  24107120.5964   -2614567.57145  -1095700.31461
  22087918.697   -12928343.602 7  -9948117.41923
  23120039.0644   11275596.93146   8786171.29361
  21467892.643   -12593682.840 8  -9813212.49124
 91  3 30  0 23 30.0020000  0  5G15G13G 6G19G 2
  24459003.0964   -1643254.00545  -1226890.53961
  24096935.877    -2668084.256 5  -1137401.38021
  22083533.0574  -12951394.93947  -9966079.46363
  23127293.9944   11313709.31446   8815869.19361
  21468323.8694  -12591415.95448  -9811446.07964
 91  3 30  0 23 45.0020000  0  5G15G13G 6G19G 2
  24456021.4084   -1658932.69245  -1239107.59261
  24086761.0414   -2721552.64045  -1179064.80461
  22079154.221   -12974407.811 7  -9984011.53023
  23134558.1744   11351892.76646   8845622.47061
  21468764.783   -12589096.995 8  -9809639.08124
 91  3 30  0 24  0.0020000  0  5G15G13G 6G19G 2
  24453056.486    -1674512.376 5  -1251247.54221
  24076595.0804   -2774976.82545  -1220693.81561
  22074781.0024  -12997386.41447 -10001916.88863
  23141839.9864   11390142.79046   8875427.61261
  21469215.900   -12586730.397 8  -9807794.96824
 91  3 30  0 24 15.0020000  0  5G15G13G 6G19G 2
  24450109.080    -1689994.288 5  -1263311.28121
  24066436.549    -2828357.834 5  -1262289.17221
  22070414.7684  -13020331.81547 -10019796.38263
  23149127.8304   11428458.05846   8905283.60661
  21469674.994   -12584317.613 8  -9805914.86524
 91  3 30  0 24 30.0020000  0  5G15G13G 6G19G 2
  24447184.3544   -1705375.96545  -1275296.92561
  24056287.971    -2881693.174 5  -1303848.91021
  22066055.150   -13043241.682 7 -10037648.18423
  23156434.0644   11466840.55846   8935191.98961
  21470143.330   -12581856.693 8  -9803997.25324
 91  3 30  0 24 45.0020000  0  5G15G13G 6G19G 2
  24444276.025    -1720654.442 5  -1287202.14721
  24046145.768    -2934980.020 5  -1345370.91621
  22061701.650   -13066113.374 7 -10055470.22823
  23163750.7294   11505292.67446   8965154.61961
  21470621.3144  -12579345.33948  -9802040.34464
 91  3 30  0 25  0.0020000  0  5G15G13G 6G19G 2
  24441389.143    -1735829.548 5  -1299026.82821
  24036014.955    -2988218.209 5  -1386854.96821
  22057356.5104  -13088946.75147 -10073262.43063
  23171081.0644   11543814.31146   8995171.40861
  21471108.4944  -12576783.68648  -9800044.24264
 91  3 30  0 25 15.0020000  0  5G15G13G 6G19G 2
  24438517.768    -1750903.920 5  -1310773.01221
  24025894.033    -3041409.942 5  -1428302.83821
  22053018.299   -13111744.420 7 -10091026.80223
  23178423.7214   11582402.70946   9025240.22661
  21471605.033   -12574174.492 8  -9798011.09224
 91  3 30  0 25 30.0020000  0  5G15G13G 6G19G 2
  24435672.2604   -1765873.28545  -1322437.36761
  24015780.5644   -3094550.91645  -1469711.13261
  22048687.635   -13134502.249 7 -10108760.12923
  23185782.5104   11621061.58046   9055363.95761
  21472110.697   -12571513.753 8  -9795937.77824
 91  3 30  0 25 45.0020000  0  5G15G13G 6G19G 2
  24432841.7604   -1780737.98545  -1334020.17261
  24005677.7364   -3147641.39045  -1511080.10661
  22044364.510   -13157220.518 7 -10126462.63023
  23193149.361    11659790.293 6   9085542.10421
  21472627.432   -12568802.310 8  -9793824.95324
 91  3 30  0 26  0.0020000  0  5G15G13G 6G19G 2
  24430031.9164   -1795497.93545  -1345521.36661
  23995583.510    -3200681.393 5  -1552409.76821
  22040049.799   -13179899.319 7 -10144134.37823
  23200533.3464   11698588.57846   9115774.47061
  21473152.197   -12566040.592 8  -9791672.95424
 91  3 30  0 26 15.0020000  0  5G15G13G 6G19G 2
  24427243.002    -1810146.848 5  -1356936.03021
  23985503.346    -3253664.474 5  -1593695.08321
  22035742.549   -13202532.491 7 -10161770.56723
  23207929.4864   11737462.37846   9146065.67461
  21473688.158   -12563222.538 8  -9789477.05224
 91  3 30  0 26 30.0020000  0  5G15G13G 6G19G 2
  24424477.705    -1824690.708 6  -1368268.84021
  23975430.213    -3306596.548 5  -1634940.62221
  22031442.314   -13225125.900 7 -10179375.77522
  23215343.494    11776405.417 6   9176410.82821
  21474234.822   -12560354.350 8  -9787242.08724
 91  3 30  0 26 45.0020000  0  5G15G13G 6G19G 2
  24421730.572    -1839132.258 5  -1379521.93821
  23965366.1274   -3359480.18245  -1676148.42561
  22027150.361   -13247682.388 7 -10196952.21623
  23222763.5104   11815414.82446   9206807.69761
  21474789.400   -12557439.273 8  -9784970.58224
 91  3 30  0 27  0.0020000  0  5G15G13G 6G19G 2
  24419002.658    -1853464.538 6  -1390689.86621
  23955314.447    -3412308.094 5  -1717312.81621
  22022866.768   -13270194.859 7 -10214494.35123
  23230203.4324   11854497.20246   9237261.43061
  21475354.400   -12554470.588 8  -9782657.30724
 91  3 30  0 27 15.0020000  0  5G15G13G 6G19G 2
  24416295.439    -1867690.092 6  -1401774.65421
  23945270.6744   -3465082.93545  -1758435.87461
  22018590.299   -13292666.083 7 -10232004.35023
  23237651.7914   11893649.57546   9267769.70561
  21475928.971   -12551451.388 8  -9780304.66624
 91  3 30  0 27 30.0020000  0  5G15G13G 6G19G 2
  24413608.1504   -1881811.05646  -1412777.94161
  23935236.783    -3517806.784 5  -1799519.19021
  22014321.244   -13315098.230 7 -10249483.89323
  23245118.0644   11932869.42746   9298330.55861
  21476513.502   -12548383.943 8  -9777914.43824
 91  3 30  0 27 45.0020000  0  5G15G13G 6G19G 2
  24410939.8614   -1895826.35846  -1423698.89361
  23925213.455    -3570478.531 5  -1840561.88821
  22010060.846   -13337490.312 7 -10266932.21723
  23252591.5884   11972157.57746   9328944.63561
  21477105.963   -12545267.636 8  -9775486.12924
 91  3 30  0 28  0.0020000  0  5G15G13G 6G19G 2
  24408295.658    -1909732.128 6  -1434534.48621
  23915200.791    -3623094.273 5  -1881560.95221
  22005808.197   -13359838.624 7 -10284346.43523
  23260083.7914   12011517.38346   9359614.55261
  21477708.619   -12542099.236 8  -9773017.22724
 91  3 30  0 28 15.0020000  0  5G15G13G 6G19G 2
  24405666.635    -1923534.120 5  -1445289.22721
  23905198.8854   -3675659.79445  -1922520.90761
  22001562.721   -13382149.004 7 -10301731.09323
  23267585.2054   12050942.79846   9390335.59261
  21478320.479   -12538884.556 8  -9770512.26424
 91  3 30  0 28 30.0020000  0  5G15G13G 6G19G 2
  24403062.4634   -1937229.43845  -1455960.83461
  23895205.479    -3728171.890 5  -1963439.22221
  21997324.924   -13404418.457 7 -10319083.86722
  23275103.4864   12090436.40045   9421109.76961
  21478941.689   -12535620.966 8  -9767969.19124
 91  3 30  0 28 45.0020000  0  5G15G13G 6G19G 2
  24400475.299    -1950821.532 5  -1466551.99821
  23885219.2134   -3780633.93345  -2004318.52461
  21993094.049   -13426650.434 7 -10336407.43823
  23282626.7444   12129994.37246   9451934.09361
  21479571.643   -12532312.362 8  -9765391.04124
 91  3 30  0 29  0.0020000  0  5G15G13G 6G19G 2
  24397907.596    -1964307.938 5  -1477060.83121
  23875247.564    -3833043.233 5  -2045156.73021
  21988871.182   -13448842.485 7 -10353699.88922
  23290172.814    12169618.854 5   9482810.24221
  21480209.939   -12528956.567 8  -9762776.12124
 91  3 30  0 29 15.0020000  0  5G15G13G 6G19G 2
  24395362.9634   -1977686.46945  -1487485.58161
  23865286.104    -3885397.973 5  -2085952.40321
  21984655.299   -13470992.822 7 -10370959.84523
  23297719.7684   12209311.62446   9513739.61661
  21480857.783   -12525551.968 8  -9760123.16924
 91  3 30  0 29 30.0020000  0  5G15G13G 6G19G 2
  24392837.2364   -1990957.94845  -1497826.93661
  23855331.9324   -3937698.83945  -2126706.13761
  21980449.025   -13493102.163 7 -10388187.84723
  23305290.1744   12249071.37745   9544721.17261
  21481514.588   -12522099.781 8  -9757433.12824
 91  3 30  0 29 45.0020000  0  5G15G13G 6G19G 2
  24390330.611    -2004125.545 5  -1508087.31521
  23845390.166    -3989948.644 5  -2167420.06321
  21976248.018   -13515173.588 7 -10405386.31423
  23312865.221    12288894.941 6   9575752.45021
  21482179.447   -12518603.197 8  -9754708.50024
 91  3 30  0 30  0.0020000  0  5G15G13G 6G19G 2
  24387846.4004   -2017184.78245  -1518263.26461
  23835457.4244   -4042142.69445  -2208090.52761
  21972056.643   -13537202.607 7 -10422551.73123
  23320457.4794   12328786.46045   9606836.67761
  21482854.049   -12515058.177 8  -9751946.12824
 91  3 30  0 30 15.0020000  0  5G15G13G 6G19G 2
  24385381.5724   -2030138.18045  -1528356.74261
  23825536.572    -4094283.437 5  -2248719.47721
  21967872.041   -13559191.824 7 -10439686.13923
  23328059.541    12368743.129 5   9637971.66821
  21483537.900   -12511467.572 8  -9749148.23624
 91  3 30  0 30 30.0020000  0  5G15G13G 6G19G 2
  24382936.307    -2042984.622 5  -1538366.90221
  23815624.564    -4146369.768 5  -2289306.04121
  21963695.189   -13581140.112 7 -10456788.64623
  23335677.439    12408765.557 5   9669157.90321
  21484230.189   -12507830.636 8  -9746314.24124
 91  3 30  0 30 45.0020000  0  5G15G13G 6G19G 2
  24380514.393    -2055723.309 5  -1548293.06621
  23805721.885    -4198400.660 5  -2329849.37821
  21959526.736   -13603046.639 7 -10473858.61323
  23343304.908    12448854.382 5   9700395.87121
  21484931.307   -12504146.763 8  -9743443.67424
 91  3 30  0 31  0.0020000  0  5G15G13G 6G19G 2
  24378110.416    -2068352.645 5  -1558134.02821
  23795831.557    -4250374.921 5  -2370348.59021
  21955366.541   -13624910.209 7 -10490895.11223
  23350949.932    12489010.441 5   9731686.23721
  21485640.814   -12500415.009 8  -9740535.79424
 91  3 30  0 31 15.0020000  0  5G15G13G 6G19G 2
  24375728.057    -2080870.301 6  -1567887.97521
  23785950.7364   -4302289.64145  -2410801.41961
  21951214.838   -13646728.217 7 -10507896.10223
  23358599.580    12529236.064 5   9763030.80221
  21486360.861   -12496633.164 8  -9737588.88624
 91  3 30  0 31 30.0020000  0  5G15G13G 6G19G 2
  24373367.8854   -2093279.00046  -1577557.03361
  23776083.9474   -4354147.17245  -2451209.65661
  21947070.791   -13668503.414 7 -10524863.73423
  23366272.838    12569528.231 5   9794427.21521
  21487089.525   -12492804.254 8  -9734605.29524
 91  3 30  0 31 45.0020000  0  5G15G13G 6G19G 2
  24371024.635    -2105582.512 6  -1587144.10321
  23766226.986    -4405951.617 5  -2491576.55621
  21942934.611   -13690239.582 7 -10541800.95623
  23373948.252    12609883.003 5   9825872.41721
  21487825.471   -12488932.496 8  -9731588.32724
 91  3 30  0 32  0.0020000  0  5G15G13G 6G19G 2
  24368705.049    -2117772.802 6  -1596642.97021
  23756380.5024   -4457694.80545  -2531895.69761
  21938806.838   -13711928.706 7 -10558701.52323
  23381640.643    12650307.840 5   9857372.21421
  21488572.268   -12485010.168 8  -9728531.94724
 91  3 30  0 32 15.0020000  0  5G15G13G 6G19G 2
  24366406.2914   -2129853.50646  -1606056.42861
  23746542.768    -4509380.367 5  -2572169.95221
  21934687.572   -13733574.480 7 -10575568.30923
  23389345.643    12690798.870 5   9888923.58921
  21489327.322   -12481041.043 8  -9725439.10524
 91  3 30  0 32 30.0020000  0  5G15G13G 6G19G 2
  24364129.1744   -2141819.61346  -1615380.61061
  23736719.4394   -4561003.34345  -2612395.42361
  21930577.783   -13755172.013 7 -10592397.50623
  23397068.994    12731360.699 5   9920530.13121
  21490093.283   -12477020.616 8  -9722306.29024
 91  3 30  0 32 45.0020000  0  5G15G13G 6G19G 2
  24361875.033    -2153674.807 6  -1624618.36621
  23726908.1584   -4612567.13645  -2652574.79861
  21926475.330   -13776725.020 7 -10609192.00623
  23404795.119    12771989.349 5   9952188.74521
  21490866.604   -12472952.960 8  -9719136.67124
 91  3 30  0 33  0.0020000  0  5G15G13G 6G19G 2
  24359638.033    -2165418.892 6  -1633769.53621
  23717108.736    -4664071.390 5  -2692707.76521
  21922383.455   -13798233.319 7 -10625951.66923
  23412540.197    12812684.703 6   9983899.33521
  21491649.533   -12468838.163 8  -9715930.31524
 91  3 30  0 33 15.0020000  0  5G15G13G 6G19G 2
  24357424.924    -2177055.133 5  -1642836.67521
  23707315.5254   -4715519.18345  -2732796.76461
  21918299.041   -13819700.142 7 -10642679.01423
  23420296.807    12853443.125 6  10015659.06921
  21492441.182   -12464679.682 8  -9712689.92524
 91  3 30  0 33 30.0020000  0  5G15G13G 6G19G 2
  24355229.7994   -2188576.36545  -1651814.19161
  23697538.7054   -4766903.27645  -2772836.08661
  21914222.689   -13841118.252 7 -10659368.40123
  23428067.939    12894271.461 5  10047473.27921
  21493242.510   -12460470.682 8  -9709410.16624
 91  3 30  0 33 45.0020000  0  5G15G13G 6G19G 2
  24353060.8614   -2199987.68145  -1660706.08561
  23687770.9474   -4818228.68545  -2812829.70561
  21910154.939   -13862492.769 7 -10676023.81923
  23435847.643    12935164.480 6  10079337.89421
  21494051.783   -12456216.698 8  -9706095.35924
 91  3 30  0 34  0.0020000  0  5G15G13G 6G19G 2
  24350909.6664   -2211283.15745  -1669507.68861
  23678016.650    -4869489.607 5  -2852773.05521
  21906097.494   -13883818.014 7 -10692640.84223
  23443646.5574   12976127.42345  10111256.99861
  21494870.596   -12451912.170 8  -9702741.16524
 91  3 30  0 34 15.0020000  0  5G15G13G 6G19G 2
  24348782.2364   -2222469.72745  -1678224.44461
  23668270.3544   -4920692.76645  -2892671.41461
  21902047.791   -13905100.750 7 -10709224.74423
  23451448.6434   13017153.23446  10143225.09361
  21495698.479   -12447564.225 8  -9699353.14024
 91  3 30  0 34 30.0020000  0  5G15G13G 6G19G 2
  24346673.6194   -2233543.32645  -1686853.15961
  23658540.2214   -4971833.68545  -2932521.28461
  21898005.791   -13926336.939 7 -10725772.37823
  23459269.994    13058245.515 5  10175244.98221
  21496534.236   -12443169.180 8  -9695928.41224
 91  3 30  0 34 45.0020000  0  5G15G13G 6G19G 2
  24344590.283    -2244502.410 5  -1695392.66221
  23648821.4084   -5022910.91545  -2972321.50861
  21893974.189   -13947525.012 7 -10742282.51723
  23467101.314    13099405.684 5  10207317.76721
  21497379.697   -12438725.855 8  -9692466.06524
 91  3 30  0 35  0.0020000  0  5G15G13G 6G19G 2
  24342525.7604   -2255347.27445  -1703843.13561
  23639113.166    -5073924.752 5  -3012072.33721
  21889951.775   -13968665.287 7 -10758755.40523
  23474948.3224   13140633.16845  10239443.00761
  21498234.799   -12434234.941 8  -9688966.63524
 91  3 30  0 35 15.0020000  0  5G15G13G 6G19G 2
  24340483.4864   -2266076.59345  -1712203.58761
  23629417.283    -5124873.631 6  -3051772.55321
  21885938.119   -13989756.443 7 -10775190.02723
  23482805.158    13181928.920 5  10271621.43521
  21499098.104   -12429695.160 8  -9685429.12724
 91  3 30  0 35 30.0020000  0  5G15G13G 6G19G 2
  24338461.6434   -2276693.76945  -1720476.66961
  23619735.111    -5175760.858 6  -3091424.73621
  21881933.041   -14010801.731 7 -10791588.90223
  23490677.791    13223289.205 5  10303850.15921
  21499970.744   -12425110.160 8  -9681856.38224
 91  3 30  0 35 45.0020000  0  5G15G13G 6G19G 2
  24336464.885    -2287193.363 5  -1728658.11421
  23610063.8464   -5226580.93045  -3131024.55861
  21877938.104   -14031795.954 7 -10807947.99123
  23498560.4394   13264719.03246  10336133.07361
  21500853.338   -12420474.931 8  -9678244.50024
 91  3 30  0 36  0.0020000  0  5G15G13G 6G19G 2
  24334489.3464   -2297578.98145  -1736750.75161
  23600405.0414   -5277337.41746  -3170574.86661
  21873951.830   -14052742.842 7 -10824270.18723
  23506456.854    13306214.275 5  10368466.95121
  21501743.916   -12415793.729 8  -9674596.79324
 91  3 30  0 36 15.0020000  0  5G15G13G 6G19G 2
  24332533.447    -2307851.066 5  -1744754.93621
  23590756.783    -5328030.270 6  -3210075.59121
  21869973.900   -14073642.629 7 -10840555.68923
  23514364.111    13347774.417 5  10400851.40221
  21502642.994   -12411066.915 8  -9670913.54524
 91  3 30  0 36 30.0020000  0  5G15G13G 6G19G 2
  24330601.150    -2318010.764 5  -1752671.51121
  23581123.736    -5378660.898 6  -3249527.83221
  21866006.572   -14094496.520 7 -10856805.42823
  23522288.611    13389397.962 5  10433285.26221
  21503551.064   -12406296.089 8  -9667196.00224
 91  3 30  0 36 45.0020000  0  5G15G13G 6G19G 2
  24328689.447    -2328053.586 5  -1760497.03321
  23571501.736    -5429224.306 6  -3288927.66821
  21862047.455   -14115299.828 7 -10873015.75123
  23530219.049    13431089.255 5  10465771.90821
  21504468.252   -12401476.867 8  -9663440.74624
 91  3 30  0 37  0.0020000  0  5G15G13G 6G19G 2
  24326800.604    -2337976.840 5  -1768229.39121
  23561891.979    -5479718.177 6  -3328273.35621
  21858098.846   -14136050.139 7 -10889184.77623
  23538167.010    13472850.521 5  10498313.07721
  21505394.791   -12396607.100 8  -9659646.10924
 91  3 30  0 37 15.0020000  0  5G15G13G 6G19G 2
  24324934.7754   -2347785.21445  -1775872.21861
  23552295.7134   -5530146.79446  -3367568.18461
  21854158.486   -14156751.956 7 -10905316.01623
  23546125.6824   13514676.82945  10530904.94161
  21506330.479   -12391691.618 8  -9655815.85024
 91  3 30  0 37 30.0020000  0  5G15G13G 6G19G 2
  24323091.900    -2357475.971 6  -1783423.40621
  23542711.6974   -5580507.63746  -3406810.20161
  21850229.057   -14177402.748 7 -10921407.49323
  23554099.682    13556570.421 5  10563549.22221
  21507273.869   -12386728.224 8  -9651948.25524
 91  3 30  0 37 45.0020000  0  5G15G13G 6G19G 2
  24321268.7914   -2367049.67346  -1790883.37161
  23533141.2914   -5630801.24146  -3445999.84861
  21846308.596   -14198003.124 7 -10937459.68623
  23562083.064    13598530.274 5  10596245.13921
  21508227.682   -12381717.953 8  -9648044.13224
 91  3 30  0 38  0.0020000  0  5G15G13G 6G19G 2
  24319470.0724   -2376502.89546  -1798249.46261
  23523584.158    -5681023.641 6  -3485133.99021
  21842399.096   -14218549.226 7 -10953469.59423
  23570084.0184   13640559.93745  10628995.45661
  21509190.775   -12376657.181 8  -9644100.65924
 91  3 30  0 38 15.0020000  0  5G15G13G 6G19G 2
  24317691.955    -2385839.673 6  -1805524.81721
  23514038.2994   -5731178.72146  -3524215.68461
  21838498.330   -14239045.220 7 -10969440.44923
  23578090.838    13682654.938 5  10661796.68021
  21510162.674   -12371550.439 8  -9640121.36724
 91  3 30  0 38 30.0020000  0  5G15G13G 6G19G 2
  24315939.025    -2395057.876 6  -1812707.77521
  23504508.088    -5781264.230 6  -3563243.17021
  21834608.791   -14259488.920 7 -10985370.56223
  23586115.205    13724817.012 5  10694650.17321
  21511143.463   -12366395.762 8  -9636104.71924
 91  3 30  0 38 45.0020000  0  5G15G13G 6G19G 2
  24314207.252    -2404156.982 5  -1819797.94021
  23494992.0104   -5831279.48646  -3602215.92061
  21830728.643   -14279879.746 7 -11001259.47023
  23594149.893    13767046.397 5  10727556.11421
  21512133.408   -12361192.862 8  -9632050.49724
 91  3 30  0 39  0.0020000  0  5G15G13G 6G19G 2
  24312497.9004   -2413139.98445  -1826797.62061
  23485486.9084   -5881227.34746  -3641136.13561
  21826857.689   -14300220.855 7 -11017109.63723
  23602200.4164   13809339.71445  10760511.87861
  21513131.510   -12355945.076 8  -9627961.30224
 91  3 30  0 39 15.0020000  0  5G15G13G 6G19G 2
  24310808.8074   -2422007.87945  -1833707.61961
  23475993.846    -5931109.078 6  -3680004.85821
  21822995.994   -14320513.278 7 -11032921.87023
  23610257.830    13851695.565 5  10793516.36121
  21514139.104   -12350653.961 8  -9623838.34124
 91  3 30  0 39 30.0020000  0  5G15G13G 6G19G 2
  24309144.6664   -2430757.56645  -1840525.51361
  23466515.971    -5980921.773 6  -3718819.78321
  21819144.963   -14340754.080 7 -11048693.87723
  23618331.580    13894116.622 5  10826571.64721
  21515154.518   -12345316.873 8  -9619679.55524
 91  3 30  0 39 45.0020000  0  5G15G13G 6G19G 2
  24307503.4324   -2439385.21745  -1847248.30561
  23457051.057    -6030660.928 6  -3757577.40021
  21815303.135   -14360939.199 7 -11064422.49423
  23626415.564    13936606.601 5  10859680.64921
  21516180.439   -12339929.932 8  -9615481.92424
 91  3 30  0 40  0.0020000  0  5G15G13G 6G19G 2
  24305881.447    -2447895.375 5  -1853879.53921
  23447598.932    -6080331.016 6  -3796281.20521
  21811471.900   -14381073.103 7 -11080111.19923
  23634514.7754   13979160.58945  10892839.51061
  21517213.127   -12334498.152 8  -9611249.35524
 91  3 30  0 40 15.0020000  0  5G15G13G 6G19G 2
  24304285.135    -2456287.921 5  -1860419.12321
  23438158.432    -6129931.771 6  -3834930.96921
  21807650.377   -14401155.480 7 -11095759.75723
  23642625.260    14021778.514 5  10926048.20721
  21518255.244   -12329021.417 8  -9606981.75924
 91  3 30  0 40 30.0020000  0  5G15G13G 6G19G 2
  24302711.5334   -2464563.10045  -1866867.25261
  23428733.604    -6179463.251 6  -3873526.76421
  21803838.752   -14421186.602 7 -11111368.37423
  23650748.2294   14064459.87045  10959306.32561
  21519305.854   -12323500.151 8  -9602679.46124
 91  3 30  0 40 45.0020000  0  5G15G13G 6G19G 2
  24301161.1114   -2472717.43345  -1873221.23361
  23419321.518    -6228921.667 6  -3912065.63421
  21800036.588   -14441162.868 7 -11126934.24623
  23658880.744    14107207.942 5  10992616.43721
  21520366.080   -12317931.253 8  -9598340.04624
 91  3 30  0 41  0.0020000  0  5G15G13G 6G19G 2
  24299631.096    -2480752.848 5  -1879482.55721
  23409924.064    -6278308.932 6  -3950549.05521
  21796246.174   -14461086.256 7 -11142458.91523
  23667032.885    14150020.504 5  11025976.79421
  21521433.580   -12312316.957 8  -9593965.25624
 91  3 30  0 41 15.0020000  0  5G15G13G 6G19G 2
  24298124.7524   -2488670.75445  -1885652.30761
  23400539.0964   -6327626.57446  -3988978.22861
  21792464.236   -14480958.221 7 -11157943.51624
  23675187.119    14192895.654 5  11059385.91821
  21522511.080   -12306658.982 8  -9589556.43524
 91  3 30  0 41 30.0020000  0  5G15G13G 6G19G 2
  24296640.424    -2496467.286 5  -1891727.47421
  23391168.4324   -6376870.59346  -4027350.03861
  21788692.557   -14500775.000 7 -11173385.11324
  23683362.104    14235836.716 5  11092846.40621
  21523597.010   -12300953.961 8  -9585110.95024
 91  3 30  0 41 45.0020000  0  5G15G13G 6G19G 2
  24295179.549    -2504144.155 5  -1897709.40121
  23381810.494    -6426042.606 6  -4065665.73721
  21784932.939   -14520538.253 7 -11188785.00524
  23691541.330    14278841.738 5  11126356.73321
  21524690.924   -12295203.831 8  -9580630.31424
 91  3 30  0 42  0.0020000  0  5G15G13G 6G19G 2
  24293740.8934   -2511701.84345  -1903598.45861
  23372466.1194   -6475142.79446  -4103925.46661
  21781181.189   -14540248.189 7 -11204143.34724
  23699742.541    14321910.196 5  11159916.49421
  21525793.221   -12289409.276 8  -9576115.06524
 91  3 30  0 42 15.0020000  0  5G15G13G 6G19G 2
  24292323.869    -2519144.966 5  -1909398.25821
  23363135.0494   -6524175.76046  -4142132.82461
  21777439.627   -14559909.612 7 -11219463.89024
  23707944.541    14365036.934 6  11193521.66321
  21526903.252   -12283575.306 8  -9571569.09824
 91  3 30  0 42 30.0020000  0  5G15G13G 6G19G 2
  24290930.627    -2526469.018 5  -1915105.27621
  23353818.8934   -6573136.83346  -4180284.14661
  21773708.682   -14579517.928 7 -11234743.04924
  23716165.3774   14408226.29046  11227175.61661
  21528021.955   -12277697.583 8  -9566989.03924
 91  3 30  0 42 45.0020000  0  5G15G13G 6G19G 2
  24289562.2754   -2533666.61845  -1920713.76461
  23344517.7054   -6622018.53846  -4218373.63261
  21769988.650   -14599065.757 7 -11249975.07724
  23724396.299    14451485.305 6  11260883.85521
  21529149.939   -12271769.095 8  -9562369.42824
 91  3 30  0 43  0.0020000  0  5G15G13G 6G19G 2
  24288215.674    -2540741.346 5  -1926226.49021
  23335230.4714   -6670824.25346  -4256403.91861
  21766280.455   -14618556.508 7 -11265162.62724
  23732641.9714   14494810.05245  11294643.30361
  21530287.291   -12265793.295 8  -9557712.95524
 91  3 30  0 43 15.0020000  0  5G15G13G 6G19G 2
  24286893.0414   -2547694.47146  -1931644.47461
  23325957.510    -6719554.949 6  -4294375.73321
  21762581.479   -14637991.453 7 -11280306.69324
  23740896.705    14538199.086 6  11328452.85321
  21531432.986   -12259771.784 8  -9553020.85024
 91  3 30  0 43 30.0020000  0  5G15G13G 6G19G 2
  24285592.1664   -2554526.56046  -1936968.14361
  23316697.0574   -6768211.04046  -4332289.42361
  21758893.783   -14657371.218 7 -11295407.76324
  23749170.432    14581651.254 5  11362311.60521
  21532587.057   -12253705.729 8  -9548294.04324
 91  3 30  0 43 45.0020000  0  5G15G13G 6G19G 2
  24284315.3544   -2561237.40946  -1942197.34661
  23307452.9004   -6816792.49546  -4370144.94761
  21755215.666   -14676695.427 7 -11310465.54524
  23757446.6824   14625166.53846  11396219.53761
  21533750.479   -12247595.028 8  -9543532.43924
 91  3 30  0 44  0.0020000  0  5G15G13G 6G19G 2
  24283061.1744   -2567825.79546  -1947331.11161
  23298222.0494   -6865297.55346  -4407940.95061
  21751549.604   -14695962.587 7 -11325478.87224
  23765743.330    14668746.346 5  11430177.74621
  21534921.830   -12241438.436 8  -9538735.08424
 91  3 30  0 44 15.0020000  0  5G15G13G 6G19G 2
  24281831.2684   -2574289.26346  -1952367.53561
  23289005.783    -6913723.374 6  -4445675.19921
  21747895.330   -14715170.080 7 -11340445.70724
  23774044.6354   14712392.84845  11464187.91761
  21536102.510   -12235233.804 8  -9533900.29424
 91  3 30  0 44 30.0020000  0  5G15G13G 6G19G 2
  24280624.2994   -2580630.06146  -1957308.38561
  23279807.0334   -6962072.52446  -4483349.71061
  21744250.322   -14734320.331 7 -11355367.93824
  23782363.721    14756103.244 5  11498247.85821
  21537292.150   -12228983.956 8  -9529030.26924
 91  3 30  0 44 45.0020000  0  5G15G13G 6G19G 2
  24279440.7054   -2586848.56046  -1962153.92261
  23270619.932    -7010345.408 6  -4520964.79021
  21740617.361   -14753413.965 7 -11370246.05124
  23790692.354    14799876.552 5  11532356.84621
  21538489.744   -12222689.731 8  -9524125.66624
 91  3 30  0 45  0.0020000  0  5G15G13G 6G19G 2
  24278280.5494   -2592945.89646  -1966905.06061
  23261448.205    -7058543.202 6  -4558521.37021
  21736993.877   -14772452.148 7 -11385080.95524
  23799038.971    14843711.247 5  11566513.66421
  21539695.643   -12216352.400 8  -9519187.47624
 91  3 30  0 45 15.0020000  0  5G15G13G 6G19G 2
  24277143.7294   -2598920.90846  -1971560.87661
  23252290.8074   -7106664.47346  -4596018.30561
  21733382.682   -14791433.200 7 -11399871.34524
  23807387.627    14887608.500 5  11600719.23221
  21540910.174   -12209970.778 8  -9514214.77024
 91  3 30  0 45 30.0020000  0  5G15G13G 6G19G 2
  24276029.1824   -2604773.64746  -1976121.41861
  23243146.8774   -7154708.93546  -4633455.42061
  21729780.822   -14810357.325 7 -11414617.37024
  23815753.900    14931567.823 5  11634973.16821
  21542132.244   -12203545.435 8  -9509207.99524
 91  3 30  0 45 45.0020000  0  5G15G13G 6G19G 2
  24274941.2994   -2610500.53746  -1980583.89361
  23234021.6274   -7202673.03246  -4670829.89761
  21726191.018   -14829220.964 7 -11429316.26324
  23824130.9554   14975592.38245  11669277.92661
  21543363.8144  -12197073.07148  -9504164.58564
 91  3 30  0 46  0.0020000  0  5G15G13G 6G19G 2
  24273871.7994   -2616105.46945  -1984951.33761
  23224908.2054   -7250560.23846  -4708144.44061
  21722612.838   -14848027.577 7 -11443970.72624
  23832520.6584   15019678.41645  11703630.59261
  21544604.010   -12190557.466 8  -9499087.48124
 91  3 30  0 46 15.0020000  0  5G15G13G 6G19G 2
  24272830.4794   -2621582.67545  -1989219.25661
  23215810.8694   -7298364.51146  -4745394.37661
  21719045.783   -14866771.485 7 -11458576.32324
  23840922.299    15063831.371 5  11738035.41421
  21545852.604   -12183993.060 8  -9493972.34424
 91  3 30  0 46 30.0020000  0  5G15G13G 6G19G 2
  24271811.963    -2626936.080 5  -1993390.69921
  23206728.955    -7346089.683 6  -4782582.67821
  21715490.252   -14885456.495 7 -11473136.03124
  23849340.189    15108047.018 5  11772489.08721
  21547110.1044  -12177384.03548  -9488822.44464
 91  3 30  0 46 45.0020000  0  5G15G13G 6G19G 2
  24270816.9244   -2632163.36345  -1997463.87261
  23197663.174    -7393733.418 6  -4819707.50421
  21711945.744   -14904080.448 7 -11487648.15924
  23857761.5724   15152327.11245  11806992.96161
  21548377.1434  -12170728.53248  -9483636.33263
 91  3 30  0 47  0.0020000  0  5G15G13G 6G19G 2
  24269847.525    -2637259.439 5  -2001434.79821
  23188613.0184   -7441290.54446  -4856764.84861
  21708414.4004  -14922638.22147 -11502108.72064
  23866202.885    15196676.376 5  11841550.74521
  21549653.596   -12164021.928 8  -9478410.39524
 91  3 30  0 47 15.0020000  0  5G15G13G 6G19G 2
  24268901.7604   -2642229.79945  -2005307.76461
  23179579.0884   -7488766.43146  -4893758.90161
  21704893.9324  -14941135.04147 -11516521.78864
  23874653.1044   15241089.29945  11876158.13461
  21550938.5964  -12157269.73048  -9473148.93164
 91  3 30  0 47 30.0020000  0  5G15G13G 6G19G 2
  24267979.2684   -2647078.30945  -2009085.78461
  23170558.9634   -7536164.80646  -4930692.54161
  21701385.244   -14959574.767 7 -11530890.36624
  23883117.939    15285561.644 5  11910811.83221
  21552231.4084  -12150475.96248  -9467855.07964
 91  3 30  0 47 45.0020000  0  5G15G13G 6G19G 2
  24267080.3694   -2651803.91645  -2012768.03961
  23161554.229    -7583484.297 6  -4967564.71621
  21697888.236   -14977956.095 7 -11545213.43424
  23891590.119    15330094.337 5  11945512.55121
  21553531.9474  -12143639.65248  -9462528.07063
 91  3 30  0 48  0.0020000  0  5G15G13G 6G19G 2
  24266205.994    -2656399.366 5  -2016348.86421
  23152566.0104   -7630717.79446  -5004369.89861
  21694401.9004  -14996271.95147 -11559485.49064
  23900079.150    15374693.917 5  11980265.39021
  21554842.1114  -12136754.26348  -9457162.82763
 91  3 30  0 48 15.0020000  0  5G15G13G 6G19G 2
  24265355.330    -2660865.420 5  -2019828.85121
  23143593.822    -7677866.133 6  -5041108.71621
  21690928.8854  -15014523.14247 -11573707.16164
  23908578.439    15419359.405 5  12015069.59021
  21556161.9794  -12129820.81748  -9451760.13363
 91  3 30  0 48 30.0020000  0  5G15G13G 6G19G 2
  24264530.299    -2665204.704 5  -2023210.06421
  23134637.0964   -7724931.54446  -5077782.91461
  21687468.4944  -15032712.04647 -11587880.29164
  23917090.736    15464087.970 5  12049922.93921
  21557489.838   -12122841.963 8  -9446322.05423
 91  3 30  0 48 45.0020000  0  5G15G13G 6G19G 2
  24263727.705    -2669418.202 5  -2026493.26921
  23125695.5254   -7771914.78546  -5114393.08061
  21684017.658   -15050839.479 7 -11602005.51824
  23925611.971    15508878.403 5  12084824.49421
  21558825.8384  -12115818.65548  -9440849.33963
 91  3 30  0 49  0.0020000  0  5G15G13G 6G19G 2
  24262949.760    -2673506.225 5  -2029678.69921
  23116771.682    -7818815.841 6  -5150939.20521
  21680580.5964  -15068905.55847 -11616082.94464
  23934149.9554   15553730.36945  12119773.99461
  21560171.729   -12108751.489 8  -9435342.44524
 91  3 30  0 49 15.0020000  0  5G15G13G 6G19G 2
  24262195.6894   -2677468.22346  -2032765.93061
  23107861.900    -7865633.980 6  -5187420.72421
  21677154.158   -15086909.691 7 -11630112.09824
  23942694.127    15598643.986 5  12154771.53721
  21561524.2604  -12101640.34448  -9429801.28163
 91  3 30  0 49 30.0020000  0  5G15G13G 6G19G 2
  24261465.893    -2681302.222 6  -2035753.42121
  23098967.6044   -7912367.02546  -5223835.93261
  21673740.0184  -15104849.98847 -11644091.51164
  23951254.7054   15643620.86345  12189818.36561
  21562886.361   -12094483.308 8  -9424224.35923
 91  3 30  0 49 45.0020000  0  5G15G13G 6G19G 2
  24260761.463    -2685003.863 6  -2038637.76021
  23090092.713    -7959010.656 6  -5260181.47121
  21670339.3224  -15122721.79147 -11658017.55464
  23959826.2214   15688665.07045  12224917.66561
  21564257.900   -12087276.389 8  -9418608.56423
 91  3 30  0 50  0.0020000  0  5G15G13G 6G19G 2
  24260080.4084   -2688579.71046  -2041424.10161
  23081232.869    -8005571.269 6  -5296462.32821
  21666950.4864  -15140531.73447 -11671895.39164
  23968409.5024   15733769.67045  12260064.01861
  21565636.541   -12080026.443 8  -9412959.24324
 91  3 30  0 50 15.0020000  0  5G15G13G 6G19G 2
  24259426.1434   -2692028.02446  -2044111.06761
  23072389.5574   -8052046.92446  -5332676.96461
  21663572.9004  -15158277.95147 -11685723.57464
  23977003.8614   15778936.11745  12295258.57061
  21567025.8544  -12072731.75248  -9407275.05964
 91  3 30  0 50 30.0020000  0  5G15G13G 6G19G 2
  24258793.2214   -2695344.26646  -2046695.11361
  23063561.088    -8098432.920 6  -5368821.74521
  21660208.7994  -15175955.83847 -11699498.51364
  23985612.908    15824168.718 5  12330504.66421
  21568423.338   -12065388.122 8  -9401552.73624
 91  3 30  0 50 45.0020000  0  5G15G13G 6G19G 2
  24258185.752    -2698534.181 6  -2049180.70021
  23054750.6434   -8144734.80246  -5404900.98961
  21656857.1744  -15193571.00647 -11713224.58064
  23994230.486    15869461.556 5  12365797.71821
  21569828.307   -12058001.411 8  -9395796.84824
 91  3 30  0 51  0.0020000  0  5G15G13G 6G19G 2
  24257603.408    -2701600.617 6  -2051570.09721
  23045954.189    -8190955.352 6  -5440916.86021
  21653516.9004  -15211126.06447 -11726903.80963
  24002861.1114   15914811.52045  12401135.26561
  21571241.330   -12050574.437 8  -9390009.58224
 91  3 30  0 51 15.0020000  0  5G15G13G 6G19G 2
  24257045.4794   -2704538.37646  -2053859.22461
  23037175.080    -8237089.234 6  -5476865.17321
  21650188.4164  -15228615.73247 -11740532.08863
  24011500.9394   15960223.58445  12436521.19661
  21572663.455   -12043102.426 8  -9384187.22024
 91  3 30  0 51 30.0020000  0  5G15G13G 6G19G 2
  24256509.729    -2707345.476 6  -2056046.53521
  23028412.783    -8283134.231 6  -5512744.25621
  21646873.0254  -15246038.17747 -11754107.98163
  24020156.5804   16005699.23845  12471956.67461
  21574094.143   -12035583.813 8  -9378328.54624
 91  3 30  0 51 45.0020000  0  5G15G13G 6G19G 2
  24256000.596    -2710025.566 6  -2058134.87021
  23019667.1664   -8329094.08346  -5548556.96961
  21643569.5884  -15263396.98047 -11767634.28463
  24028818.619    16051234.353 5  12507438.48521
  21575534.111   -12028022.453 8  -9372436.56324
 91  3 30  0 52  0.0020000  0  5G15G13G 6G19G 2
  24255516.0104   -2712577.37646  -2060123.25561
  23010938.682    -8374967.203 6  -5584302.09521
  21640278.5884  -15280690.69547 -11781109.87063
  24037498.9634   16096830.21345  12542967.64261
  21576980.471   -12020417.218 8  -9366510.38824
 91  3 30  0 52 15.0020000  0  5G15G13G 6G19G 2
  24255053.4864   -2715003.04446  -2062013.34961
  23002223.494    -8420755.241 6  -5619980.95121
  21637000.1274  -15297921.15447 -11794536.17063
  24046184.291    16142484.628 5  12578542.42321
  21578436.057   -12012770.378 8  -9360551.79524
 91  3 30  0 52 30.0020000  0  5G15G13G 6G19G 2
  24254618.5964   -2717296.78046  -2063800.63961
  22993527.9084   -8466452.46646  -5655589.02861
  21633734.6974  -15315082.54547 -11807908.64763
  24054885.9794   16188202.89145  12614166.95361
  21579899.705   -12005076.287 8  -9354556.38524
 91  3 30  0 52 45.0020000  0  5G15G13G 6G19G 2
  24254204.338    -2719461.668 6  -2065487.51821
  22984849.658    -8512062.055 6  -5691128.82121
  21630479.9554  -15332177.96247 -11821229.71363
  24063594.4244   16233981.59645  12649838.58161
  21581372.393   -11997338.399 8  -9348526.84724
 91  3 30  0 53  0.0020000  0  5G15G13G 6G19G 2
  24253817.0804   -2721498.45746  -2067074.58761
  22976186.682    -8557584.478 6  -5726600.69621
  21627240.5334  -15349208.06447 -11834499.88563
  24072319.6824   16279819.82545  12685556.58261
  21582852.752   -11989557.686 8  -9342463.93724
 91  3 30  0 53 15.0020000  0  5G15G13G 6G19G 2
  24253454.9634   -2723401.94146  -2068557.77961
  22967541.689    -8603014.384 6  -5762000.47821
  21624013.0104  -15366167.53647 -11847715.01963
  24081054.6434   16325722.24745  12721324.61161
  21584342.221   -11981729.237 8  -9336363.82824
 91  3 30  0 53 30.0020000  0  5G15G13G 6G19G 2
  24253116.2684   -2725176.04446  -2069940.15661
  22958913.971    -8648355.394 6  -5797330.98821
  21620798.2914  -15383060.07647 -11860877.99863
  24089805.2834   16371684.66245  12757139.39561
  21585841.104   -11973857.020 8  -9330229.62224
 91  3 30  0 53 45.0020000  0  5G15G13G 6G19G 2
  24252806.5574   -2726814.94446  -2071217.19861
  22950303.1664   -8693601.73446  -5832587.72361
  21617598.1744  -15399879.91647 -11873984.32563
  24098559.5024   16417712.68645  12793005.29961
  21587348.439   -11965935.423 8  -9324056.93224
 91  3 30  0 54  0.0020000  0  5G15G13G 6G19G 2
  24252519.0884   -2728320.24246  -2072390.11561
  22941710.9474   -8738754.58746  -5867771.61461
  21614409.979   -15416628.259 7 -11887034.94023
  24107333.354    16463804.753 5  12828921.10321
  21588864.533   -11957966.081 8  -9317847.03924
 91  3 30  0 54 15.0020000  0  5G15G13G 6G19G 2
  24252259.1824   -2729691.70046  -2073458.75361
  22933136.5254   -8783813.73546  -5902882.48961
  21611237.041   -15433305.010 7 -11900029.76723
  24116112.3224   16509960.66245  12864886.65661
  21590390.314   -11949949.160 8  -9311600.07224
 91  3 30  0 54 30.0020000  0  5G15G13G 6G19G 2
  24252023.9474   -2730929.38446  -2074423.14161
  22924579.4634   -8828778.92346  -5937920.15461
  21608077.033   -15449910.054 7 -11912968.72023
  24124911.7054   16556180.08444  12900901.69261
  21591924.221   -11941884.831 8  -9305316.16124
 91  3 30  0 54 45.0020000  0  5G15G13G 6G19G 2
  24251812.6744   -2732033.79246  -2075283.68761
  22916039.916    -8873650.287 6  -5972884.71021
  21604930.768   -15466443.469 7 -11925851.85923
  24133716.463    16602462.193 5  12936965.57721
  21593468.080   -11933773.665 8  -9298995.75924
 91  3 30  0 55  0.0020000  0  5G15G13G 6G19G 2
  24251628.7524   -2733005.27546  -2076040.64761
  22907519.4794   -8918428.04446  -6007776.31761
  21601798.4324  -15482905.75047 -11938679.56963
  24142536.2684   16648806.37445  12973077.83161
  21595021.166   -11925616.186 8  -9292639.26924
 91  3 30  0 55 15.0020000  0  5G15G13G 6G19G 2
  24251466.8224   -2733842.19946  -2076692.76361
  22899016.963    -8963110.578 6  -6042593.73421
  21598678.6274  -15499294.86547 -11951450.26763
  24151366.971    16695214.395 5  13009239.82421
  21596581.486   -11917410.961 8  -9286245.57024
 91  3 30  0 55 30.0020000  0  5G15G13G 6G19G 2
  24251333.2364   -2734548.06546  -2077242.74561
  22890530.869    -9007701.298 6  -6077339.60321
  21595573.6894  -15515614.50747 -11964166.83663
  24160209.3224   16741682.03644  13045448.28061
  21598151.791   -11909161.966 8  -9279817.77524
 91  3 30  0 55 45.0020000  0  5G15G13G 6G19G 2
  24251223.768    -2735121.549 6  -2077689.58321
  22882063.4944   -9052198.76846  -6112012.81261
  21592482.229   -15531863.235 7 -11976828.13923
  24169062.6504   16788210.26745  13081703.95161
  21599730.369   -11900868.046 8  -9273354.96424
 91  3 30  0 56  0.0020000  0  5G15G13G 6G19G 2
  24251140.619    -2735562.183 6  -2078032.89321
  22873614.0884   -9096602.30046  -6146612.81761
  21589402.6894  -15548040.34947 -11989433.64664
  24177932.7134   16834799.47944  13118007.14061
  21601315.9394  -11892528.77848  -9266856.82164
 91  3 30  0 56 15.0020000  0  5G15G13G 6G19G 2
  24251083.799    -2735866.561 6  -2078270.04321
  22865181.963    -9140908.082 6  -6181136.66721
  21586339.3544  -15564142.39647 -12001980.65764
  24186808.361    16881452.910 5  13154360.36221
  21602913.1824  -11884140.87648  -9260320.78664
 91  3 30  0 56 30.0020000  0  5G15G13G 6G19G 2
  24251049.1744   -2736040.79046
  22856766.877    -9185122.279 6  -6215589.15321
  21583288.6354  -15580175.25447 -12014473.75564
  24195701.2294   16928164.07744  13190758.57861
  21604517.455   -11875710.708 8  -9253751.81424
 91  3 30  0 56 45.0020000  0  5G15G13G 6G19G 2
  24251043.939    -2736080.153 6
  22848373.010    -9229239.953 6  -6249966.41321
  21580251.3384  -15596134.12047 -12026909.20064
  24204597.0254   16974937.36445  13227205.19461
  21606129.5494  -11867233.59648  -9247146.26764
 91  3 30  0 57  0.0020000  0  5G15G13G 6G19G 2
  24251058.572    -2735988.560 6
  22839995.291    -9273264.768 6  -6284271.33321
  21577228.1044  -15612022.75947 -12039289.92364
  24213509.3074   17021768.56845  13263696.94761
  21607751.5494  -11858713.73648  -9240507.40964
 91  3 30  0 57 15.0020000  0  5G15G13G 6G19G 2
  24251100.7364   -2735765.99145
  22831635.369    -9317196.481 6  -6318503.69421
  21574218.0724  -15627840.99847 -12051615.78964
  24222431.3304   17068657.49944  13300233.68361
  21609380.963   -11850151.168 8  -9233835.26524
 91  3 30  0 57 30.0020000  0  5G15G13G 6G19G 2
  24251167.1974   -2735413.14745
  22823292.674    -9361035.651 6  -6352663.95421
  21571221.1274  -15643589.35247 -12063887.20064
  24231371.3934   17115603.23844  13336814.68761
  21611018.1194  -11841546.78948  -9227130.55064
 91  3 30  0 57 45.0020000  0  5G15G13G 6G19G 2
  24251260.6504   -2734924.90545  -2077536.06961
  22814968.361    -9404776.871 6  -6386747.87921
  21568237.9634  -15659262.47547 -12076099.98864
  24240310.0884   17162610.79545  13373443.84561
  21612664.4794  -11832895.55948  -9220389.32164
 91  3 30  0 58  0.0020000  0  5G15G13G 6G19G 2
  24251379.0574   -2734303.43845  -2077051.77461
  22806663.8854   -9448422.05346  -6420756.98261
  21565269.6744  -15674862.32747 -12088255.68164
  24249265.5804   17209677.87245  13410119.39361
  21614319.6504  -11824199.86548  -9213613.44864
 91  3 30  0 58 15.0020000  0  5G15G13G 6G19G 2
  24251524.354    -2733551.238 5  -2076465.59921
  22798376.1744   -9491973.85846  -6454693.31961
  21562314.9944  -15690391.65047 -12100356.42164
  24258233.877    17256801.259 5  13446838.80321
  21615981.5334  -11815462.67148  -9206805.23964
 91  3 30  0 58 30.0020000  0  5G15G13G 6G19G 2
  24251691.6824   -2732665.32045  -2075775.23661
  22790106.127    -9535429.312 6  -6488554.56821
  21559374.0494  -15705847.38947 -12112399.82064
  24267214.830    17303983.666 4  13483604.21721
  21617653.5254  -11806681.16548  -9199962.49864
 91  3 30  0 58 45.0020000  0  5G15G13G 6G19G 2
  24251886.9244   -2731646.73145  -2074981.50361
  22781856.939    -9578788.744 6  -6522341.00221
  21556446.1354  -15721230.00547 -12124386.23764
  24276201.5644   17351224.18745  13520414.91561
  21619332.6974  -11797856.15548  -9193085.85764
 91  3 30  0 59  0.0020000  0  5G15G13G 6G19G 2
  24252105.7834   -2730494.94945  -2074083.98061
  22773622.869    -9622051.521 6  -6556052.10921
  21553533.6744  -15736538.90747 -12136315.21563
  24285208.1354   17398523.05244  13557271.07761
  21621020.1114  -11788987.35948  -9186175.10364
 91  3 30  0 59 15.0020000  0  5G15G13G 6G19G 2
  24252349.846    -2729210.730 5  -2073083.24421
  22765408.2054   -9665218.50946  -6589688.59261
  21550633.6974  -15751774.81347 -12148187.31964
  24294215.1044   17445878.95545  13594171.68761
  21622716.2214  -11780075.81948  -9179231.04264
 91  3 30  0 59 30.0020000  0  5G15G13G 6G19G 2
  24252620.2834   -2727791.46845  -2071977.28761
  22757211.4394   -9708286.97446  -6623248.29661
  21547748.4794  -15766935.03147 -12160000.43964
  24303239.8774   17493294.42744  13631118.70561
  21624420.2684  -11771119.15848  -9172251.81564
 91  3 30  0 59 45.0020000  0  5G15G13G 6G19G 2
  24252913.9944   -2726235.01845  -2070764.43961
  22749036.674    -9751254.182 6  -6656729.10321
  21544879.4394  -15782017.19947 -12171752.74563
  24312271.299    17540771.438 4  13668113.67421
  21626133.2444  -11762115.25148  -9165235.78064
 91  3 30  1  0  0.0020000  0  5G15G13G 6G19G 2
  24253235.314    -2724544.136 5  -2069446.82221
  22740877.9864   -9794122.87846  -6690133.14961
  21542022.7214  -15797023.85547 -12183446.21164
  24321321.096    17588306.845 4  13705154.16521
  21627856.0254  -11753067.10748  -9158185.26964
 91  3 30  1  0 15.0020000  0  5G15G13G 6G19G 2
  24253584.0494   -2722716.85545  -2068022.92161
  22732740.025    -9836891.190 6  -6723458.97221
  21539181.8144  -15811953.00347 -12195079.28364
  24330375.564    17635902.372 4  13742241.48121
  21629585.7364  -11743972.92748  -9151098.88765
 91  3 30  1  0 30.0020000  0  5G15G13G 6G19G 2
  24253958.314    -2720756.193 6  -2066495.09221
  22724618.205    -9879561.492 6  -6756708.41421
  21536355.7054  -15826807.29047 -12206654.01464
  24339444.5184   17683554.91244  13779373.23361
  21631325.1664  -11734835.61048  -9143978.89365
 91  3 30  1  0 45.0020000  0  5G15G13G 6G19G 2
  24254355.3614   -2718659.36545  -2064861.16361
  22716519.166    -9922131.053 6  -6789879.36721
  21533543.1194  -15841584.01547 -12218168.31264
  24348522.2214   17731266.76744  13816551.20761
  21633072.447   -11725652.826 8  -9136823.46725
 91  3 30  1  1  0.0020000  0  5G15G13G 6G19G 2
  24254781.986    -2716428.389 5  -2063122.70121
  22708436.432    -9964601.573 6  -6822973.14221
  21530746.5414  -15856284.97447 -12229623.56764
  24357614.6664   17779035.73444  13853773.67961
  21634827.471   -11716426.630 8  -9129634.21325
 91  3 30  1  1 15.0020000  0  5G15G13G 6G19G 2
  24255228.830    -2714062.952 5  -2061279.46721
  22700372.721   -10006972.752 6  -6855989.50821
  21527962.7054  -15870909.70647 -12241019.42664
  24366714.8694   17826861.97444  13891040.77861
  21636592.252   -11707156.882 8  -9122411.02325
 91  3 30  1  1 30.0020000  0  5G15G13G 6G19G 2
  24255708.3614   -2711561.49646  -2059330.24561
  22692329.424   -10049242.499 6  -6888926.84221
  21525195.1194  -15885456.18647 -12252354.31264
  24375826.6434   17874747.04444  13928353.73461
  21638363.7994  -11697841.79648  -9115152.50665
 91  3 30  1  1 45.0020000  0  5G15G13G 6G19G 2
  24256206.3224   -2708925.04245  -2057275.83861
  22684304.307   -10091411.817 6  -6921785.92821
  21522441.2524  -15899925.44547 -12263629.02364
  24384948.9554   17922689.41944  13965711.33361
  21640145.611   -11688482.828 8  -9107859.79325
 91  3 30  1  2  0.0020000  0  5G15G13G 6G19G 2
  24256735.549    -2706151.288 5  -2055114.42121
  22676299.947   -10133478.437 6  -6954564.97821
  21519702.9554  -15914315.22447 -12274841.79964
  24394085.189    17970691.051 4  14003115.08721
  21641935.385   -11679077.886 8  -9100531.25124
 91  3 30  1  2 15.0020000  0  5G15G13G 6G19G 2
  24257290.822    -2703241.948 6  -2052847.36521
  22668314.9944  -10175443.78146  -6987265.12361
  21516980.4474  -15928626.86647 -12285993.68864
  24403227.9714   18018750.13944  14040563.63161
  21643733.525   -11669628.812 8  -9093168.32425
 91  3 30  1  2 30.0020000  0  5G15G13G 6G19G 2
  24257871.0884   -2700195.48546  -2050473.45761
  22660348.0184  -10217306.13846  -7019885.01261
  21514271.6824  -15942858.80747 -12297083.47464
  24412387.502    18066867.811 4  14078057.83321
  21645540.025   -11660134.097 8  -9085769.82725
 91  3 30  1  2 45.0020000  0  5G15G13G 6G19G 2
  24258474.0964   -2697012.06146  -2047992.84161
  22652401.3694  -10259065.41446  -7052424.58661
  21511579.1744  -15957011.05647 -12308111.16564
  24421556.5494   18115043.71245  14115597.39361
  21647355.096   -11650594.194 8  -9078336.12025
 91  3 30  1  3  0.0020000  0  5G15G13G 6G19G 2
  24259109.979    -2693694.010 6  -2045407.30221
  22644472.7604  -10300723.69646  -7084885.46161
  21508899.7214  -15971085.49847 -12319078.22064
  24430733.4004   18163275.50844  14153180.51761
  21649179.369   -11641011.337 8  -9070868.94525
 91  3 30  1  3 15.0020000  0  5G15G13G 6G19G 2
  24259763.5574   -2690244.83046  -2042719.58861
  22636565.4634  -10342284.13346  -7117270.09961
  21506236.0184  -15985085.54947 -12329987.31364
  24439919.361    18211559.342 5  14190804.17821
  21651009.471   -11631389.306 8  -9063371.24125
 91  3 30  1  3 30.0020000  0  5G15G13G 6G19G 2
  24260445.4634   -2686659.37946  -2039925.69561
  22628676.0334  -10383741.70946  -7149574.58461
  21503586.5254  -15999006.20947 -12340834.54064
  24449118.549    18259899.745 4  14228471.91521
  21652848.971   -11621723.244 8  -9055839.23225
 91  3 30  1  3 45.0020000  0  5G15G13G 6G19G 2
  24261154.6584   -2682938.46046  -2037026.24461
  22620807.2214  -10425097.09246  -7181799.44361
  21500952.4474  -16012847.87347 -12351620.20664
  24458327.3544   18308296.02745  14266183.20961
  21654696.979   -11612013.944 8  -9048273.53225
 91  3 30  1  4  0.0020000  0  5G15G13G 6G19G 2
  24261888.979    -2679078.194 6  -2034018.20321
  22612957.6114  -10466346.07746  -7213941.38561
  21498334.7754  -16026606.49547 -12362341.18064
  24467550.291    18356751.749 5  14303940.80121
  21656553.346   -11602257.674 8  -9040671.22825
 91  3 30  1  4 15.0020000  0  5G15G13G 6G19G 2
  24262648.9944   -2675082.60946  -2030904.72361
  22605127.1824  -10507492.55746  -7246003.46361
  21495732.1114  -16040285.92147 -12373000.43664
  24476781.064    18405262.715 5  14341741.45821
  21658417.729   -11592458.529 8  -9033035.52025
 91  3 30  1  4 30.0020000  0  5G15G13G 6G19G 2
  24263432.2294   -2670956.54746  -2027689.57161
  22597315.7444  -10548540.72446  -7277988.92161
  21493143.1194  -16053890.55947 -12383601.41464
  24486022.0414   18453823.97344  14379581.29661
  21660290.057   -11582621.191 8  -9025370.03925
 91  3 30  1  4 45.0020000  0  5G15G13G 6G19G 2
  24264247.4714   -2666694.38646  -2024368.37561
  22589524.5184  -10589484.93346  -7309893.38661
  21490568.5494  -16067414.79547 -12394139.74064
  24495271.588    18502440.909 5  14417464.52821
  21662169.205   -11572740.292 8  -9017670.63325
 91  3 30  1  5  0.0020000  0  5G15G13G 6G19G 2
  24265080.502    -2662291.865 6  -2020937.79921
  22581753.0414  -10630321.11046  -7341713.66761
  21488011.0494  -16080854.35347 -12404612.09064
  24504537.697    18551117.278 4  14455394.05421
  21664060.127   -11562811.989 8  -9009934.27925
 91  3 30  1  5 15.0020000  0  5G15G13G 6G19G 2
  24265946.260    -2657755.543 6  -2017402.96221
  22574001.3614  -10671055.42946  -7373454.57461
  21485468.3384  -16094215.53247 -12415023.36364
  24513808.986    18599846.467 5  14493364.74621
  21665956.400   -11552842.931 8  -9002166.16825
 91  3 30  1  5 30.0020000  0  5G15G13G 6G19G 2
  24266833.5884   -2653082.49446  -2013761.59661
  22566269.6894  -10711684.78646  -7405113.70361
  21482942.4714  -16107495.26847 -12425371.17863
  24523092.9474   18648631.10344  14531378.64661
  21667862.6664  -11542830.30548  -8994364.11364
 91  3 30  1  5 45.0020000  0  5G15G13G 6G19G 2
  24267750.0964   -2648275.01846  -2010015.47561
  22558557.9084  -10752211.02346  -7436692.46561
  21480430.7054  -16120695.53647 -12435657.06564
  24532384.127    18697468.704 5  14569433.81121
  21669774.588   -11532776.300 8  -8986529.81025
 91  3 30  1  6  0.0020000  0  5G15G13G 6G19G 2
  24268689.0414   -2643330.83446  -2006162.82561
  22550866.010   -10792631.833 6  -7468189.09121
  21477933.6114  -16133813.85847 -12445879.10563
  24541694.6974   18746361.31744  14607531.83761
  21671696.822   -11522678.668 8  -8978661.51225
 91  3 30  1  6 15.0020000  0  5G15G13G 6G19G 2
  24269655.838    -2638251.337 6  -2002204.75021
  22543194.572   -10832948.361 6  -7499604.45021
  21475452.6584  -16146851.38047 -12456038.17963
  24551003.018    18795307.587 4  14645671.67921
  21673626.4394  -11512538.87348  -8970760.36765
 91  3 30  1  6 30.0020000  0  5G15G13G 6G19G 2
  24270653.197    -2633033.666 6  -1998138.99621
  22535542.0964  -10873157.62046  -7530936.22161
  21472987.4714  -16159805.05747 -12466131.92363
  24560332.705    18844310.020 4  14683855.29721
  21675564.439   -11502354.264 8  -8962824.29725
 91  3 30  1  6 45.0020000  0  5G15G13G 6G19G 2
  24271671.8614   -2627678.70846  -1993966.26661
  22527910.963   -10913260.393 6  -7562185.02921
  21470538.439   -16172675.864 7 -12476161.09623
  24569664.018    18893366.960 4  14722081.36621
  21677510.0724  -11492126.17648  -8954854.34965
 91  3 30  1  7  0.0020000  0  5G15G13G 6G19G 2
  24272713.3464   -2622192.74946  -1989691.46461
  22520298.072   -10953262.679 6  -7593355.52821
  21468104.275   -16185469.642 7 -12486130.24523
  24579011.979    18942472.404 4  14760345.23821
  21679464.1354  -11481860.56848  -8946855.16365
 91  3 30  1  7 15.0020000  0  5G15G13G 6G19G 2
  24273782.9084   -2616569.85846  -1985309.96361
  22512706.549   -10993158.321 6  -7624442.93121
  21465685.8224  -16198180.30647 -12496034.63363
  24588365.111    18991631.907 4  14798651.22521
  21681425.2444  -11471551.81248  -8938822.36165
 91  3 30  1  7 30.0020000  0  5G15G13G 6G19G 2
  24274879.6274   -2610806.04046  -1980818.64961
  22505135.314   -11032943.170 6  -7655443.99921
  21463282.479   -16210803.721 7 -12505871.03323
  24597729.791    19040849.333 4  14837002.37121
  21683396.9084  -11461196.06148  -8930752.94165
 91  3 30  1  7 45.0020000  0  5G15G13G 6G19G 2
  24276004.0884   -2604907.25246  -1976222.16161
  22497584.830   -11072622.829 6  -7686363.11121
  21460896.2214  -16223345.61547 -12515643.90963
  24607105.7214   19090118.56145  14875393.85361
  21685374.6824  -11450799.38048  -8922651.62765
 91  3 30  1  8  0.0020000  0  5G15G13G 6G19G 2
  24277152.979    -2598869.429 6  -1971517.33521
  22490054.924   -11112193.260 6  -7717197.10021
  21458525.9634  -16235801.72547 -12525349.94463
  24616491.096    19139443.247 4  14913828.56621
  21687361.5574  -11440357.74248  -8914515.27865
 91  3 30  1  8 15.0020000  0  5G15G13G 6G19G 2
  24278325.807    -2592697.720 6  -1966708.18321
  22482545.174   -11151658.982 6  -7747949.50021
  21456170.752   -16248176.774 7 -12534992.81423
  24625886.596    19188818.457 4  14952302.66421
  21689356.9714  -11429876.04848  -8906347.71564
 91  3 30  1  8 30.0020000  0  5G15G13G 6G19G 2
  24279522.6584   -2586388.87546  -1961792.17361
  22475054.408   -11191016.582 6  -7778617.65521
  21453832.400   -16260467.376 7 -12544569.88023
  24635299.7134   19238247.07444  14990818.33361
  21691359.8854  -11419351.27048  -8898146.58764
 91  3 30  1  8 45.0020000  0  5G15G13G 6G19G 2
  24280752.0334   -2579947.38446  -1956772.80161
  22467585.455   -11230270.437 6  -7809204.96121
  21451508.760   -16272677.830 7 -12554084.49523
  24644709.1744   19287724.37345  15029371.98861
  21693369.1894  -11408787.95448  -8889915.42764
 91  3 30  1  9  0.0020000  0  5G15G13G 6G19G 2
  24282005.479    -2573368.191 6  -1951646.11821
  22460135.744   -11269415.382 6  -7839707.41521
  21449201.072   -16284802.934 7 -12563532.60823
  24654138.924    19337255.027 4  15067967.18421
  21695387.6434  -11398181.24248  -8881650.45564
 91  3 30  1  9 15.0020000  0  5G15G13G 6G19G 2
  24283280.1044   -2566656.48046  -1946416.18761
  22452707.416   -11308456.548 6  -7870128.99021
  21446908.955   -16296847.746 7 -12572918.14923
  24663569.033    19386833.670 5  15106599.76921
  21697414.0414  -11387536.39948  -8873355.77064
 91  3 30  1  9 30.0020000  0  5G15G13G 6G19G 2
  24284585.9944   -2559809.10946  -1941080.54861
  22445296.447   -11347390.532 6  -7900467.04921
  21444632.510   -16308808.899 7 -12582238.51023
  24673013.7684   19436463.27645  15145272.10361
  21699447.2364  -11376850.65548  -8865029.21064
 91  3 30  1  9 45.0020000  0  5G15G13G 6G19G 2
  24285911.8694   -2552825.48846  -1935638.73661
  22437909.877   -11386216.486 6  -7930720.93921
  21442372.924   -16320685.741 7 -12591493.16723
  24682467.3854   19486144.06945  15183984.28761
  21701487.7134  -11366123.42448  -8856670.32864
 91  3 30  1 10  0.0020000  0  5G15G13G 6G19G 2
  24287267.4324   -2545705.35346  -1930090.53761
  22430541.736   -11424934.323 6  -7960890.56821
  21440128.463   -16332477.805 7 -12600681.76423
  24691935.0494   19535875.90544  15222736.27261
  21703538.5254  -11355354.67648  -8848279.09664
 91  3 30  1 10 15.0020000  0  5G15G13G 6G19G 2
  24288651.1044   -2538450.52246  -1924437.39361
  22423194.447   -11463545.086 6  -7990976.77021
  21437899.768   -16344186.351 7 -12609805.28423
  24701403.705    19585657.298 5  15261526.85421
  21705593.8224  -11344545.83948  -8839856.61464
 91  3 30  1 10 30.0020000  0  5G15G13G 6G19G 2
  24290055.5574   -2531057.47646  -1918676.55161
  22415868.0334  -11502045.15747  -8020976.72561
  21435689.697   -16355807.658 7 -12618860.82423
  24710887.658    19635491.440 5  15300358.56521
  21707659.0574  -11333693.43948  -8831400.20164
 91  3 30  1 10 45.0020000  0  5G15G13G 6G19G 2
  24291485.830    -2523528.218 6  -1912809.57121
  22408563.635   -11540436.365 7  -8050891.83621
  21433493.3854  -16367343.61647 -12627849.85463
  24720380.4554   19685376.08045  15339229.57361
  21709732.5804  -11322799.72848  -8822911.58964
 91  3 30  1 11  0.0020000  0  5G15G13G 6G19G 2
  24292942.4714   -2515866.91946  -1906839.69961
  22401276.150   -11578722.766 7  -8080725.29121
  21431313.908   -16378798.181 7 -12636775.46323
  24729883.119    19735306.750 4  15378136.49021
  21711812.3144  -11311868.94448  -8814394.09464
 91  3 30  1 11 15.0020000  0  5G15G13G 6G19G 2
  24294428.5104   -2508066.57846  -1900761.47261
  22394012.096   -11616896.858 7  -8110471.22821
  21429151.3934  -16390164.14947 -12645632.03563
  24739391.8074   19785290.35044  15417084.64861
  21713901.5804  -11300894.07648  -8805842.24564
 91  3 30  1 11 30.0020000  0  5G15G13G 6G19G 2
  24295939.3464   -2500127.96346  -1894575.51961
  22386769.572   -11654959.325 7  -8140130.19321
  21427005.3144  -16401442.01547 -12654419.95163
  24748919.564    19835325.796 4  15456073.18021
  21715997.6114  -11289875.89448  -8797256.64864
 91  3 30  1 11 45.0020000  0  5G15G13G 6G19G 2
  24297475.354    -2492052.888 6  -1888283.22521
  22379546.932   -11692911.559 7  -8169703.25221
  21424874.4864  -16412633.28447 -12663140.38963
  24758444.3774   19885411.26844  15495100.70561
  21718102.8464  -11278816.27548  -8788638.75964
 91  3 30  1 12  0.0020000  0  5G15G13G 6G19G 2
  24299037.8544   -2483840.10146  -1881883.61961
  22372344.3304  -11730752.21347  -8199189.36361
  21422762.7684  -16423736.46447 -12671792.18763
  24767990.447    19935547.795 4  15534168.01821
  21720215.1974  -11267714.12348  -8779987.72664
 91  3 30  1 12 15.0020000  0  5G15G13G 6G19G 2
  24300630.4004   -2475484.76246  -1875372.93761
  22365167.549   -11768476.468 7  -8228584.77821
  21420667.9554  -16434746.75447 -12680371.59763
  24777539.6114   19985739.85044  15573278.58961
  21722336.4244  -11256564.71348  -8771299.86364
 91  3 30  1 12 30.0020000  0  5G15G13G 6G19G 2
  24302247.299    -2466992.678 6  -1868755.69221
  22358008.635   -11806090.088 7  -8257893.98621
  21418587.8384  -16445669.70347 -12688882.95063
  24787101.979    20035981.350 4  15612427.69921
  21724466.4714  -11245374.14848  -8762579.93964
 91  3 30  1 12 45.0020000  0  5G15G13G 6G19G 2
  24303887.697    -2458362.910 6  -1862031.16621
  22350872.666   -11843591.900 7  -8287116.07121
  21416527.6114  -16456504.16147 -12697325.35363
  24796668.588    20086272.987 4  15651615.85221
  21726604.6354  -11234141.43548  -8753827.16564
 91  3 30  1 13  0.0020000  0  5G15G13G 6G19G 2
  24305555.5884   -2449593.52046  -1855197.84261
  22343758.947   -11880979.414 7  -8316249.09221
  21414482.5414  -16467247.84947 -12705697.02364
  24806248.9944   20136616.66343  15690844.59661
  21728749.1194  -11222864.53848  -8745039.96364
 91  3 30  1 13 15.0020000  0  5G15G13G 6G19G 2
  24307253.502    -2440686.703 6  -1848257.42421
  22336664.510   -11918254.948 7  -8345294.85921
  21412454.9794  -16477902.72447 -12713999.48763
  24815838.0104   20187009.96143  15730111.95661
  21730903.9324  -11211545.77848  -8736220.14864
 91  3 30  1 13 30.0020000  0  5G15G13G 6G19G 2
  24308970.5964   -2431645.73546  -1841212.47661
  22329592.189   -11955421.252 7  -8374255.49821
  21410443.7134  -16488471.82547 -12722235.11564
  24825441.072    20237449.434 3  15769415.34021
  21733065.2524  -11200188.38948  -8727370.22364
 91  3 30  1 13 45.0020000  0  5G15G13G 6G19G 2
  24310719.658    -2422463.677 6  -1834057.58121
  22322541.947   -11992471.374 7  -8403125.61121
  21408450.0724  -16498948.16747 -12730398.46263
  24835042.869    20287941.665 3  15808759.83721
  21735234.7994  -11188785.73948  -8718485.03564
 91  3 30  1 14  0.0020000  0  5G15G13G 6G19G 2
  24312493.4554   -2413140.99746  -1826793.11961
  22315512.932   -12029405.315 7  -8431905.19621
  21406474.4944  -16509331.67647 -12738489.47764
  24844665.736    20338486.447 3  15848145.27521
  21737412.400   -11177337.988 8  -8709564.69624
 91  3 30  1 14 15.0020000  0  5G15G13G 6G19G 2
  24314290.260    -2403681.702 6  -1819422.20421
  22308506.072   -12066226.833 7  -8460597.17621
  21404515.5574  -16519626.22847 -12746511.16363
  24854293.604    20389079.332 4  15887568.17921
  21739599.3464  -11165849.28848  -8700612.45664
 91  3 30  1 14 30.0020000  0  5G15G13G 6G19G 2
  24316119.7214   -2394081.05546  -1811941.13461
  22301522.893   -12102931.023 7  -8489197.73421
  21402574.3144  -16529826.61347 -12754459.48063
  24863930.549    20439724.971 3  15927032.20221
  21741794.447   -11154314.918 8  -8691624.62524
 91  3 30  1 14 45.0020000  0  5G15G13G 6G19G 2
  24317976.5104   -2384342.16946  -1804352.36061
  22294558.994   -12139520.968 7  -8517709.26921
  21400649.8224  -16539936.04047 -12762336.92463
  24873577.0494   20490419.93744  15966534.67461
  21743996.510   -11142738.076 8  -8682603.69724
 91  3 30  1 15  0.0020000  0  5G15G13G 6G19G 2
  24319857.7364   -2374460.36446  -1796652.22061
  22287619.1894  -12175991.66947  -8546127.88461
  21398744.1354  -16549949.51947 -12770139.59863
  24883238.385    20541168.678 4  16006079.03721
  21746208.9004  -11131114.20048  -8673546.12464
 91  3 30  1 15 15.0020000  0  5G15G13G 6G19G 2
  24321763.2444   -2364441.83746  -1788845.54761
  22280699.721   -12212349.078 7  -8574458.21921
  21396856.1194  -16559872.79447 -12777871.98763
  24892900.775    20591965.100 4  16045660.55421
  21748428.604   -11119449.381 8  -8664456.63824
 91  3 30  1 15 30.0020000  0  5G15G13G 6G19G 2
  24323695.0804   -2354284.87545  -1780930.98961
  22273802.502   -12248591.045 7  -8602698.60421
  21394985.4004  -16569704.05347 -12785532.67463
  24902578.1894   20642810.63644  16085280.32461
  21750656.2364  -11107742.00948  -8655334.00364
 91  3 30  1 15 45.0020000  0  5G15G13G 6G19G 2
  24325654.494    -2343989.038 5  -1772908.22221
  22266928.072   -12284717.220 7  -8630848.76321
  21393131.6744  -16579442.73747 -12793121.22563
  24912258.8774   20693705.28144  16124938.38361
  21752892.861   -11095991.835 8  -8646178.01124
 91  3 30  1 16  0.0020000  0  5G15G13G 6G19G 2
  24327639.7214   -2333558.50745  -1764780.50761
  22260075.080   -12320731.644 7  -8658911.84221
  21391296.0494  -16589092.72147 -12800640.66263
  24921955.2134   20744644.59844  16164631.26961
  21755136.322   -11084202.875 8  -8636991.79324
 91  3 30  1 16 15.0020000  0  5G15G13G 6G19G 2
  24329648.9634   -2322989.33245  -1756544.76161
  22253243.682   -12356629.991 7  -8686884.46621
  21389477.4164  -16598649.75547 -12808087.67063
  24931656.1584   20795632.53644  16204362.00761
  21757387.299   -11072371.289 8  -8627772.35924
 91  3 30  1 16 30.0020000  0  5G15G13G 6G19G 2
  24331682.9324   -2312281.85445  -1748201.23561
  22246434.838   -12392412.413 7  -8714766.76321
  21387676.0724  -16608114.00747 -12815462.38063
  24941371.0184   20846668.38343  16244130.09961
  21759646.869   -11060497.468 8  -8618520.01924
 91  3 30  1 16 45.0020000  0  5G15G13G 6G19G 2
  24333749.3384   -2301433.78545  -1739748.16861
  22239647.885   -12428076.250 7  -8742556.66221
  21385893.8384  -16617482.92747 -12822762.80963
  24951088.7834   20897754.47043  16283937.33961
  21761914.393   -11048579.038 8  -8609232.91824
 91  3 30  1 17  0.0020000  0  5G15G13G 6G19G 2
  24335840.4634   -2290446.62645  -1731186.71061
  22232883.275   -12463622.897 7  -8770255.24121
  21384128.5574  -16626757.85447 -12829989.99264
  24960820.447    20948889.159 3  16323782.42621
  21764191.252   -11036617.689 8  -8599912.37524
 91  3 30  1 17 15.0020000  0  5G15G13G 6G19G 2
  24337953.6894   -2279320.71645  -1722517.14561
  22226140.986   -12499052.501 7  -8797862.61821
  21382381.0724  -16635938.48247 -12837143.70364
  24970560.0104   21000072.07443  16363665.11861
  21766475.807   -11024613.403 8  -8590558.37123
 91  3 30  1 17 30.0020000  0  5G15G13G 6G19G 2
  24340102.2214   -2268061.83145  -1713743.95361
  22219419.830   -12534370.777 7  -8825383.24621
  21380651.6434  -16645030.66047 -12844228.48764
  24980311.377    21051297.027 3  16403580.55921
  21768765.666   -11012572.274 8  -8581175.66324
 91  3 30  1 17 45.0020000  0  5G15G13G 6G19G 2
  24342267.3074   -2256664.42145  -1704862.83661
  22212721.033   -12569571.672 7  -8852812.40621
  21378938.9554  -16654028.54347 -12851239.79663
  24990068.5574   21102569.32043  16443532.89961
  21771066.799   -11000488.824 8  -8571759.97624
 91  3 30  1 18  0.0020000  0  5G15G13G 6G19G 2
  24344463.705    -2245130.155 5  -1695875.07621
  22206044.5964  -12604656.56447  -8880151.18261
  21377244.2834  -16662933.48647 -12858178.68263
  24999832.689    21153887.113 3  16483520.67921
  21773373.7524  -10988364.70848  -8562312.60364
 91  3 30  1 18 15.0020000  0  5G15G13G 6G19G 2
  24346687.2754   -2233459.43745  -1686780.98161
  22199391.018   -12639625.852 7  -8907399.87721
  21375567.4944  -16671745.79047 -12865045.38163
  25009605.174    21205249.896 3  16523543.51721
  21775687.002   -10976200.336 8  -8552833.86124
 91  3 30  1 18 30.0020000  0  5G15G13G 6G19G 2
  24348931.4714   -2221646.97945  -1677576.45361
  22192758.971   -12674473.957 7  -8934554.14021
  21373908.783   -16680459.671 7 -12871835.39124
  25019391.6744   21256662.91042  16563605.49861
  21778011.580   -10963990.416 8  -8543319.62424
 91  3 30  1 18 45.0020000  0  5G15G13G 6G19G 2
  24351204.463    -2209695.688 5  -1668263.73821
  22186149.908   -12709203.567 7  -8961616.06921
  21372268.8224  -16689077.98347 -12878550.93464
  25029176.4554   21308122.98443  16603704.13561
  21780343.838   -10951737.758 8  -8533772.08624
 91  3 30  1 19  0.0020000  0  4G15G13G 6G 2
  24353505.314    -2197607.807 5  -1658844.59921
  22179563.314   -12743816.519 7  -8988587.10021
  21370646.8614  -16697602.50247 -12885193.38864
  21782682.549   -10939444.660 8  -8524193.03424
 91  3 30  1 19 15.0020000  0  5G15G13G 6G19G 2
  24355834.1894   -2185379.84245
  22172999.6974  -12778309.29147  -9015464.48461
  21369043.127   -16706029.622 7 -12891759.95224
  25048789.8614         -0.84253
  21785030.260   -10927107.844 8
 91  3 30  1 19 30.0020000  0  5G15G13G 6G19G 2
  24358186.1194   -2173017.42745
  22166458.549   -12812687.288 7  -9042252.42721
  21367457.7524  -16714364.50347 -12898254.63864
  25058613.8774      51593.95942
  21787384.994   -10914732.576 8
 91  3 30  1 19 45.0020000  0  5G15G13G 6G19G 2
  24360564.1274   -2160517.04045  -1629942.63361
  22159938.0804  -12846946.98447  -9068948.19961
  21365889.158   -16722603.778 7 -12904674.82324
  25068438.174      103234.263 3        -0.07531
  21789747.697   -10902315.641 8  -8495261.30024
 91  3 30  1 20  0.0020000  0  5G15G13G 6G19G 2
  24362968.596    -2147877.444 5  -1620093.57921
  22153441.6504  -12881086.51747  -9095550.33661
  21364339.400   -16730745.599 7 -12911019.07823
  25078273.760      154921.238 3     40275.37921
  21792119.0644  -10889855.66848  -8485552.22164
 91  3 30  1 20 15.0020000  0  5G15G13G 6G19G 2
  24365398.768    -2135103.889 5  -1610140.14121
  22146967.541   -12915110.697 7  -9122062.58321
  21362807.9474  -16738794.75247 -12917291.11664
  25088117.814      206649.747 3     80583.20121
  21794496.7754  -10877357.75848  -8475813.58764
 91  3 30  1 20 30.0020000  0  4G15G13G 6G 2
  24367859.236    -2122192.027 5  -1600078.93021
  22140515.1584  -12949015.44147  -9148481.77161
  21361294.916   -16746747.003 7 -12923487.65024
  21796882.5334  -10864817.91348  -8466042.26764
 91  3 30  1 20 45.0020000  0  4G15G13G 6G 2
  24370343.4394   -2109138.54845  -1589907.35661
  22134086.8384  -12982797.02747  -9174804.98861
  21359800.5494  -16754598.79947 -12929605.91364
  21799278.377   -10852232.765 8  -8456235.64824
 91  3 30  1 21  0.0020000  0  4G15G13G 6G 2
  24372850.010    -2095945.997 5  -1579627.42321
  22127681.6584  -13016457.78847  -9201034.05061
  21358324.7294  -16762352.28147 -12935647.55064
  21801681.689   -10839604.798 8  -8446395.65924
 91  3 30  1 21 15.0020000  0  4G15G13G 6G 2
  24375392.635    -2082612.131 5  -1569237.38321
  22121298.8224  -13049995.10047  -9227166.93661
  21356869.9864  -16770004.88847 -12941610.59463
  21804092.447   -10826931.502 8  -8436520.34724
 91  3 30  1 21 30.0020000  0  4G15G13G 6G 2
  24377951.408    -2069143.085 5  -1558742.00121
  22114939.5414  -13083415.13047  -9253208.42761
  21355432.0104  -16777562.52947 -12947499.63963
  21806512.0804  -10814219.33048  -8426614.74964
 91  3 30  1 21 45.0020000  0  4G15G13G 6G 2
  24380545.010    -2055536.051 5  -1548139.09021
  22108602.0254  -13116714.65047  -9279156.01461
  21354011.189   -16785022.181 7 -12953312.32923
  21808938.549   -10801465.180 8  -8416676.43624
 91  3 30  1 22  0.0020000  0  4G15G13G 6G 2
  24383155.1894   -2041791.41945  -1537428.96561
  22102289.5024  -13149894.01847  -9305009.97761
  21352611.1274  -16792383.93947 -12959048.73263
  21811373.486   -10788669.681 8  -8406705.90624
 91  3 30  1 22 15.0020000  0  4G15G13G 6G 2
  24385799.541    -2027909.951 5  -1526612.21421
  22095997.9004  -13182953.54247  -9330770.54961
  21351227.6664  -16799648.15247 -12964709.12964
  21813816.502   -10775833.455 8  -8396703.64024
 91  3 30  1 22 30.0020000  0  4G15G13G 6G 2
  24388469.6354   -2013891.60645  -1515688.80161
  22089729.4714  -13215893.12347  -9356437.67361
  21349864.283   -16806814.649 7 -12970293.38923
  21816265.8694  -10762956.57948  -8386669.70264
 91  3 30  1 22 45.0020000  0  4G15G13G 6G 2
  24391161.775    -1999736.297 5  -1504658.67021
  22083483.7444  -13248712.22747  -9382010.91761
  21348519.3934  -16813882.90647 -12975801.08863
  21818724.6664  -10750038.84048  -8376603.92064
 91  3 30  1 23  0.0020000  0  4G15G13G 6G 2
  24393879.5254   -1985444.68445  -1493522.32261
  22077261.494   -13281411.552 7  -9407490.82521
  21347192.666   -16820853.445 7 -12981232.65323
  21821190.1824  -10737080.67848  -8366506.64364
 91  3 30  1 23 15.0020000  0  4G15G13G 6G 2
  24396624.814    -1971009.457 5  -1482274.07121
  22071063.5104  -13313983.27847  -9432871.30061
  21345886.166   -16827718.550 7 -12986582.06323
  21823665.814   -10724075.044 8  -8356372.37124
 91  3 30  1 23 30.0020000  0  4G15G13G 6G 2
  24399397.658    -1956438.845 5  -1470920.31921
  22064887.916   -13346435.243 7  -9458158.46321
  21344598.8854  -16834486.21647 -12991855.53963
  21826148.018   -10711030.022 8  -8346207.40424
 91  3 30  1 23 45.0020000  0  4G15G13G 6G 2
  24402197.916    -1941729.793 5  -1459458.70321
  22058735.471   -13378764.524 7  -9483350.02221
  21343329.869   -16841153.149 7 -12997050.52923
  21828638.9944  -10697942.59348  -8336009.40064
 91  3 30  1 24  0.0020000  0  4G15G13G 6G 2
  24405026.197    -1926877.736 5  -1447885.65921
  22052608.533   -13410966.332 7  -9508442.25521
  21342080.299   -16847714.611 7 -13002163.33023
  21831138.166   -10684808.285 8  -8325774.86324
 91  3 30  1 24 15.0020000  0  4G15G13G 6G 2
  24407882.479    -1911886.159 5  -1436203.88021
  22046502.979   -13443043.813 7  -9533437.61221
  21340851.869   -16854173.598 7 -13007196.28423
  21833645.455   -10671630.449 8  -8315506.40424
 91  3 30  1 24 30.0020000  0  4G15G13G 6G 2
  24410758.385    -1896758.949 5  -1424416.42521
  22040422.986   -13475000.849 7  -9558339.11821
  21339642.916   -16860533.825 7 -13012152.28223
  21836160.1114  -10658412.94148  -8305207.03964
 91  3 30  1 24 45.0020000  0  4G15G13G 6G 2
  24413659.127    -1881489.573 5  -1412518.19021
  22034364.150   -13506830.420 7  -9583141.29521
  21338450.9244  -16866788.44747 -13017025.98463
  21838685.244   -10645149.109 8  -8294871.57224
 91  3 30  1 25  0.0020000  0  4G15G13G 6G 2
  24416594.643    -1866083.681 5  -1400513.57821
  22028332.432   -13538537.810 7  -9607848.26721
  21337279.252   -16872942.569 7 -13021821.37623
  21841216.104   -10631844.234 8  -8284504.12124
 91  3 30  1 25 15.0020000  0  4G15G13G 6G 2
  24419552.432    -1850536.975 5  -1388399.24421
  22022321.369   -13570118.568 7  -9632456.56921
  21336130.3614  -16878991.91147 -13026535.13663
  21843757.408   -10618494.328 8  -8274101.58624
 91  3 30  1 25 30.0020000  0  4G15G13G 6G 2
  24422536.783    -1834855.813 5  -1376180.14021
  22016335.268   -13601579.220 7  -9656971.28321
  21334995.9244  -16884942.64247 -13031172.03063
  21846304.955   -10605105.929 8  -8263669.05224
 91  3 30  1 25 45.0020000  0  4G15G13G 6G 2
  24425545.471    -1819036.013 5  -1363853.01321
  22010371.658   -13632914.978 7  -9681388.68021
  21333883.6974  -16890790.20047 -13035728.54163
  21848860.393   -10591674.550 8  -8253203.03224
 91  3 30  1 26  0.0020000  0  4G15G13G 6G 2
  24428585.4794   -1803078.78645  -1351418.77661
  22004431.947   -13664126.821 7  -9705709.51622
  21332790.174   -16896535.207 7 -13040205.14323
  21851425.104   -10578201.379 8  -8242704.44224
 91  3 30  1 26 15.0020000  0  4G15G13G 6G 2
  24431645.025    -1786980.849 5  -1338874.91521
  21998516.322   -13695211.342 7  -9729931.14121
  21331719.650   -16902174.214 7 -13044599.15323
  21853997.111   -10564683.083 8  -8232170.69124
 91  3 30  1 26 30.0020000  0  4G15G13G 6G 2
  24434735.408    -1770741.516 5  -1326220.87321
  21992626.650   -13726167.425 7  -9754052.68922
  21330664.400   -16907706.264 7 -13048909.81423
  21856578.900   -10551118.830 8  -8221601.13224
 91  3 30  1 26 45.0020000  0  4G15G13G 6G 2
  24437853.2604   -1754368.11745  -1313462.35661
  21986758.158   -13757002.163 7  -9778079.68321
  21329631.322   -16913138.548 7 -13053142.74123
  21859166.330   -10537516.128 8  -8211001.61424
 91  3 30  1 27  0.0020000  0  4G15G13G 6G 2
  24440997.057    -1737856.469 5  -1300596.12121
  21980914.682   -13787711.001 7  -9802008.57321
  21328618.0724  -16918466.38447 -13057294.27363
  21861762.299   -10523870.541 8  -8200368.67824
 91  3 30  1 27 15.0020000  0  4G15G13G 6G 2
  24444166.502    -1721205.117 5  -1287621.01921
  21975096.111   -13818292.455 7  -9825838.19721
  21327623.3224  -16923687.91747 -13061362.97163
  21864368.064   -10510180.600 8  -8189701.18224
 91  3 30  1 27 30.0020000  0  4G15G13G 6G 2
  24447360.1504   -1704416.95245  -1274539.31461
  21969299.564   -13848748.993 7  -9849570.48722
  21326649.393   -16928805.854 7 -13065350.94823
  21866981.8694  -10496449.25148  -8179001.42064
 91  3 30  1 27 45.0020000  0  4G15G13G 6G 2
  24450581.057    -1687490.881 5  -1261350.15321
  21963527.510   -13879079.683 7  -9873204.71721
  21325696.252   -16933818.903 7 -13069257.19423
  21869601.5494  -10482675.20148  -8168268.38564
 91  3 30  1 28  0.0020000  0  4G15G13G 6G 2
  24453828.518    -1670427.507 5  -1248053.99921
  21957780.299   -13909284.454 7  -9896740.82821
  21324761.939   -16938727.212 7 -13073081.82523
  21872230.9864  -10468858.96448  -8157502.48064
 91  3 30  1 28 15.0020000  0  4G15G13G 6G 2
  24457099.416    -1653225.229 5  -1234649.61921
  21952055.658   -13939361.962 7  -9920177.76921
  21323848.6974  -16943529.19247 -13076823.60363
  21874868.299   -10454999.280 8  -8146702.71124
 91  3 30  1 28 30.0020000  0  4G15G13G 6G 2
  24460396.4324   -1635885.46445  -1221138.10261
  21946357.111   -13969313.051 7  -9943516.20521
  21322954.5494  -16948225.68247 -13080483.17864
  21877513.9164  -10441097.21048  -8135869.91964
 91  3 30  1 28 45.0020000  0  4G15G13G 6G 2
  24463725.0184   -1618400.81745  -1207513.69661
  21940682.979   -13999130.477 7  -9966750.48621
  21322081.955   -16952809.064 7 -13084054.62023
  21880168.682   -10427145.381 8  -8124998.35524
 91  3 30  1 29  0.0020000  0  4G15G13G 6G 2
  24467080.830    -1600779.618 5  -1193782.87021
  21935031.830   -14028821.862 7  -9989886.55421
  21321230.2364  -16957287.32947 -13087544.15263
  21882831.8304  -10413151.93048  -8114094.35764
 91  3 30  1 29 15.0020000  0  4G15G13G 6G 2
  24470455.4474   -1583021.69745  -1179945.52661
  21929406.627   -14058387.176 7 -10012924.38921
  21320397.5724  -16961660.32647 -13090951.65163
  21885502.7524  -10399116.93048  -8103157.98864
 91  3 30  1 29 30.0020000  0  4G15G13G 6G 2
  24473865.564    -1565125.449 5  -1166000.38021
  21923804.783   -14087824.315 7 -10035862.34821
  21319585.971   -16965925.823 7 -13094275.39323
  21888181.5804  -10385038.46048  -8092187.74564
 91  3 30  1 29 45.0020000  0  4G15G13G 6G 2
  24477293.072    -1547091.008 5  -1151947.56421
  21918227.314   -14117133.187 7 -10058700.35721
  21318794.979   -16970083.706 7 -13097515.27423
  21890869.9474  -10370916.53048  -8081183.63464
 91  3 30  1 30  0.0020000  0  4G15G13G 6G 2
  24480753.260    -1528917.330 5  -1137786.24421
  21912674.666   -14146312.276 7 -10081437.22921
  21318023.650   -16974132.436 7 -13100670.10323
  21893565.2754  -10356749.91948  -8070144.70664
 91  3 30  1 30 15.0020000  0  4G15G13G 6G 2
  24484240.3144   -1510605.74145  -1123517.47061
  21907146.096   -14175362.863 7 -10104073.97421
  21317273.846   -16978072.951 7 -13103740.61023
  21896269.5804  -10342539.99248  -8059072.02964
 91  3 30  1 30 30.0020000  0  4G15G13G 6G 2
  24487746.5184   -1492161.56245  -1109145.37661
  21901641.189   -14204290.282 7 -10126614.74721
  21316543.0724  -16981910.50147 -13106730.88163
  21898980.2294  -10328291.99348  -8047969.68564
 91  3 30  1 30 45.0020000  0  4G15G13G 6G 2
  24491283.525    -1473580.273 5  -1094666.43221
  21896161.229   -14233089.656 7 -10149055.74421
  21315834.588   -16985640.320 7 -13109637.21123
  21901699.2994  -10314001.45248  -8036834.19064
 91  3 30  1 31  0.0020000  0  4G15G13G 6G 2
  24494847.877    -1454859.817 5  -1080079.05221
  21890705.057   -14261758.510 7 -10171395.03322
  21315144.9394  -16989260.09247 -13112457.78063
  21904427.8934  -10299666.25148  -8025663.89464
 91  3 30  1 31 15.0020000  0  4G15G13G 6G 2
  24498437.111    -1436001.576 5  -1065384.30821
  21885274.400   -14290297.957 7 -10193633.49221
  21314477.346   -16992770.495 7 -13115193.13423
  21907163.9944  -10285287.47848  -8014459.65064
 91  3 30  1 31 30.0020000  0  4G15G13G 6G 2
  24502051.9944   -1417003.19145  -1050580.36261
  21879868.799   -14318705.715 7 -10215769.33222
  21313831.0184  -16996169.29247 -13117841.52163
  21909907.9474  -10270863.01248  -8003219.79764
 91  3 30  1 31 45.0020000  0  4G15G13G 6G 2
  24505695.025    -1397865.983 5  -1035668.24221
  21874488.354   -14346982.670 7 -10237803.24622
  21313204.7214  -16999457.21647 -13120403.51063
  21912662.5334  -10256393.72148  -7991945.02164
 91  3 30  1 32  0.0020000  0  4G15G13G 6G 2
  24509362.5254   -1378588.99145  -1020647.19061
  21869132.018   -14375127.512 7 -10259734.21422
  21312600.5724  -17002633.04147 -13122878.15063
  21915424.1354  -10241878.63648  -7980634.55964
 91  3 30  1 32 15.0020000  0  4G15G13G 6G 2
  24513053.814    -1359177.029 5  -1005520.97121
  21863801.002   -14403144.459 7 -10281565.52522
  21312016.6744  -17005701.00947 -13125268.74363
  21918194.3774  -10227322.22848  -7969291.90264
 91  3 30  1 32 30.0020000  0  4G15G13G 6G 2
  24516772.8384   -1339626.80645   -990287.02661
  21858494.213   -14431030.330 7 -10303294.69922
  21311453.2834  -17008657.86647 -13127572.75863
  21920973.3934  -10212721.51548  -7957914.71464
 91  3 30  1 32 45.0020000  0  4G15G13G 6G 2
  24520522.439    -1319938.258 5   -974945.29121
  21853212.799   -14458785.111 7 -10324921.72922
  21310912.744   -17011503.250 7 -13129789.91823
  21923758.8304  -10198076.40948  -7946502.94264
 91  3 30  1 33  0.0020000  0  4G15G13G 6G 2
  24524297.174    -1300107.095 5   -959492.42121
  21847957.424   -14486404.294 7 -10346443.09522
  21310392.838   -17014232.640 7 -13131916.69223
  21926555.6274  -10183382.43848  -7935053.08864
 91  3 30  1 33 15.0030000  0  4G15G13G 6G 2
  24528092.8354   -1280138.55045   -943932.51461
  21842725.163   -14513895.912 7 -10367865.06322
  21309893.6014  -17016852.29247 -13133957.95463
  21929361.1874  -10168644.88848  -7923569.27564
 91  3 30  1 33 30.0030000  0  4G15G13G 6G 2
  24531922.1014   -1260033.10545   -928265.90961
  21837518.851   -14541253.800 7 -10389182.82322
  21309417.851   -17019359.187 7 -13135911.35923
  21932172.7574  -10153863.35848  -7912051.19664
 91  3 30  1 33 45.0030000  0  4G15G13G 6G 2
  24535770.679    -1239791.795 5   -912493.44721
  21832338.483   -14568481.801 7 -10410399.37122
  21308962.296   -17021755.603 7 -13137778.67323
  21934993.5544  -10139039.39548  -7900500.05464
 91  3 30  1 34  0.0030000  0  4G15G13G 6G 2
  24539653.483    -1219413.762 5   -896614.44321
  21827180.976   -14595578.609 7 -10431513.69922
  21308526.890   -17024040.221 7 -13139558.87323
  21937822.5854  -10124171.97348  -7888915.04464
 91  3 30  1 34 15.0030000  0  4G15G13G 6G 2
  24543553.9374   -1198900.22845   -880629.86561
  21822049.046   -14622545.723 7 -10452526.96022
  21308113.0774  -17026214.34647 -13141252.97263
  21940660.6244  -10109262.28948  -7877297.10464
 91  3 30  1 34 30.0030000  0  4G15G13G 6G 2
  24547482.085    -1178247.067 5   -864536.47921
  21816943.046   -14649378.578 7 -10473435.60422
  21307720.913   -17028273.198 7 -13142857.24823
  21943506.593   -10094306.077 8  -7865642.90124
 91  3 30  1 34 45.0030000  0  4G15G13G 6G 2
  24551440.077    -1157463.169 5   -848341.20821
  21811861.608   -14676085.800 7 -10494246.35322
  21307348.710   -17030225.501 7 -13144378.49423
  21946359.5934  -10079312.09248  -7853959.27064
 91  3 30  1 35  0.0030000  0  4G15G13G 6G 2
  24555422.632    -1136540.784 5   -832038.04221
  21806804.4134  -14702659.54847 -10514953.10062
  21306999.843   -17032063.242 7 -13145810.47523
  21949221.1084  -10064272.36448  -7842239.99764
 91  3 30  1 35 15.0030000  0  4G15G13G 6G 2
  24559429.2884   -1115482.74745   -815629.16661
  21801772.171   -14729102.007 7 -10535557.54122
  21306671.468   -17033788.596 7 -13147154.88523
  21952091.0934  -10049189.53548  -7830487.13564
 91  3 30  1 35 30.0030000  0  4G15G13G 6G 2
  24563461.8124   -1094290.55645   -799115.76161
  21796765.5304  -14755414.42447 -10556060.65362
  21306365.046   -17035402.827 7 -13148412.70523
  21954969.6014  -10034065.13848  -7818701.88464
 91  3 30  1 35 45.0030000  0  4G15G13G 6G 2
  24567520.351    -1072962.021 5   -782496.10121
  21791782.7414  -14781594.61047 -10576460.73062
  21306078.960   -17036903.572 7 -13149582.09023
  21957856.2494  -10018896.79048  -7806882.38564
 91  3 30  1 36  0.0030000  0  4G15G13G 6G 2
  24571605.874    -1051494.896 5   -765768.46221
  21786826.2334  -14807640.13747 -10596755.87361
  21305814.749   -17038288.227 7 -13150661.02423
  21960751.3974  -10003682.26448  -7795026.90164
 91  3 30  1 36 15.0030000  0  4G15G13G 6G 2
  24575716.624    -1029890.033 5   -748933.49021
  21781896.2264  -14833551.73247 -10616946.65861
  21305574.069   -17039557.475 7 -13151650.02423
  21963654.8274   -9988422.37148  -7783136.06564
 91  3 30  1 36 30.0030000  0  4G15G13G 6G 2
  24579853.851    -1008149.535 6   -731992.82121
  21776989.960   -14859330.928 7 -10637034.27522
  21305354.687   -17040712.970 7 -13152550.39023
  21966567.1474   -9973119.03248  -7771211.38164
 91  3 30  1 36 45.0030000  0  4G15G13G 6G 2
  24584014.1554    -986272.43246   -714945.72761
  21772110.015   -14884976.743 7 -10657017.95521
  21305154.577   -17041753.448 7 -13153361.13023
  21969488.0544   -9957771.24748  -7759252.05864
 91  3 30  1 37  0.0030000  0  4G15G13G 6G 2
  24588205.077     -964259.596 6   -697792.84821
  21767254.6794  -14910489.79147 -10676898.19062
  21304979.069   -17042679.503 7 -13154082.70723
  21972416.4134   -9942379.74048  -7747258.67064
 91  3 30  1 37 15.0030000  0  4G15G13G 6G 2
  24592420.483     -942111.131 6   -680534.29121
  21762425.3194  -14935870.17447 -10696675.04262
  21304824.374   -17043490.799 7 -13154714.86623
  21975354.2104   -9926944.43248  -7735231.14664
 91  3 30  1 37 30.0030000  0  4G15G13G 6G 2
  24596658.976     -919825.096 6   -663168.53821
  21757621.6874  -14961115.20047 -10716346.43262
  21304693.913   -17044184.933 7 -13155255.72923
  21978300.491    -9911463.007 8  -7723167.68623
 91  3 30  1 37 45.0030000  0  4G15G13G 6G 2
  24600929.671     -897403.245 6   -645696.95221
  21752842.4764  -14986226.38247 -10735913.51962
  21304584.640   -17044763.336 7 -13155706.41123
  21981253.835    -9895937.178 8  -7711069.63024
 91  3 30  1 38  0.0030000  0  4G15G13G 6G 2
  24605218.007     -874843.640 6   -628118.03421
  21748089.8194  -15011201.57647 -10755374.64462
  21304494.007   -17045223.700 7 -13156065.11523
  21984218.187    -9880364.967 8  -7698935.42024
 91  3 30  1 38 15.0030000  0  4G15G13G 6G 2
  24609539.515     -852150.452 6   -610435.02121
  21743362.4134  -15036044.83347 -10774732.96162
  21304428.101   -17045570.048 7 -13156334.97823
  21987189.397    -9864750.365 8  -7686768.18423
 91  3 30  1 38 30.0030000  0  4G15G13G 6G 2
  24613883.3274    -829319.92946   -592644.99761
  21738661.1874  -15060752.15647 -10793985.35762
  21304384.905   -17045798.295 7 -13156512.80723
  21990168.913    -9849089.721 8  -7674565.07024
 91  3 30  1 38 45.0030000  0  4G15G13G 6G 2
  24618251.843     -806358.683 6   -574753.09221
  21733983.9374  -15085329.98447 -10813136.84962
  21304365.124   -17045914.760 7
  21993156.796    -9833389.506 8  -7662331.12224
 91  3 30  1 39  0.0030000  0  4G15G13G 6G 2
  24622647.6634    -783261.07446   -556754.96161
  21729331.3434  -15109772.65447 -10832183.02062
  21304365.655   -17045913.548 7
  21996152.976    -9817643.867 8  -7650061.78124
 91  3 30  1 39 15.0030000  0  4G15G13G 6G 2
  24627068.7334    -760028.60546   -538651.72861
  21724706.2414  -15134081.14347 -10851124.63462
  21304385.507   -17045795.480 7
  21999157.976    -9801853.963 8  -7637757.95023
 91  3 30  1 39 30.0030000  0  4G15G13G 6G 2
  24631517.108     -736661.075 6   -520443.24821
  21720105.7574  -15158254.97547 -10869961.32262
  21304430.1244  -17045560.23847
  22002170.765    -9786019.579 8  -7625419.45524
 91  3 30  1 39 45.0030000  0  4G15G13G 6G 2
  24635989.4684    -713157.90946   -502129.08161
  21715531.0934  -15182293.19147 -10888692.33162
  21304496.132   -17045206.687 7
  22005192.8974   -9770139.98148  -7613045.73463
 91  3 30  1 40  0.0030000  0  4G15G13G 6G 2
  24640485.507     -689521.703 5   -483711.25421
  21710983.0384  -15206198.35047 -10907319.66362
  21304588.194   -17044737.157 7 -13155685.84023
  22008222.483    -9754217.348 8  -7600638.47423
 91  3 30  1 40 15.0030000  0  4G15G13G 6G 2
  24645009.929     -665751.854 5   -465189.27221
  21706458.7804  -15229969.54947 -10925842.61362
  21304700.085   -17044150.768 7 -13155228.89123
  22011260.741    -9738251.302 8  -7588197.38423
 91  3 30  1 40 30.0030000  0  4G15G13G 6G 2
  24649558.710     -641847.532 5   -446562.51221
  21701960.6874  -15253605.76647 -10944260.38062
  21304832.015   -17043446.544 7 -13154680.12623
  22014307.2334   -9722240.92848  -7575721.76063
 91  3 30  1 40 45.0030000  0  4G15G13G 6G 2
  24654129.3584    -617812.24445   -427833.71861
  21697488.2184  -15277110.29647 -10962575.53262
  21304988.530   -17042627.429 7 -13154041.83323
  22017362.624    -9706189.340 8  -7563214.01423
 91  3 30  1 41  0.0030000  0  4G15G13G 6G 2
  24658730.827     -593638.389 5   -408996.95021
  21693041.8824  -15300475.14747 -10980781.84462
  21305168.007   -17041685.500 7 -13153307.84423
  22020426.241    -9690088.795 8  -7550668.12223
 91  3 30  1 41 15.0030000  0  4G15G13G 6G 2
  24663358.647     -569329.930 5   -390055.28121
  21688621.4914  -15323704.36447 -10998882.47362
  21305369.765   -17040624.528 7 -13152481.09423
  22023497.726    -9673943.488 8  -7538087.34923
 91  3 30  1 41 30.0030000  0  4G15G13G 6G 2
  24668008.452     -544888.194 5   -371009.76421
  21684227.1874  -15346798.91547 -11016878.16062
  21305594.624   -17039445.400 7 -13151562.27323
  22026578.335    -9657754.363 8  -7525472.43223
 91  3 30  1 41 45.0030000  0  4G15G13G 6G 2
  24672685.312     -520312.056 5   -351859.51521
  21679857.7184  -15369757.27947 -11034767.73262
  21305841.890   -17038146.577 7 -13150550.18323
  22029668.007    -9641519.908 8  -7512822.19423
 91  3 30  1 42  0.0030000  0  4G15G13G 6G 2
  24677386.913     -495602.734 5   -332605.49521
  21675515.3194  -15392580.44247 -11052551.95562
  21306111.069   -17036728.867 7 -13149445.45423
  22032766.647    -9625241.303 8  -7500137.55023
 91  3 30  1 42 15.0030000  0  4G15G13G 6G 2
  24682114.522     -470759.822 5   -313247.36521
  21671197.6014  -15415267.64247 -11070230.22762
  21306404.116   -17035191.618 7 -13148247.57723
  22035872.155    -9608918.013 8  -7487418.08523
 91  3 30  1 42 30.0030000  0  4G15G13G 6G 2
  24686867.2184    -445786.49746   -293787.62361
  21666904.6944  -15437821.91047 -11087804.92262
  21306717.601   -17033537.724 7 -13146958.80623
  22038985.944    -9592552.968 8  -7474666.08823
 91  3 30  1 42 45.0030000  0  4G15G13G 6G 2
  24691647.226     -420675.747 5   -274220.81021
  21662640.3274  -15460235.92247 -11105270.32062
  21307057.085   -17031759.661 7 -13145573.28623
  22042109.452    -9576138.911 8  -7461875.89723
 91  3 30  1 43  0.0030000  0  4G15G13G 6G 2
  24696449.0774    -395434.33645   -254552.17561
  21658399.9764  -15482516.42847 -11122631.68862
  21307416.671   -17029864.034 7 -13144096.15723
  22045241.765    -9559682.710 8  -7449052.87123
 91  3 30  1 43 15.0030000  0  4G15G13G 6G 2
  24701276.7184    -370060.28645   -234780.18661
  21654186.4214  -15504660.84247 -11139887.01762
  21307801.3744  -17027848.32547 -13142525.44863
  22048380.944    -9543182.104 8  -7436195.24023
 91  3 30  1 43 30.0030000  0  4G15G13G 6G 2
  24706131.1944    -344554.72745   -214905.71561
  21649998.3194  -15526669.87647 -11157036.85662
  21308207.202   -17025713.179 7 -13140861.67923
  22051529.749    -9526637.826 8  -7423303.58223
 91  3 30  1 43 45.0030000  0  4G15G13G 6G 2
  24711011.9684    -318915.80045   -194927.32661
  21645836.1794  -15548541.78447 -11174079.84062
  21308637.0384  -17023456.43747 -13139103.15663
  22054686.194    -9510047.858 8  -7410376.32123
 91  3 30  1 44  0.0030000  0  4G15G13G 6G 2
  24715913.0544    -293144.32445   -174845.66061
  21641699.1794  -15570277.28747 -11191016.54162
  21309088.702   -17021078.847 7 -13137250.46123
  22057852.147    -9493412.982 8  -7397414.06623
 91  3 30  1 44 15.0030000  0  4G15G13G 6G 2
  24720844.194     -267237.755 5   -154658.71221
  21637589.8664  -15591873.70247 -11207844.85762
  21309564.6244  -17018577.46147 -13135301.30563
  22061026.272    -9476730.752 8  -7384414.90823
 91  3 30  1 44 30.0030000  0  4G15G13G 6G 2
  24725798.405     -241202.995 5   -134371.89421
  21633505.8514  -15613337.34347 -11224569.71262
  21310063.812   -17015958.876 7 -13133260.82823
  22064208.444    -9460007.663 8  -7371383.91423
 91  3 30  1 44 45.0030000  0  4G15G13G 6G 2
  24730779.015     -215033.595 5   -113980.13821
  21629448.038   -15634661.562 7 -11241185.93322
  21310585.405   -17013216.038 7 -13131123.53623
  22067400.569    -9443237.103 8  -7358315.92823
 91  3 30  1 45  0.0030000  0  4G15G13G 6G 2
  24735782.0694    -188732.53945    -93485.80861
  21625416.3354  -15655849.41747 -11257695.89462
  21311129.296   -17010351.858 7 -13128891.69423
  22070600.015    -9426422.115 8  -7345213.32123
 91  3 30  1 45 15.0030000  0  4G15G13G 6G 2
  24740811.772     -162301.257 5    -72889.99821
  21621410.3584  -15676901.91747 -11274100.38162
  21311697.968   -17007367.479 7 -13126566.18723
  22073807.507    -9409563.878 8  -7332077.01923
 91  3 30  1 45 30.0030000  0  4G15G13G 6G 2
  24745868.3194    -135737.03645    -52190.59761
  21617429.905   -15697816.071 7 -11290397.07522
  21312290.265   -17004259.675 7 -13124144.50223
  22077024.515    -9392659.413 8  -7318904.69823
 91  3 30  1 45 45.0030000  0  4G15G13G 6G 2
  24750948.1474    -109041.18445    -31388.64061
  21613476.624   -15718593.000 7 -11306586.83222
  21312904.397   -17001029.417 7 -13121627.40323
  22080250.233    -9375709.762 8  -7305697.16223
 91  3 30  1 46  0.0030000  0  4G15G13G 6G 2
  24756051.6014     -82213.64145    -10484.03761
  21609548.726   -15739232.334 7 -11322669.37822
  21313543.358   -16997676.307 7 -13119014.57123
  22083484.452    -9358714.769 8  -7292454.29923
 91  3 30  1 46 15.0030000  0  4G15G13G 6G 2
  24761184.265      -55253.881 5     10523.57221
  21605647.835   -15759733.003 7 -11338643.87322
  21314203.679   -16994199.250 7 -13116305.16023
  22086727.116    -9341673.525 8  -7279175.39123
 91  3 30  1 46 30.0030000  0  4G15G13G 6G 2
  24766336.7494     -28163.90745     31632.66161
  21601771.5304  -15780096.84747 -11354511.74862
  21314888.960   -16990599.988 7 -13113500.52223
  22089977.890    -9324588.082 8  -7265862.04523
 91  3 30  1 46 45.0030000  0  4G15G13G 6G 2
  24771517.163        -944.961 5     52842.24521
  21597923.210   -15800325.371 7 -11370274.17822
  21315596.155   -16986879.568 7 -13110601.48023
  22093237.8904   -9307459.41648  -7252515.02263
 91  3 30  1 47  0.0030000  0  4G15G13G 6G 2
  24776723.4604      26406.67245     74155.20361
  21594099.999   -15820414.437 7 -11385927.94522
  21316328.687   -16983033.937 7 -13107604.86523
  22096506.132    -9290283.741 8  -7239131.36723
 91  3 30  1 47 15.0030000  0  4G15G13G 6G 2
  24781950.655       53888.119 5     95569.34021
  21590302.421   -15840366.443 7 -11401474.90522
  21317084.358   -16979065.506 7 -13104512.56223
  22099782.444    -9273063.466 8  -7225712.95523
 91  3 30  1 47 30.0030000  0  4G15G13G 6G 2
  24787204.937       81496.337 5    117082.24721
  21586532.429   -15860184.158 7 -11416917.22722
  21317861.515   -16974976.870 7 -13101326.59723
  22103066.569    -9255801.447 8  -7212262.01523
 91  3 30  1 47 45.0030000  0  4G15G13G 6G 2
  24792483.390      109231.720 5    138694.25021
  21582785.741   -15879867.214 7 -11432254.61822
  21318662.765   -16970767.379 7 -13098046.45423
  22106360.249    -9238497.270 8  -7198778.22523
 91  3 30  1 48  0.0030000  0  4G15G13G 6G 2
  24797783.8434     137095.85245    160406.56761
  21579066.858   -15899413.502 7 -11447485.43622
  21319486.843   -16966435.047 7 -13094670.59723
  22109661.358    -9221149.005 8  -7185260.08223
 91  3 30  1 48 15.0030000  0  4G15G13G 6G 2
  24803112.4994     165093.73445    182223.10661
  21575374.179   -15918817.955 7 -11462605.74222
  21320336.608   -16961974.509 7 -13091194.83823
  22112971.851    -9203751.590 8  -7171703.63923
 91  3 30  1 48 30.0030000  0  4G15G13G 6G 2
  24808465.0854     193220.23645    204139.86161
  21571707.265   -15938085.708 7 -11477619.51822
  21321207.265   -16957390.775 7 -13087623.07823
  22116291.155    -9186309.981 8  -7158112.76023
 91  3 30  1 48 45.0030000  0  4G15G13G 6G 2
  24813843.4684     221475.27045    226156.78061
  21568065.554   -15957216.302 7 -11492526.41722
  21322104.147   -16952683.391 7 -13083954.97723
  22119619.3354   -9168824.05348  -7144487.35263
 91  3 30  1 49  0.0030000  0  4G15G13G 6G 2
  24819244.4914     249862.77645    248276.89961
  21564452.7654  -15976205.87147 -11507323.42862
  21323024.444   -16947848.332 7 -13080187.38923
  22122955.093    -9151289.858 8  -7130824.32923
 91  3 30  1 49 15.0030000  0  4G15G13G 6G 2
  24824669.2334     278381.01945    270498.91961
  21560865.882   -15995055.792 7 -11522011.62822
  21323967.780   -16942886.902 7 -13076321.32623
  22126300.507    -9133708.732 8  -7117124.73923
 91  3 30  1 49 30.0030000  0  4G15G13G 6G 2
  24830121.3904     307026.84745    292820.36261
  21557304.890   -16013769.062 7 -11536593.34422
  21324935.827   -16937801.733 7 -13072358.84323
  22129654.569    -9116083.620 8  -7103390.87423
 91  3 30  1 49 45.0030000  0  4G15G13G 6G 2
  24835598.8744     335800.80045    315241.64161
  21553770.3584  -16032344.61947 -11551067.74562
  21325927.663   -16932591.816 7 -13068299.14723
  22133016.897    -9098413.643 8  -7089622.04623
 91  3 30  1 50  0.0030000  0  4G15G13G 6G 2
  24841098.249      364702.636 5    337762.57921
  21550261.2574  -16050782.55247 -11565434.90962
  21326942.202   -16927257.053 7 -13064142.16723
  22136388.6244   -9080698.92148  -7075818.35963
 91  3 30  1 50 15.0030000  0  4G15G13G 6G 2
  24846620.2414     393731.51745    360382.49761
  21546779.226   -16069083.286 7 -11579695.17022
  21327980.843   -16921797.998 7 -13059888.34423
  22139768.2414   -9062940.09648  -7061980.30463
 91  3 30  1 50 30.0030000  0  4G15G13G 6G 2
  24852170.5074     422888.54846    383102.29461
  21543322.257   -16087245.562 7 -11593847.53722
  21329044.194   -16916213.199 7 -13055536.53223
  22143155.4524   -9045135.72148  -7048106.75863
 91  3 30  1 50 45.0030000  0  4G15G13G 6G 2
  24857744.2184     452172.74146    405921.16961
  21539892.210   -16105270.379 7 -11607892.79922
  21330130.749   -16910503.310 7 -13051087.25223
  22146551.9994   -9027286.63148  -7034198.37063
 91  3 30  1 51  0.0030000  0  4G15G13G 6G 2
  24863339.819      481586.485 6    428840.98321
  21536489.054   -16123154.884 7 -11621828.72122
  21331241.515   -16904665.615 7 -13046538.38423
  22149958.1014   -9009390.21048  -7020253.09963
 91  3 30  1 51 15.0030000  0  4G15G13G 6G 2
  24868959.8274     511124.85946    451857.93661
  21533112.343   -16140904.099 7 -11635659.22022
  21332376.085   -16898704.769 7 -13041893.55223
  22153371.6944   -8991451.46548  -7006274.84963
 91  3 30  1 51 30.0030000  0  4G15G13G 6G 2
  24874604.960      540791.390 5    474974.74221
  21529761.202   -16158513.675 7 -11649380.91522
  21333534.515   -16892616.510 7 -13037149.44123
  22156793.6404   -8973466.31148  -6992260.43463
 91  3 30  1 51 45.0030000  0  4G15G13G 6G 2
  24880275.796      570585.670 5    498191.08521
  21526436.022   -16175983.694 7 -11662993.86222
  21334717.522   -16886400.897 7 -13032306.09023
  22160225.0074   -8955434.91648  -6978209.99363
 91  3 30  1 52  0.0030000  0  4G15G13G 6G 2
  24885969.444      600505.643 5    521505.36421
  21523138.726   -16193316.433 7 -11676499.84222
  21335924.116   -16880059.954 7 -13027365.07423
  22163664.4764   -8937359.30448  -6964125.09563
 91  3 30  1 52 15.0030000  0  4G15G13G 6G 2
  24891686.4604     630552.26745    544918.32861
  21519866.312   -16210510.910 7 -11689898.08222
  21337154.171   -16873592.378 7 -13022325.38623
  22167113.3274   -8919238.44748  -6950004.94563
 91  3 30  1 52 30.0030000  0  4G15G13G 6G 2
  24897427.8824     660723.48745    568428.36361
  21516619.585   -16227568.923 7 -11703189.98522
  21338408.843   -16867000.021 7 -13017188.46123
  22170569.4214   -8901074.23348  -6935851.00763
 91  3 30  1 52 45.0030000  0  4G15G13G 6G 2
  24903192.9444     691020.31145    592036.27561
  21513400.249   -16244488.797 7 -11716374.25122
  21339686.702   -16860281.020 7 -13011952.85523
  22174034.3514   -8882864.90447  -6921661.91663
 91  3 30  1 53  0.0030000  0  4G15G13G 6G 2
  24908982.538      721442.929 5    615742.21021
  21510206.991   -16261270.054 7 -11729450.50222
  21340989.866   -16853434.991 7 -13006618.26423
  22177508.8824   -8864610.16648  -6907437.44063
 91  3 30  1 53 15.0030000  0  4G15G13G 6G 2
  24914794.0544     751991.89045    639546.59461
  21507039.812   -16277912.122 7 -11742418.29622
  21342317.897   -16846460.940 7 -13001183.92223
  22180990.991    -8846309.223 8  -6893176.94923
 91  3 30  1 53 30.0030000  0  4G15G13G 6G 2
  24920633.0224     782663.42345    663446.48761
  21503898.741   -16294418.515 7 -11755280.36622
  21343667.3584  -16839362.37947 -12995652.55563
  22184482.1794   -8827965.75147  -6878883.33363
 91  3 30  1 53 45.0030000  0  4G15G13G 6G 2
  24926492.5624     813461.48145    687444.96961
  21500784.866   -16310785.214 7 -11768033.58922
  21345042.7884  -16832135.13947 -12990020.91263
  22187981.5774   -8809575.74548  -6864553.45563
 91  3 30  1 54  0.0030000  0  4G15G13G 6G 2
  24932377.2264     844385.19145    711541.36961
  21497696.702   -16327012.750 7 -11780678.37022
  21346442.663   -16824779.664 7 -12984289.35023
  22191489.866    -8791139.600 8  -6850187.61123
 91  3 30  1 54 15.0030000  0  4G15G13G 6G 2
  24938287.2654     875435.44845    735736.38461
  21494635.491   -16343099.852 7 -11793213.72222
  21347867.827   -16817294.586 7 -12978456.80223
  22195006.1244   -8772656.13348  -6835784.90163
 91  3 30  1 54 30.0030000  0  4G15G13G 6G 2
  24944219.6944     906611.04845    760029.05961
  21491600.132   -16359047.600 7 -11805640.48522
  21349316.9604  -16809680.82547 -12972523.97163
  22198532.772    -8754126.466 8  -6821346.18323
 91  3 30  1 54 45.0030000  0  4G15G13G 6G 2
  24950174.2884     937908.48745    784416.67861
  21488591.155   -16374859.171 7 -11817961.14022
  21350788.9764  -16801941.60347 -12966493.38063
  22202066.702    -8735553.955 8  -6806874.08523
 91  3 30  1 55  0.0030000  0  4G15G13G 6G 2
  24956153.6404     969332.92545    808903.26961
  21485609.304   -16390529.039 7 -11830171.37522
  21352286.858   -16794071.163 7 -12960360.54723
  22205610.2884   -8716932.80248  -6792364.08863
 91  3 30  1 55 15.0030000  0  4G15G13G 6G 2
  24962159.226     1000879.704 5    833485.17821
  21482654.140   -16406061.841 7 -11842274.80022
  21353808.429   -16786073.945 7 -12954128.92923
  22209162.1474   -8698267.81748  -6777819.93363
 91  3 30  1 55 30.0030000  0  4G15G13G 6G 2
  24968183.3664    1032550.33045    858163.59161
  21479724.022   -16421456.143 7 -11854270.31222
  21355354.882   -16777948.232 7 -12947797.19323
  22212722.6874   -8679557.28248  -6763240.29563
 91  3 30  1 55 45.0030000  0  4G15G13G 6G 2
  24974234.937     1064346.155 5    882939.56321
  21476820.663   -16436710.152 7 -11866156.50222
  21356925.812   -16769692.249 7 -12941363.94223
  22216293.2494   -8660799.55148  -6748623.87964
 91  3 30  1 56  0.0030000  0  4G15G13G 6G 2
  24980310.3274    1096266.38745    907812.47361
  21473945.312   -16451824.319 7 -11877933.72322
  21358520.562   -16761306.301 7 -12934829.41523
  22219871.0384   -8641995.03948  -6733971.00863
 91  3 30  1 56 15.0030000  0  3G13G 6G 2
  21471094.999   -16466800.742 7 -11889603.61422
  21360140.952   -16752792.556 7 -12928195.30823
  22223457.7724   -8623145.88548  -6719283.34664
 91  3 30  1 56 30.0030000  0  3G13G 6G 2
  21468270.327   -16481642.557 7 -11901168.61222
  21361785.851   -16744153.764 7 -12921463.75523
  22227052.7804   -8604255.07848  -6704563.22864
 91  3 30  1 56 45.0030000  0  3G13G 6G 2
  21465471.733   -16496350.614 7 -11912629.38522
  21363452.757   -16735390.598 7 -12914635.30623
  22230655.1554   -8585323.39748  -6689811.25864
 91  3 30  1 57  0.0030000  0  3G13G 6G 2
  21462699.187   -16510920.112 7 -11923982.19022
  21365146.147   -16726498.355 7 -12907706.26323
  22234265.4994   -8566346.29648  -6675023.89764
 91  3 30  1 57 15.0030000  0  3G13G 6G 2
  21459953.569   -16525352.305 7 -11935228.00222
  21366860.272   -16717478.240 7 -12900677.58323
  22237886.851    -8547325.058 8  -6660202.14124
 91  3 30  1 57 30.0030000  0  3G13G 6G 2
  21457232.804   -16539643.823 7 -11946364.20222
  21368604.233   -16708326.573 7 -12893546.39623
  22241513.835    -8528256.135 8  -6645343.22424
 91  3 30  1 57 45.0030000  0  3G13G 6G 2
  21454539.1244  -16553798.20147 -11957393.53362
  21370368.710   -16699046.827 7 -12886315.40923
  22245152.007    -8509142.961 7  -6630449.82924
 91  3 30  1 58  0.0030000  0  3G13G 6G 2
  21451871.530   -16567814.201 7 -11968315.04422
  21372159.819   -16689637.494 7 -12878983.44323
  22248797.991    -8489984.336 8  -6615521.01524
 91  3 30  1 58 15.0030000  0  3G13G 6G 2
  21449230.710   -16581693.573 7 -11979130.09122
  21373974.569   -16680100.197 7 -12871551.76823
  22252450.788    -8470781.885 7  -6600558.05124
 91  3 30  1 58 30.0030000  0  3G13G 6G 2
  21446616.015   -16595436.989 7 -11989839.19322
  21375814.124   -16670435.483 7 -12864020.80523
  22256113.6874   -8451536.25347  -6585561.44864
 91  3 30  1 58 45.0030000  0  3G13G 6G 2
  21444028.343   -16609038.068 7 -12000437.38922
  21377677.812   -16660637.192 7 -12856385.75723
  22259785.968    -8432241.503 8  -6570526.56223
 91  3 30  1 59  0.0030000  0  3G13G 6G 2
  21441465.827   -16622498.829 7 -12010926.24622
  21379566.866   -16650707.268 7 -12848648.13523
  22263466.265    -8412899.440 7  -6555454.81323
 91  3 30  1 59 15.0030000  0  3G13G 6G 2
  21438929.116   -16635825.010 7 -12021310.23422
  21381480.030   -16640650.838 7 -12840811.93723
  22267155.593    -8393515.499 8  -6540350.43223
 91  3 30  1 59 30.0030000  0  3G13G 6G 2
  21436421.163   -16649008.366 7 -12031582.92722
  21383419.249   -16630459.686 7 -12832870.76523
  22270853.499    -8374081.574 8  -6525207.10323
 91  3 30  1 59 45.0030000  0  3G13G 6G 2
  21433938.366   -16662056.778 7 -12041750.47022
  21385382.788   -16620141.493 7 -12824830.60223
  22274559.374    -8354605.291 8  -6510030.76723
 91  3 30  2  0  0.0030000  0  3G13G 6G 2
  21431481.960   -16674965.651 7 -12051809.28722
  21387371.780   -16609691.530 7 -12816687.76523
  22278273.812    -8335082.015 8  -6494817.81123
 91  3 30  2  0 15.0030000  0  3G13G 6G 2
  21429051.937   -16687738.177 7 -12061761.85722
  21389386.397   -16599113.045 7 -12808444.77523
  22281997.1554   -8315515.10348  -6479570.85863
 91  3 30  2  0 30.0030000  0  3G13G 6G 2
  21426646.015   -16700374.824 7 -12071608.54922
  21391424.132   -16588406.319 7 -12800101.86223
  22285728.9764   -8295905.15348  -6464290.36763
 91  3 30  2  0 45.0030000  0  3G13G 6G 2
  21424267.866   -16712873.115 7 -12081347.43222
  21393485.015   -16577568.414 7 -12791656.72823
  22289470.093    -8276249.175 8  -6448974.00823
 91  3 30  2  1  0.0030000  0  3G13G 6G 2
  21421916.140   -16725231.325 7 -12090977.16222
  21395572.265   -16566597.587 7 -12783108.02323
  22293219.421    -8256545.492 8  -6433620.47723
 91  3 30  2  1 15.0030000  0  3G13G 6G 2
  21419591.218   -16737451.884 7 -12100499.62922
  21397686.343   -16555496.306 7 -12774457.65923
  22296976.5304   -8236796.71448  -6418231.81063
 91  3 30  2  1 30.0030000  0  3G13G 6G 2
  21417291.890   -16749533.359 7 -12109913.71922
  21399821.702   -16544263.225 7 -12765704.59823
  22300744.858    -8217001.404 8  -6402806.88223
 91  3 30  2  1 45.0030000  0  3G13G 6G 2
  21415018.421   -16761479.111 7 -12119222.05222
  21401986.632   -16532901.169 7 -12756851.02623
  22304518.9294   -8197162.62648  -6387348.08463
 91  3 30  2  2  0.0030000  0  3G13G 6G 2
  21412771.1634  -16773289.14947 -12128424.63562
  21404170.468   -16521410.125 7 -12747896.94123
  22308303.476    -8177280.429 8  -6371855.45223
